<?xml version="1.0" encoding="utf-8"?>
<gpx xmlns:xsi="http://www.w3.org/2001/XMLSchema-instance" xmlns:xsd="http://www.w3.org/2001/XMLSchema" version="1.1" creator="Shapelink.com" xmlns="http://www.topografix.com/GPX/1/1" xmlns:gpxtpx="http://www.garmin.com/xmlschemas/TrackPointExtension/v1">
  <metadata>
    <name>Längdskidåkning 30.43 km, 2012-03-01</name>
    <desc></desc>
    <author><name>Dennis Rehn</name></author> 
    <time>2012-03-01T07:44:04Z</time>
  </metadata>
  <trk>
    <name>Längdskidåkning 30.43 km, 2012-03-01</name>
    <trkseg>
      <trkpt lat="59.9904704904" lon="23.4080495683">
        <ele>11</ele>
        <time>2012-03-01T07:44:04Z</time>
      </trkpt>
      <trkpt lat="59.9905895134" lon="23.4083152745">
        <ele>11</ele>
        <time>2012-03-01T07:44:09Z</time>
      </trkpt>
      <trkpt lat="59.9907435727" lon="23.4086080543">
        <ele>11</ele>
        <time>2012-03-01T07:44:13Z</time>
      </trkpt>
      <trkpt lat="59.9907993123" lon="23.408700339">
        <ele>10.8</ele>
        <time>2012-03-01T07:44:14Z</time>
      </trkpt>
      <trkpt lat="59.9909581493" lon="23.408960597">
        <ele>10.2</ele>
        <time>2012-03-01T07:44:18Z</time>
      </trkpt>
      <trkpt lat="59.9910385317" lon="23.4090542228">
        <ele>10</ele>
        <time>2012-03-01T07:44:20Z</time>
      </trkpt>
      <trkpt lat="59.9911960276" lon="23.4091154945">
        <ele>9.6</ele>
        <time>2012-03-01T07:44:24Z</time>
      </trkpt>
      <trkpt lat="59.9913355863" lon="23.4091035922">
        <ele>9.4</ele>
        <time>2012-03-01T07:44:28Z</time>
      </trkpt>
      <trkpt lat="59.9913753165" lon="23.4090878342">
        <ele>9.4</ele>
        <time>2012-03-01T07:44:29Z</time>
      </trkpt>
      <trkpt lat="59.9916072437" lon="23.4087657178">
        <ele>9</ele>
        <time>2012-03-01T07:44:38Z</time>
      </trkpt>
      <trkpt lat="59.9916477282" lon="23.4085347965">
        <ele>8.2</ele>
        <time>2012-03-01T07:44:42Z</time>
      </trkpt>
      <trkpt lat="59.9916508295" lon="23.4084074754">
        <ele>8</ele>
        <time>2012-03-01T07:44:44Z</time>
      </trkpt>
      <trkpt lat="59.9916206547" lon="23.408009419">
        <ele>6.6</ele>
        <time>2012-03-01T07:44:50Z</time>
      </trkpt>
      <trkpt lat="59.9915950899" lon="23.4078614784">
        <ele>6</ele>
        <time>2012-03-01T07:44:54Z</time>
      </trkpt>
      <trkpt lat="59.9915617299" lon="23.4076956006">
        <ele>5.6</ele>
        <time>2012-03-01T07:44:58Z</time>
      </trkpt>
      <trkpt lat="59.9915235085" lon="23.4074756596">
        <ele>5.2</ele>
        <time>2012-03-01T07:45:03Z</time>
      </trkpt>
      <trkpt lat="59.9914881369" lon="23.4072617535">
        <ele>5</ele>
        <time>2012-03-01T07:45:08Z</time>
      </trkpt>
      <trkpt lat="59.9914572076" lon="23.4070726578">
        <ele>4.8</ele>
        <time>2012-03-01T07:45:13Z</time>
      </trkpt>
      <trkpt lat="59.9914456406" lon="23.4069002422">
        <ele>4.8</ele>
        <time>2012-03-01T07:45:18Z</time>
      </trkpt>
      <trkpt lat="59.9914396057" lon="23.4068754317">
        <ele>4.8</ele>
        <time>2012-03-01T07:45:19Z</time>
      </trkpt>
      <trkpt lat="59.9914365044" lon="23.4068637809">
        <ele>4.8</ele>
        <time>2012-03-01T07:45:20Z</time>
      </trkpt>
      <trkpt lat="59.9914489934" lon="23.4067392259">
        <ele>4.8</ele>
        <time>2012-03-01T07:45:27Z</time>
      </trkpt>
      <trkpt lat="59.9914831077" lon="23.4066439237">
        <ele>5.8</ele>
        <time>2012-03-01T07:45:33Z</time>
      </trkpt>
      <trkpt lat="59.9914847841" lon="23.4066257349">
        <ele>5.8</ele>
        <time>2012-03-01T07:45:34Z</time>
      </trkpt>
      <trkpt lat="59.991505655" lon="23.4065848313">
        <ele>6</ele>
        <time>2012-03-01T07:45:37Z</time>
      </trkpt>
      <trkpt lat="59.9915147913" lon="23.4065674807">
        <ele>6.6</ele>
        <time>2012-03-01T07:45:39Z</time>
      </trkpt>
      <trkpt lat="59.9915785776" lon="23.4063654769">
        <ele>7.6</ele>
        <time>2012-03-01T07:45:45Z</time>
      </trkpt>
      <trkpt lat="59.991603388" lon="23.4062968292">
        <ele>7.8</ele>
        <time>2012-03-01T07:45:47Z</time>
      </trkpt>
      <trkpt lat="59.9916355745" lon="23.4061508165">
        <ele>8.6</ele>
        <time>2012-03-01T07:45:51Z</time>
      </trkpt>
      <trkpt lat="59.9916681801" lon="23.4059252595">
        <ele>9.6</ele>
        <time>2012-03-01T07:45:56Z</time>
      </trkpt>
      <trkpt lat="59.9917017915" lon="23.405820402">
        <ele>10</ele>
        <time>2012-03-01T07:45:59Z</time>
      </trkpt>
      <trkpt lat="59.9917649072" lon="23.4057834378">
        <ele>10.6</ele>
        <time>2012-03-01T07:46:03Z</time>
      </trkpt>
      <trkpt lat="59.9918027096" lon="23.4057610581">
        <ele>11.6</ele>
        <time>2012-03-01T07:46:09Z</time>
      </trkpt>
      <trkpt lat="59.9918274362" lon="23.4057404387">
        <ele>13</ele>
        <time>2012-03-01T07:46:15Z</time>
      </trkpt>
      <trkpt lat="59.991910417" lon="23.4056331503">
        <ele>14</ele>
        <time>2012-03-01T07:46:20Z</time>
      </trkpt>
      <trkpt lat="59.9919306174" lon="23.40560088">
        <ele>14.2</ele>
        <time>2012-03-01T07:46:21Z</time>
      </trkpt>
      <trkpt lat="59.9920045457" lon="23.4054213397">
        <ele>15.4</ele>
        <time>2012-03-01T07:46:26Z</time>
      </trkpt>
      <trkpt lat="59.9921113311" lon="23.4052334175">
        <ele>16.2</ele>
        <time>2012-03-01T07:46:32Z</time>
      </trkpt>
      <trkpt lat="59.9923256563" lon="23.4050017418">
        <ele>18</ele>
        <time>2012-03-01T07:46:41Z</time>
      </trkpt>
      <trkpt lat="59.9924636224" lon="23.4049520371">
        <ele>18.4</ele>
        <time>2012-03-01T07:46:46Z</time>
      </trkpt>
      <trkpt lat="59.9926024266" lon="23.4049970479">
        <ele>18.8</ele>
        <time>2012-03-01T07:46:52Z</time>
      </trkpt>
      <trkpt lat="59.9927405604" lon="23.4050449924">
        <ele>19</ele>
        <time>2012-03-01T07:46:56Z</time>
      </trkpt>
      <trkpt lat="59.9929594956" lon="23.4049981376">
        <ele>19</ele>
        <time>2012-03-01T07:47:00Z</time>
      </trkpt>
      <trkpt lat="59.9930218569" lon="23.4049659511">
        <ele>19</ele>
        <time>2012-03-01T07:47:01Z</time>
      </trkpt>
      <trkpt lat="59.993252443" lon="23.4046326029">
        <ele>19</ele>
        <time>2012-03-01T07:47:05Z</time>
      </trkpt>
      <trkpt lat="59.9933218451" lon="23.4043724288">
        <ele>19.2</ele>
        <time>2012-03-01T07:47:07Z</time>
      </trkpt>
      <trkpt lat="59.9933563785" lon="23.4041540803">
        <ele>19.2</ele>
        <time>2012-03-01T07:47:09Z</time>
      </trkpt>
      <trkpt lat="59.9933743158" lon="23.4039673315">
        <ele>19.2</ele>
        <time>2012-03-01T07:47:11Z</time>
      </trkpt>
      <trkpt lat="59.9934008026" lon="23.4036363303">
        <ele>19.2</ele>
        <time>2012-03-01T07:47:16Z</time>
      </trkpt>
      <trkpt lat="59.9934054127" lon="23.4036051496">
        <ele>19.2</ele>
        <time>2012-03-01T07:47:17Z</time>
      </trkpt>
      <trkpt lat="59.9934319833" lon="23.403501717">
        <ele>18.2</ele>
        <time>2012-03-01T07:47:23Z</time>
      </trkpt>
      <trkpt lat="59.9934414548" lon="23.403455868">
        <ele>18.2</ele>
        <time>2012-03-01T07:47:24Z</time>
      </trkpt>
      <trkpt lat="59.9934985356" lon="23.4031297283">
        <ele>17.6</ele>
        <time>2012-03-01T07:47:32Z</time>
      </trkpt>
      <trkpt lat="59.9935268664" lon="23.4028979687">
        <ele>17.4</ele>
        <time>2012-03-01T07:47:37Z</time>
      </trkpt>
      <trkpt lat="59.9935847015" lon="23.4027008264">
        <ele>17.4</ele>
        <time>2012-03-01T07:47:41Z</time>
      </trkpt>
      <trkpt lat="59.9936340709" lon="23.402527824">
        <ele>17.2</ele>
        <time>2012-03-01T07:47:45Z</time>
      </trkpt>
      <trkpt lat="59.9936927442" lon="23.402369909">
        <ele>17.8</ele>
        <time>2012-03-01T07:47:49Z</time>
      </trkpt>
      <trkpt lat="59.9937440414" lon="23.4022023548">
        <ele>18.4</ele>
        <time>2012-03-01T07:47:54Z</time>
      </trkpt>
      <trkpt lat="59.9937427841" lon="23.4021910393">
        <ele>18.4</ele>
        <time>2012-03-01T07:47:55Z</time>
      </trkpt>
      <trkpt lat="59.9937396828" lon="23.4022148439">
        <ele>19.6</ele>
        <time>2012-03-01T07:48:05Z</time>
      </trkpt>
      <trkpt lat="59.9937364977" lon="23.4022477847">
        <ele>20.8</ele>
        <time>2012-03-01T07:48:19Z</time>
      </trkpt>
      <trkpt lat="59.9937601347" lon="23.4021685758">
        <ele>21.2</ele>
        <time>2012-03-01T07:48:24Z</time>
      </trkpt>
      <trkpt lat="59.993777569" lon="23.4020685797">
        <ele>22</ele>
        <time>2012-03-01T07:48:28Z</time>
      </trkpt>
      <trkpt lat="59.993826184" lon="23.4018426037">
        <ele>22.4</ele>
        <time>2012-03-01T07:48:34Z</time>
      </trkpt>
      <trkpt lat="59.9940318759" lon="23.4015444595">
        <ele>22.8</ele>
        <time>2012-03-01T07:48:41Z</time>
      </trkpt>
      <trkpt lat="59.9941712669" lon="23.4013996203">
        <ele>23</ele>
        <time>2012-03-01T07:48:45Z</time>
      </trkpt>
      <trkpt lat="59.9943477059" lon="23.4012184874">
        <ele>22.6</ele>
        <time>2012-03-01T07:48:50Z</time>
      </trkpt>
      <trkpt lat="59.9944769548" lon="23.4010969499">
        <ele>21.8</ele>
        <time>2012-03-01T07:48:54Z</time>
      </trkpt>
      <trkpt lat="59.9945189481" lon="23.4010787611">
        <ele>21.4</ele>
        <time>2012-03-01T07:48:56Z</time>
      </trkpt>
      <trkpt lat="59.9946404018" lon="23.4009375261">
        <ele>20</ele>
        <time>2012-03-01T07:49:03Z</time>
      </trkpt>
      <trkpt lat="59.9947165095" lon="23.400851444">
        <ele>19.2</ele>
        <time>2012-03-01T07:49:06Z</time>
      </trkpt>
      <trkpt lat="59.9948035974" lon="23.4006963789">
        <ele>18.2</ele>
        <time>2012-03-01T07:49:11Z</time>
      </trkpt>
      <trkpt lat="59.9948216185" lon="23.4006630189">
        <ele>18.2</ele>
        <time>2012-03-01T07:49:12Z</time>
      </trkpt>
      <trkpt lat="59.9949254702" lon="23.4004544772">
        <ele>17.6</ele>
        <time>2012-03-01T07:49:19Z</time>
      </trkpt>
      <trkpt lat="59.9949759293" lon="23.4003521342">
        <ele>17.4</ele>
        <time>2012-03-01T07:49:24Z</time>
      </trkpt>
      <trkpt lat="59.9950173359" lon="23.4002668065">
        <ele>17.2</ele>
        <time>2012-03-01T07:49:31Z</time>
      </trkpt>
      <trkpt lat="59.995023287" lon="23.4002467738">
        <ele>17.2</ele>
        <time>2012-03-01T07:49:36Z</time>
      </trkpt>
      <trkpt lat="59.995047846" lon="23.4001470291">
        <ele>17.8</ele>
        <time>2012-03-01T07:49:42Z</time>
      </trkpt>
      <trkpt lat="59.9950798648" lon="23.4000143437">
        <ele>19.2</ele>
        <time>2012-03-01T07:49:49Z</time>
      </trkpt>
      <trkpt lat="59.9950807868" lon="23.3999986695">
        <ele>19.4</ele>
        <time>2012-03-01T07:49:50Z</time>
      </trkpt>
      <trkpt lat="59.9950866542" lon="23.3999270881">
        <ele>20.2</ele>
        <time>2012-03-01T07:49:53Z</time>
      </trkpt>
      <trkpt lat="59.9950980535" lon="23.3997231565">
        <ele>22.4</ele>
        <time>2012-03-01T07:50:01Z</time>
      </trkpt>
      <trkpt lat="59.9950826309" lon="23.3996156167">
        <ele>23.8</ele>
        <time>2012-03-01T07:50:07Z</time>
      </trkpt>
      <trkpt lat="59.9950706447" lon="23.3994893015">
        <ele>25.6</ele>
        <time>2012-03-01T07:50:13Z</time>
      </trkpt>
      <trkpt lat="59.9950019132" lon="23.3993834381">
        <ele>26.6</ele>
        <time>2012-03-01T07:50:17Z</time>
      </trkpt>
      <trkpt lat="59.9949195191" lon="23.3992586316">
        <ele>27.8</ele>
        <time>2012-03-01T07:50:21Z</time>
      </trkpt>
      <trkpt lat="59.9947120671" lon="23.399044474">
        <ele>28.8</ele>
        <time>2012-03-01T07:50:29Z</time>
      </trkpt>
      <trkpt lat="59.9946442575" lon="23.3988802726">
        <ele>29.8</ele>
        <time>2012-03-01T07:50:34Z</time>
      </trkpt>
      <trkpt lat="59.9945718379" lon="23.3985662028">
        <ele>30.6</ele>
        <time>2012-03-01T07:50:39Z</time>
      </trkpt>
      <trkpt lat="59.9944938862" lon="23.3982722496">
        <ele>31</ele>
        <time>2012-03-01T07:50:44Z</time>
      </trkpt>
      <trkpt lat="59.9943730192" lon="23.3980783762">
        <ele>31.8</ele>
        <time>2012-03-01T07:50:49Z</time>
      </trkpt>
      <trkpt lat="59.9941977537" lon="23.3978556691">
        <ele>32.6</ele>
        <time>2012-03-01T07:50:54Z</time>
      </trkpt>
      <trkpt lat="59.9940982605" lon="23.3975854367">
        <ele>33</ele>
        <time>2012-03-01T07:50:59Z</time>
      </trkpt>
      <trkpt lat="59.9940016172" lon="23.397156954">
        <ele>33.4</ele>
        <time>2012-03-01T07:51:04Z</time>
      </trkpt>
      <trkpt lat="59.9938561912" lon="23.3967143896">
        <ele>33.4</ele>
        <time>2012-03-01T07:51:07Z</time>
      </trkpt>
      <trkpt lat="59.9937190634" lon="23.3963875794">
        <ele>33</ele>
        <time>2012-03-01T07:51:09Z</time>
      </trkpt>
      <trkpt lat="59.993584031" lon="23.3961009184">
        <ele>32.8</ele>
        <time>2012-03-01T07:51:11Z</time>
      </trkpt>
      <trkpt lat="59.9934090169" lon="23.3957646366">
        <ele>32</ele>
        <time>2012-03-01T07:51:14Z</time>
      </trkpt>
      <trkpt lat="59.9933651795" lon="23.3956788897">
        <ele>31.8</ele>
        <time>2012-03-01T07:51:15Z</time>
      </trkpt>
      <trkpt lat="59.993255209" lon="23.3954517402">
        <ele>31</ele>
        <time>2012-03-01T07:51:19Z</time>
      </trkpt>
      <trkpt lat="59.9931837114" lon="23.3953374949">
        <ele>30.4</ele>
        <time>2012-03-01T07:51:23Z</time>
      </trkpt>
      <trkpt lat="59.99316678" lon="23.3953037159">
        <ele>30.4</ele>
        <time>2012-03-01T07:51:24Z</time>
      </trkpt>
      <trkpt lat="59.9930469188" lon="23.3950878819">
        <ele>29.8</ele>
        <time>2012-03-01T07:51:31Z</time>
      </trkpt>
      <trkpt lat="59.9929379541" lon="23.394886884">
        <ele>30.6</ele>
        <time>2012-03-01T07:51:38Z</time>
      </trkpt>
      <trkpt lat="59.9928275645" lon="23.3946684517">
        <ele>31.8</ele>
        <time>2012-03-01T07:51:45Z</time>
      </trkpt>
      <trkpt lat="59.9926921968" lon="23.3944202636">
        <ele>33.4</ele>
        <time>2012-03-01T07:51:53Z</time>
      </trkpt>
      <trkpt lat="59.9926159215" lon="23.3942620133">
        <ele>34.4</ele>
        <time>2012-03-01T07:51:58Z</time>
      </trkpt>
      <trkpt lat="59.9925320187" lon="23.3941020029">
        <ele>34.8</ele>
        <time>2012-03-01T07:52:03Z</time>
      </trkpt>
      <trkpt lat="59.992414253" lon="23.3938699919">
        <ele>36.2</ele>
        <time>2012-03-01T07:52:10Z</time>
      </trkpt>
      <trkpt lat="59.9923430068" lon="23.3936740231">
        <ele>36.8</ele>
        <time>2012-03-01T07:52:15Z</time>
      </trkpt>
      <trkpt lat="59.9923316075" lon="23.3936281741">
        <ele>37</ele>
        <time>2012-03-01T07:52:16Z</time>
      </trkpt>
      <trkpt lat="59.99227394" lon="23.3934412577">
        <ele>37.6</ele>
        <time>2012-03-01T07:52:21Z</time>
      </trkpt>
      <trkpt lat="59.9922257441" lon="23.3932071512">
        <ele>38.6</ele>
        <time>2012-03-01T07:52:27Z</time>
      </trkpt>
      <trkpt lat="59.992192887" lon="23.3930921516">
        <ele>39.2</ele>
        <time>2012-03-01T07:52:31Z</time>
      </trkpt>
      <trkpt lat="59.9921892828" lon="23.3930987733">
        <ele>41</ele>
        <time>2012-03-01T07:52:42Z</time>
      </trkpt>
      <trkpt lat="59.9921815714" lon="23.3930852784">
        <ele>41.8</ele>
        <time>2012-03-01T07:52:59Z</time>
      </trkpt>
      <trkpt lat="59.9921594432" lon="23.3930129426">
        <ele>41.8</ele>
        <time>2012-03-01T07:53:14Z</time>
      </trkpt>
      <trkpt lat="59.9921592756" lon="23.3930096737">
        <ele>42</ele>
        <time>2012-03-01T07:53:19Z</time>
      </trkpt>
      <trkpt lat="59.9921453616" lon="23.3929950053">
        <ele>42</ele>
        <time>2012-03-01T07:53:30Z</time>
      </trkpt>
      <trkpt lat="59.9921374827" lon="23.3929721227">
        <ele>42</ele>
        <time>2012-03-01T07:53:31Z</time>
      </trkpt>
      <trkpt lat="59.9920885324" lon="23.3928416166">
        <ele>42</ele>
        <time>2012-03-01T07:53:36Z</time>
      </trkpt>
      <trkpt lat="59.9920699245" lon="23.3928019702">
        <ele>42</ele>
        <time>2012-03-01T07:53:38Z</time>
      </trkpt>
      <trkpt lat="59.9919981755" lon="23.3926758226">
        <ele>42</ele>
        <time>2012-03-01T07:53:44Z</time>
      </trkpt>
      <trkpt lat="59.9919457886" lon="23.3925993797">
        <ele>42</ele>
        <time>2012-03-01T07:53:48Z</time>
      </trkpt>
      <trkpt lat="59.991879823" lon="23.392546406">
        <ele>42</ele>
        <time>2012-03-01T07:53:52Z</time>
      </trkpt>
      <trkpt lat="59.9916971814" lon="23.392743716">
        <ele>42</ele>
        <time>2012-03-01T07:54:04Z</time>
      </trkpt>
      <trkpt lat="59.9916364127" lon="23.3928536865">
        <ele>42</ele>
        <time>2012-03-01T07:54:09Z</time>
      </trkpt>
      <trkpt lat="59.9915652503" lon="23.3929333984">
        <ele>42</ele>
        <time>2012-03-01T07:54:13Z</time>
      </trkpt>
      <trkpt lat="59.9914470655" lon="23.3930327239">
        <ele>42</ele>
        <time>2012-03-01T07:54:18Z</time>
      </trkpt>
      <trkpt lat="59.9912428825" lon="23.3931440355">
        <ele>42</ele>
        <time>2012-03-01T07:54:23Z</time>
      </trkpt>
      <trkpt lat="59.9910083569" lon="23.3931631462">
        <ele>42</ele>
        <time>2012-03-01T07:54:28Z</time>
      </trkpt>
      <trkpt lat="59.9904534751" lon="23.3938438403">
        <ele>40.4</ele>
        <time>2012-03-01T07:54:40Z</time>
      </trkpt>
      <trkpt lat="59.9904170139" lon="23.3938638731">
        <ele>40</ele>
        <time>2012-03-01T07:54:44Z</time>
      </trkpt>
      <trkpt lat="59.9904080452" lon="23.3938453491">
        <ele>39.8</ele>
        <time>2012-03-01T07:54:45Z</time>
      </trkpt>
      <trkpt lat="59.9903936284" lon="23.3938277471">
        <ele>39</ele>
        <time>2012-03-01T07:54:50Z</time>
      </trkpt>
      <trkpt lat="59.9903559098" lon="23.3937996677">
        <ele>39.8</ele>
        <time>2012-03-01T07:55:47Z</time>
      </trkpt>
      <trkpt lat="59.9903430855" lon="23.3937901124">
        <ele>40</ele>
        <time>2012-03-01T07:56:05Z</time>
      </trkpt>
      <trkpt lat="59.9903527247" lon="23.3938167668">
        <ele>40</ele>
        <time>2012-03-01T07:56:59Z</time>
      </trkpt>
      <trkpt lat="59.9903437561" lon="23.393807882">
        <ele>40</ele>
        <time>2012-03-01T07:57:30Z</time>
      </trkpt>
      <trkpt lat="59.9902860886" lon="23.3937518909">
        <ele>40</ele>
        <time>2012-03-01T07:57:38Z</time>
      </trkpt>
      <trkpt lat="59.9901274192" lon="23.3936040342">
        <ele>40</ele>
        <time>2012-03-01T07:57:42Z</time>
      </trkpt>
      <trkpt lat="59.9899104118" lon="23.39360043">
        <ele>40</ele>
        <time>2012-03-01T07:57:47Z</time>
      </trkpt>
      <trkpt lat="59.9898445301" lon="23.3937153458">
        <ele>40</ele>
        <time>2012-03-01T07:57:49Z</time>
      </trkpt>
      <trkpt lat="59.9897441149" lon="23.3938989094">
        <ele>40</ele>
        <time>2012-03-01T07:57:52Z</time>
      </trkpt>
      <trkpt lat="59.9896247567" lon="23.394038971">
        <ele>39.6</ele>
        <time>2012-03-01T07:57:55Z</time>
      </trkpt>
      <trkpt lat="59.9895383393" lon="23.3940968899">
        <ele>39.2</ele>
        <time>2012-03-01T07:57:57Z</time>
      </trkpt>
      <trkpt lat="59.9893617326" lon="23.3942207744">
        <ele>38.6</ele>
        <time>2012-03-01T07:58:02Z</time>
      </trkpt>
      <trkpt lat="59.989332396" lon="23.3942645279">
        <ele>38.6</ele>
        <time>2012-03-01T07:58:03Z</time>
      </trkpt>
      <trkpt lat="59.9892735551" lon="23.3943741632">
        <ele>38.4</ele>
        <time>2012-03-01T07:58:05Z</time>
      </trkpt>
      <trkpt lat="59.9891922506" lon="23.3945250374">
        <ele>37.8</ele>
        <time>2012-03-01T07:58:08Z</time>
      </trkpt>
      <trkpt lat="59.9890098605" lon="23.3944935214">
        <ele>37</ele>
        <time>2012-03-01T07:58:12Z</time>
      </trkpt>
      <trkpt lat="59.9889386143" lon="23.3943773483">
        <ele>36.8</ele>
        <time>2012-03-01T07:58:14Z</time>
      </trkpt>
      <trkpt lat="59.9888659433" lon="23.3942204391">
        <ele>36.6</ele>
        <time>2012-03-01T07:58:17Z</time>
      </trkpt>
      <trkpt lat="59.9887686294" lon="23.3940591714">
        <ele>35.8</ele>
        <time>2012-03-01T07:58:22Z</time>
      </trkpt>
      <trkpt lat="59.9887464174" lon="23.3939955527">
        <ele>35</ele>
        <time>2012-03-01T07:58:27Z</time>
      </trkpt>
      <trkpt lat="59.9887402148" lon="23.393956996">
        <ele>33.8</ele>
        <time>2012-03-01T07:58:47Z</time>
      </trkpt>
      <trkpt lat="59.9887440704" lon="23.3939359574">
        <ele>33.8</ele>
        <time>2012-03-01T07:58:59Z</time>
      </trkpt>
      <trkpt lat="59.9887423102" lon="23.3939248933">
        <ele>33.8</ele>
        <time>2012-03-01T07:59:00Z</time>
      </trkpt>
      <trkpt lat="59.9887347665" lon="23.393686093">
        <ele>33.8</ele>
        <time>2012-03-01T07:59:05Z</time>
      </trkpt>
      <trkpt lat="59.9887102914" lon="23.3934235719">
        <ele>33.8</ele>
        <time>2012-03-01T07:59:09Z</time>
      </trkpt>
      <trkpt lat="59.9887009875" lon="23.3931079933">
        <ele>33.6</ele>
        <time>2012-03-01T07:59:13Z</time>
      </trkpt>
      <trkpt lat="59.9886750874" lon="23.3927658442">
        <ele>33.6</ele>
        <time>2012-03-01T07:59:17Z</time>
      </trkpt>
      <trkpt lat="59.9886670408" lon="23.3926013913">
        <ele>33.6</ele>
        <time>2012-03-01T07:59:19Z</time>
      </trkpt>
      <trkpt lat="59.98866" lon="23.3922545483">
        <ele>33.6</ele>
        <time>2012-03-01T07:59:23Z</time>
      </trkpt>
      <trkpt lat="59.9886548032" lon="23.3920663746">
        <ele>33.6</ele>
        <time>2012-03-01T07:59:25Z</time>
      </trkpt>
      <trkpt lat="59.9886368659" lon="23.3918267361">
        <ele>33.6</ele>
        <time>2012-03-01T07:59:28Z</time>
      </trkpt>
      <trkpt lat="59.9886450802" lon="23.391689273">
        <ele>33.6</ele>
        <time>2012-03-01T07:59:30Z</time>
      </trkpt>
      <trkpt lat="59.9886507799" lon="23.391613752">
        <ele>33.4</ele>
        <time>2012-03-01T07:59:31Z</time>
      </trkpt>
      <trkpt lat="59.9886957069" lon="23.3913263367">
        <ele>32.8</ele>
        <time>2012-03-01T07:59:35Z</time>
      </trkpt>
      <trkpt lat="59.9887656119" lon="23.3910876202">
        <ele>32.2</ele>
        <time>2012-03-01T07:59:40Z</time>
      </trkpt>
      <trkpt lat="59.9888205134" lon="23.3908489875">
        <ele>31.2</ele>
        <time>2012-03-01T07:59:44Z</time>
      </trkpt>
      <trkpt lat="59.9888862275" lon="23.3906099357">
        <ele>30.6</ele>
        <time>2012-03-01T07:59:49Z</time>
      </trkpt>
      <trkpt lat="59.9889129657" lon="23.3905268711">
        <ele>30.4</ele>
        <time>2012-03-01T07:59:51Z</time>
      </trkpt>
      <trkpt lat="59.9889935158" lon="23.3902243683">
        <ele>29.2</ele>
        <time>2012-03-01T07:59:57Z</time>
      </trkpt>
      <trkpt lat="59.9890653487" lon="23.3899926926">
        <ele>28.4</ele>
        <time>2012-03-01T08:00:02Z</time>
      </trkpt>
      <trkpt lat="59.9891421269" lon="23.3897605978">
        <ele>28</ele>
        <time>2012-03-01T08:00:07Z</time>
      </trkpt>
      <trkpt lat="59.9892054102" lon="23.3895461049">
        <ele>27.8</ele>
        <time>2012-03-01T08:00:12Z</time>
      </trkpt>
      <trkpt lat="59.9892841163" lon="23.3893041195">
        <ele>27.8</ele>
        <time>2012-03-01T08:00:17Z</time>
      </trkpt>
      <trkpt lat="59.9893534346" lon="23.3890775567">
        <ele>27.6</ele>
        <time>2012-03-01T08:00:21Z</time>
      </trkpt>
      <trkpt lat="59.9894178076" lon="23.388806067">
        <ele>27.6</ele>
        <time>2012-03-01T08:00:25Z</time>
      </trkpt>
      <trkpt lat="59.9894981062" lon="23.388467103">
        <ele>27.6</ele>
        <time>2012-03-01T08:00:30Z</time>
      </trkpt>
      <trkpt lat="59.9895053984" lon="23.3883972817">
        <ele>27.6</ele>
        <time>2012-03-01T08:00:31Z</time>
      </trkpt>
      <trkpt lat="59.9895506607" lon="23.3880919291">
        <ele>27.6</ele>
        <time>2012-03-01T08:00:34Z</time>
      </trkpt>
      <trkpt lat="59.9896009521" lon="23.387608964">
        <ele>27.6</ele>
        <time>2012-03-01T08:00:38Z</time>
      </trkpt>
      <trkpt lat="59.9896450409" lon="23.3871826606">
        <ele>27.6</ele>
        <time>2012-03-01T08:00:41Z</time>
      </trkpt>
      <trkpt lat="59.9896567755" lon="23.387061626">
        <ele>27.6</ele>
        <time>2012-03-01T08:00:42Z</time>
      </trkpt>
      <trkpt lat="59.9897132695" lon="23.386522586">
        <ele>27.6</ele>
        <time>2012-03-01T08:00:47Z</time>
      </trkpt>
      <trkpt lat="59.9897230764" lon="23.3864318938">
        <ele>27.6</ele>
        <time>2012-03-01T08:00:48Z</time>
      </trkpt>
      <trkpt lat="59.989736655" lon="23.3859952806">
        <ele>27</ele>
        <time>2012-03-01T08:00:53Z</time>
      </trkpt>
      <trkpt lat="59.9897308715" lon="23.3858974639">
        <ele>26.8</ele>
        <time>2012-03-01T08:00:54Z</time>
      </trkpt>
      <trkpt lat="59.9897089948" lon="23.3857128944">
        <ele>26.6</ele>
        <time>2012-03-01T08:00:56Z</time>
      </trkpt>
      <trkpt lat="59.9896310431" lon="23.3852744372">
        <ele>26.2</ele>
        <time>2012-03-01T08:01:01Z</time>
      </trkpt>
      <trkpt lat="59.989611178" lon="23.3851952283">
        <ele>26</ele>
        <time>2012-03-01T08:01:02Z</time>
      </trkpt>
      <trkpt lat="59.9895743814" lon="23.3850596091">
        <ele>26</ele>
        <time>2012-03-01T08:01:04Z</time>
      </trkpt>
      <trkpt lat="59.9895036382" lon="23.3847821683">
        <ele>25.6</ele>
        <time>2012-03-01T08:01:08Z</time>
      </trkpt>
      <trkpt lat="59.9894752236" lon="23.3846525841">
        <ele>25.2</ele>
        <time>2012-03-01T08:01:10Z</time>
      </trkpt>
      <trkpt lat="59.9894205736" lon="23.3843713713">
        <ele>24.4</ele>
        <time>2012-03-01T08:01:15Z</time>
      </trkpt>
      <trkpt lat="59.9893656721" lon="23.3841284639">
        <ele>24</ele>
        <time>2012-03-01T08:01:20Z</time>
      </trkpt>
      <trkpt lat="59.9893256905" lon="23.3839344229">
        <ele>23.8</ele>
        <time>2012-03-01T08:01:24Z</time>
      </trkpt>
      <trkpt lat="59.9892849544" lon="23.3837457463">
        <ele>23.8</ele>
        <time>2012-03-01T08:01:28Z</time>
      </trkpt>
      <trkpt lat="59.9891674402" lon="23.3831766153">
        <ele>23.6</ele>
        <time>2012-03-01T08:01:39Z</time>
      </trkpt>
      <trkpt lat="59.9891289673" lon="23.3829589374">
        <ele>24.2</ele>
        <time>2012-03-01T08:01:44Z</time>
      </trkpt>
      <trkpt lat="59.9890917516" lon="23.3827675786">
        <ele>24.6</ele>
        <time>2012-03-01T08:01:48Z</time>
      </trkpt>
      <trkpt lat="59.9890267081" lon="23.3825203964">
        <ele>25</ele>
        <time>2012-03-01T08:01:52Z</time>
      </trkpt>
      <trkpt lat="59.9889974553" lon="23.3823907284">
        <ele>25</ele>
        <time>2012-03-01T08:01:54Z</time>
      </trkpt>
      <trkpt lat="59.9889405422" lon="23.3821180652">
        <ele>25.2</ele>
        <time>2012-03-01T08:01:58Z</time>
      </trkpt>
      <trkpt lat="59.9888471678" lon="23.3817921769">
        <ele>25.4</ele>
        <time>2012-03-01T08:02:03Z</time>
      </trkpt>
      <trkpt lat="59.9888008997" lon="23.3815901731">
        <ele>25.4</ele>
        <time>2012-03-01T08:02:06Z</time>
      </trkpt>
      <trkpt lat="59.9887489319" lon="23.3813569048">
        <ele>25.4</ele>
        <time>2012-03-01T08:02:10Z</time>
      </trkpt>
      <trkpt lat="59.9886978862" lon="23.3811181045">
        <ele>25.4</ele>
        <time>2012-03-01T08:02:14Z</time>
      </trkpt>
      <trkpt lat="59.9886429847" lon="23.3808415856">
        <ele>25.4</ele>
        <time>2012-03-01T08:02:18Z</time>
      </trkpt>
      <trkpt lat="59.9885749237" lon="23.3805387476">
        <ele>25.4</ele>
        <time>2012-03-01T08:02:22Z</time>
      </trkpt>
      <trkpt lat="59.988501163" lon="23.3802101771">
        <ele>25.4</ele>
        <time>2012-03-01T08:02:26Z</time>
      </trkpt>
      <trkpt lat="59.9884488599" lon="23.3799790881">
        <ele>25.4</ele>
        <time>2012-03-01T08:02:29Z</time>
      </trkpt>
      <trkpt lat="59.9884103032" lon="23.3796866436">
        <ele>25</ele>
        <time>2012-03-01T08:02:33Z</time>
      </trkpt>
      <trkpt lat="59.9884356165" lon="23.3794428141">
        <ele>24.6</ele>
        <time>2012-03-01T08:02:37Z</time>
      </trkpt>
      <trkpt lat="59.988562267" lon="23.3792072827">
        <ele>24</ele>
        <time>2012-03-01T08:02:43Z</time>
      </trkpt>
      <trkpt lat="59.9886738301" lon="23.379060851">
        <ele>23.8</ele>
        <time>2012-03-01T08:02:48Z</time>
      </trkpt>
      <trkpt lat="59.9887781009" lon="23.3789026007">
        <ele>23.6</ele>
        <time>2012-03-01T08:02:53Z</time>
      </trkpt>
      <trkpt lat="59.9888580643" lon="23.3787230604">
        <ele>23.6</ele>
        <time>2012-03-01T08:02:58Z</time>
      </trkpt>
      <trkpt lat="59.9888800249" lon="23.3786277582">
        <ele>23.4</ele>
        <time>2012-03-01T08:03:04Z</time>
      </trkpt>
      <trkpt lat="59.9888801087" lon="23.3786191248">
        <ele>23.4</ele>
        <time>2012-03-01T08:03:16Z</time>
      </trkpt>
      <trkpt lat="59.988915145" lon="23.378565313">
        <ele>28.2</ele>
        <time>2012-03-01T08:03:46Z</time>
      </trkpt>
      <trkpt lat="59.9889247004" lon="23.3785172847">
        <ele>29.8</ele>
        <time>2012-03-01T08:03:52Z</time>
      </trkpt>
      <trkpt lat="59.9889285561" lon="23.3784089068">
        <ele>30.4</ele>
        <time>2012-03-01T08:03:56Z</time>
      </trkpt>
      <trkpt lat="59.9889298972" lon="23.3781198989">
        <ele>31.6</ele>
        <time>2012-03-01T08:04:02Z</time>
      </trkpt>
      <trkpt lat="59.9889237784" lon="23.377835501">
        <ele>32.4</ele>
        <time>2012-03-01T08:04:06Z</time>
      </trkpt>
      <trkpt lat="59.9889430567" lon="23.3774615006">
        <ele>33</ele>
        <time>2012-03-01T08:04:11Z</time>
      </trkpt>
      <trkpt lat="59.9889573898" lon="23.3773990555">
        <ele>33</ele>
        <time>2012-03-01T08:04:12Z</time>
      </trkpt>
      <trkpt lat="59.98906845" lon="23.3772076967">
        <ele>33.2</ele>
        <time>2012-03-01T08:04:16Z</time>
      </trkpt>
      <trkpt lat="59.9891023128" lon="23.3771538011">
        <ele>33.4</ele>
        <time>2012-03-01T08:04:17Z</time>
      </trkpt>
      <trkpt lat="59.9892081762" lon="23.3768671401">
        <ele>33</ele>
        <time>2012-03-01T08:04:21Z</time>
      </trkpt>
      <trkpt lat="59.989255534" lon="23.3767052856">
        <ele>32.6</ele>
        <time>2012-03-01T08:04:23Z</time>
      </trkpt>
      <trkpt lat="59.9894097609" lon="23.3763734462">
        <ele>32.2</ele>
        <time>2012-03-01T08:04:28Z</time>
      </trkpt>
      <trkpt lat="59.9894463898" lon="23.3763052175">
        <ele>32</ele>
        <time>2012-03-01T08:04:29Z</time>
      </trkpt>
      <trkpt lat="59.9895318852" lon="23.3761576961">
        <ele>31.4</ele>
        <time>2012-03-01T08:04:31Z</time>
      </trkpt>
      <trkpt lat="59.9896477231" lon="23.3758514214">
        <ele>30.8</ele>
        <time>2012-03-01T08:04:35Z</time>
      </trkpt>
      <trkpt lat="59.989673204" lon="23.3758086738">
        <ele>30.6</ele>
        <time>2012-03-01T08:04:36Z</time>
      </trkpt>
      <trkpt lat="59.9898903791" lon="23.3754984596">
        <ele>29.2</ele>
        <time>2012-03-01T08:04:43Z</time>
      </trkpt>
      <trkpt lat="59.9899107471" lon="23.375457556">
        <ele>29</ele>
        <time>2012-03-01T08:04:44Z</time>
      </trkpt>
      <trkpt lat="59.9900181192" lon="23.3753789337">
        <ele>28.6</ele>
        <time>2012-03-01T08:04:47Z</time>
      </trkpt>
      <trkpt lat="59.990049719" lon="23.3753569732">
        <ele>28.4</ele>
        <time>2012-03-01T08:04:48Z</time>
      </trkpt>
      <trkpt lat="59.9902274991" lon="23.3751936938">
        <ele>27.8</ele>
        <time>2012-03-01T08:04:52Z</time>
      </trkpt>
      <trkpt lat="59.9902670617" lon="23.3751529577">
        <ele>27.6</ele>
        <time>2012-03-01T08:04:53Z</time>
      </trkpt>
      <trkpt lat="59.9903595978" lon="23.3750468429">
        <ele>27.2</ele>
        <time>2012-03-01T08:04:55Z</time>
      </trkpt>
      <trkpt lat="59.990589681" lon="23.3749405604">
        <ele>26.4</ele>
        <time>2012-03-01T08:05:00Z</time>
      </trkpt>
      <trkpt lat="59.990702669" lon="23.3749307535">
        <ele>26</ele>
        <time>2012-03-01T08:05:04Z</time>
      </trkpt>
      <trkpt lat="59.9907620967" lon="23.3749174263">
        <ele>25.8</ele>
        <time>2012-03-01T08:05:06Z</time>
      </trkpt>
      <trkpt lat="59.9909646034" lon="23.3748293326">
        <ele>25</ele>
        <time>2012-03-01T08:05:12Z</time>
      </trkpt>
      <trkpt lat="59.9909988015" lon="23.3747979843">
        <ele>24.8</ele>
        <time>2012-03-01T08:05:13Z</time>
      </trkpt>
      <trkpt lat="59.9911288048" lon="23.374639734">
        <ele>24.2</ele>
        <time>2012-03-01T08:05:17Z</time>
      </trkpt>
      <trkpt lat="59.9912273759" lon="23.374422056">
        <ele>23.8</ele>
        <time>2012-03-01T08:05:22Z</time>
      </trkpt>
      <trkpt lat="59.9913463151" lon="23.3741448666">
        <ele>23.4</ele>
        <time>2012-03-01T08:05:31Z</time>
      </trkpt>
      <trkpt lat="59.9914733847" lon="23.373939091">
        <ele>23.2</ele>
        <time>2012-03-01T08:05:37Z</time>
      </trkpt>
      <trkpt lat="59.9915523422" lon="23.3738107641">
        <ele>23.2</ele>
        <time>2012-03-01T08:05:41Z</time>
      </trkpt>
      <trkpt lat="59.9916436211" lon="23.3736562018">
        <ele>23.6</ele>
        <time>2012-03-01T08:05:45Z</time>
      </trkpt>
      <trkpt lat="59.9917208184" lon="23.3732764179">
        <ele>24.2</ele>
        <time>2012-03-01T08:05:49Z</time>
      </trkpt>
      <trkpt lat="59.9918501511" lon="23.3729243781">
        <ele>24.6</ele>
        <time>2012-03-01T08:05:53Z</time>
      </trkpt>
      <trkpt lat="59.9919051364" lon="23.3727451731">
        <ele>24.6</ele>
        <time>2012-03-01T08:05:55Z</time>
      </trkpt>
      <trkpt lat="59.991959954" lon="23.3725468574">
        <ele>24.8</ele>
        <time>2012-03-01T08:05:59Z</time>
      </trkpt>
      <trkpt lat="59.9919970858" lon="23.3724699953">
        <ele>25</ele>
        <time>2012-03-01T08:06:01Z</time>
      </trkpt>
      <trkpt lat="59.9920848443" lon="23.3723306882">
        <ele>25.6</ele>
        <time>2012-03-01T08:06:05Z</time>
      </trkpt>
      <trkpt lat="59.9920962437" lon="23.3722845039">
        <ele>25.8</ele>
        <time>2012-03-01T08:06:06Z</time>
      </trkpt>
      <trkpt lat="59.9921629636" lon="23.3721182908">
        <ele>26.2</ele>
        <time>2012-03-01T08:06:09Z</time>
      </trkpt>
      <trkpt lat="59.9921913783" lon="23.3720452007">
        <ele>26.4</ele>
        <time>2012-03-01T08:06:10Z</time>
      </trkpt>
      <trkpt lat="59.9922874348" lon="23.3716663388">
        <ele>26.6</ele>
        <time>2012-03-01T08:06:14Z</time>
      </trkpt>
      <trkpt lat="59.9923152627" lon="23.3715582961">
        <ele>26.8</ele>
        <time>2012-03-01T08:06:15Z</time>
      </trkpt>
      <trkpt lat="59.9924035242" lon="23.3712776701">
        <ele>26.8</ele>
        <time>2012-03-01T08:06:18Z</time>
      </trkpt>
      <trkpt lat="59.9924730101" lon="23.3711161509">
        <ele>27</ele>
        <time>2012-03-01T08:06:20Z</time>
      </trkpt>
      <trkpt lat="59.9926000797" lon="23.3708825473">
        <ele>27</ele>
        <time>2012-03-01T08:06:24Z</time>
      </trkpt>
      <trkpt lat="59.9926850722" lon="23.370744246">
        <ele>27.2</ele>
        <time>2012-03-01T08:06:27Z</time>
      </trkpt>
      <trkpt lat="59.9927466791" lon="23.3706528832">
        <ele>27.2</ele>
        <time>2012-03-01T08:06:29Z</time>
      </trkpt>
      <trkpt lat="59.9929283987" lon="23.3705078764">
        <ele>27.2</ele>
        <time>2012-03-01T08:06:36Z</time>
      </trkpt>
      <trkpt lat="59.9930701367" lon="23.3704184415">
        <ele>27.2</ele>
        <time>2012-03-01T08:06:40Z</time>
      </trkpt>
      <trkpt lat="59.9932493417" lon="23.3702799725">
        <ele>27.2</ele>
        <time>2012-03-01T08:06:44Z</time>
      </trkpt>
      <trkpt lat="59.9933897385" lon="23.3701669845">
        <ele>26.8</ele>
        <time>2012-03-01T08:06:47Z</time>
      </trkpt>
      <trkpt lat="59.993426116" lon="23.3701212193">
        <ele>26.8</ele>
        <time>2012-03-01T08:06:48Z</time>
      </trkpt>
      <trkpt lat="59.9935220887" lon="23.3699466244">
        <ele>26.2</ele>
        <time>2012-03-01T08:06:51Z</time>
      </trkpt>
      <trkpt lat="59.9935587176" lon="23.3698215664">
        <ele>25.8</ele>
        <time>2012-03-01T08:06:53Z</time>
      </trkpt>
      <trkpt lat="59.9936204922" lon="23.3696385895">
        <ele>25</ele>
        <time>2012-03-01T08:06:56Z</time>
      </trkpt>
      <trkpt lat="59.9936953426" lon="23.3694656709">
        <ele>24.4</ele>
        <time>2012-03-01T08:06:59Z</time>
      </trkpt>
      <trkpt lat="59.993720153" lon="23.3693487434">
        <ele>24.2</ele>
        <time>2012-03-01T08:07:01Z</time>
      </trkpt>
      <trkpt lat="59.9937217456" lon="23.3690212626">
        <ele>23.6</ele>
        <time>2012-03-01T08:07:06Z</time>
      </trkpt>
      <trkpt lat="59.9936943368" lon="23.3688106254">
        <ele>23.4</ele>
        <time>2012-03-01T08:07:11Z</time>
      </trkpt>
      <trkpt lat="59.9936965161" lon="23.3687726554">
        <ele>23.2</ele>
        <time>2012-03-01T08:07:12Z</time>
      </trkpt>
      <trkpt lat="59.9936999526" lon="23.3685781115">
        <ele>23.2</ele>
        <time>2012-03-01T08:07:16Z</time>
      </trkpt>
      <trkpt lat="59.9937063229" lon="23.3685222043">
        <ele>23.2</ele>
        <time>2012-03-01T08:07:17Z</time>
      </trkpt>
      <trkpt lat="59.9937403534" lon="23.3683051969">
        <ele>23</ele>
        <time>2012-03-01T08:07:21Z</time>
      </trkpt>
      <trkpt lat="59.9938074924" lon="23.3680202123">
        <ele>23</ele>
        <time>2012-03-01T08:07:27Z</time>
      </trkpt>
      <trkpt lat="59.9938716978" lon="23.3677134347">
        <ele>23</ele>
        <time>2012-03-01T08:07:33Z</time>
      </trkpt>
      <trkpt lat="59.9939489789" lon="23.3674187271">
        <ele>23</ele>
        <time>2012-03-01T08:07:39Z</time>
      </trkpt>
      <trkpt lat="59.9940472147" lon="23.3671319823">
        <ele>24</ele>
        <time>2012-03-01T08:07:46Z</time>
      </trkpt>
      <trkpt lat="59.9941186285" lon="23.3668914218">
        <ele>24.6</ele>
        <time>2012-03-01T08:07:52Z</time>
      </trkpt>
      <trkpt lat="59.9941811575" lon="23.3665954569">
        <ele>25.6</ele>
        <time>2012-03-01T08:07:57Z</time>
      </trkpt>
      <trkpt lat="59.9942094883" lon="23.3664112228">
        <ele>26</ele>
        <time>2012-03-01T08:08:00Z</time>
      </trkpt>
      <trkpt lat="59.9942901222" lon="23.3661174372">
        <ele>26.4</ele>
        <time>2012-03-01T08:08:04Z</time>
      </trkpt>
      <trkpt lat="59.9943114961" lon="23.3660456881">
        <ele>26.6</ele>
        <time>2012-03-01T08:08:05Z</time>
      </trkpt>
      <trkpt lat="59.9943465324" lon="23.3659046207">
        <ele>26.6</ele>
        <time>2012-03-01T08:08:07Z</time>
      </trkpt>
      <trkpt lat="59.9944422537" lon="23.3656314546">
        <ele>26.8</ele>
        <time>2012-03-01T08:08:11Z</time>
      </trkpt>
      <trkpt lat="59.994533784" lon="23.3653842724">
        <ele>27</ele>
        <time>2012-03-01T08:08:15Z</time>
      </trkpt>
      <trkpt lat="59.99458198" lon="23.3652313027">
        <ele>27</ele>
        <time>2012-03-01T08:08:17Z</time>
      </trkpt>
      <trkpt lat="59.9947460976" lon="23.3648801849">
        <ele>27</ele>
        <time>2012-03-01T08:08:22Z</time>
      </trkpt>
      <trkpt lat="59.9948212832" lon="23.3647655205">
        <ele>27</ele>
        <time>2012-03-01T08:08:24Z</time>
      </trkpt>
      <trkpt lat="59.9950831338" lon="23.3645598287">
        <ele>26.2</ele>
        <time>2012-03-01T08:08:29Z</time>
      </trkpt>
      <trkpt lat="59.9951315811" lon="23.3645385387">
        <ele>26</ele>
        <time>2012-03-01T08:08:30Z</time>
      </trkpt>
      <trkpt lat="59.9952444853" lon="23.3644754229">
        <ele>25.8</ele>
        <time>2012-03-01T08:08:33Z</time>
      </trkpt>
      <trkpt lat="59.9955400311" lon="23.3642965532">
        <ele>24.2</ele>
        <time>2012-03-01T08:08:41Z</time>
      </trkpt>
      <trkpt lat="59.9955759895" lon="23.364284148">
        <ele>24.2</ele>
        <time>2012-03-01T08:08:42Z</time>
      </trkpt>
      <trkpt lat="59.9956838645" lon="23.3642157517">
        <ele>23.8</ele>
        <time>2012-03-01T08:08:45Z</time>
      </trkpt>
      <trkpt lat="59.9957156319" lon="23.3641780331">
        <ele>23.6</ele>
        <time>2012-03-01T08:08:46Z</time>
      </trkpt>
      <trkpt lat="59.9958106827" lon="23.3640203696">
        <ele>22.6</ele>
        <time>2012-03-01T08:08:50Z</time>
      </trkpt>
      <trkpt lat="59.9958668414" lon="23.3638994188">
        <ele>22.2</ele>
        <time>2012-03-01T08:08:53Z</time>
      </trkpt>
      <trkpt lat="59.9958887182" lon="23.3638648853">
        <ele>22</ele>
        <time>2012-03-01T08:08:54Z</time>
      </trkpt>
      <trkpt lat="59.9959878761" lon="23.3636705091">
        <ele>21.6</ele>
        <time>2012-03-01T08:08:59Z</time>
      </trkpt>
      <trkpt lat="59.9960842679" lon="23.3634486402">
        <ele>21.2</ele>
        <time>2012-03-01T08:09:05Z</time>
      </trkpt>
      <trkpt lat="59.996177307" lon="23.3632649928">
        <ele>21</ele>
        <time>2012-03-01T08:09:11Z</time>
      </trkpt>
      <trkpt lat="59.9962767163" lon="23.3631230034">
        <ele>21</ele>
        <time>2012-03-01T08:09:16Z</time>
      </trkpt>
      <trkpt lat="59.9963863516" lon="23.3629971072">
        <ele>21.2</ele>
        <time>2012-03-01T08:09:21Z</time>
      </trkpt>
      <trkpt lat="59.9965073024" lon="23.3628940937">
        <ele>21.8</ele>
        <time>2012-03-01T08:09:26Z</time>
      </trkpt>
      <trkpt lat="59.9966166024" lon="23.3628369291">
        <ele>22.2</ele>
        <time>2012-03-01T08:09:30Z</time>
      </trkpt>
      <trkpt lat="59.9967219629" lon="23.3628060837">
        <ele>22.4</ele>
        <time>2012-03-01T08:09:33Z</time>
      </trkpt>
      <trkpt lat="59.9969273194" lon="23.3627968637">
        <ele>22.6</ele>
        <time>2012-03-01T08:09:37Z</time>
      </trkpt>
      <trkpt lat="59.9969910218" lon="23.3627956902">
        <ele>22.6</ele>
        <time>2012-03-01T08:09:38Z</time>
      </trkpt>
      <trkpt lat="59.9972434009" lon="23.3626407089">
        <ele>22.6</ele>
        <time>2012-03-01T08:09:43Z</time>
      </trkpt>
      <trkpt lat="59.9973366914" lon="23.3625131363">
        <ele>22.6</ele>
        <time>2012-03-01T08:09:45Z</time>
      </trkpt>
      <trkpt lat="59.9975727257" lon="23.3622262239">
        <ele>22.8</ele>
        <time>2012-03-01T08:09:50Z</time>
      </trkpt>
      <trkpt lat="59.9977438841" lon="23.3620516289">
        <ele>22.8</ele>
        <time>2012-03-01T08:09:54Z</time>
      </trkpt>
      <trkpt lat="59.9977776632" lon="23.3620278243">
        <ele>22.8</ele>
        <time>2012-03-01T08:09:55Z</time>
      </trkpt>
      <trkpt lat="59.997952342" lon="23.3617988308">
        <ele>22.8</ele>
        <time>2012-03-01T08:09:59Z</time>
      </trkpt>
      <trkpt lat="59.9980508293" lon="23.3616290973">
        <ele>22.8</ele>
        <time>2012-03-01T08:10:02Z</time>
      </trkpt>
      <trkpt lat="59.9981996918" lon="23.361387531">
        <ele>22.8</ele>
        <time>2012-03-01T08:10:07Z</time>
      </trkpt>
      <trkpt lat="59.9983051361" lon="23.3612385008">
        <ele>22.8</ele>
        <time>2012-03-01T08:10:11Z</time>
      </trkpt>
      <trkpt lat="59.9984704272" lon="23.3610478126">
        <ele>22.8</ele>
        <time>2012-03-01T08:10:17Z</time>
      </trkpt>
      <trkpt lat="59.9985487141" lon="23.360871625">
        <ele>22.8</ele>
        <time>2012-03-01T08:10:21Z</time>
      </trkpt>
      <trkpt lat="59.9986332037" lon="23.3606308969">
        <ele>22.8</ele>
        <time>2012-03-01T08:10:25Z</time>
      </trkpt>
      <trkpt lat="59.9986341257" lon="23.3605691223">
        <ele>22.8</ele>
        <time>2012-03-01T08:10:26Z</time>
      </trkpt>
      <trkpt lat="59.9985899531" lon="23.3600605086">
        <ele>22.8</ele>
        <time>2012-03-01T08:10:33Z</time>
      </trkpt>
      <trkpt lat="59.9985207186" lon="23.3595689101">
        <ele>23.6</ele>
        <time>2012-03-01T08:10:42Z</time>
      </trkpt>
      <trkpt lat="59.9985558388" lon="23.3593240748">
        <ele>24</ele>
        <time>2012-03-01T08:10:47Z</time>
      </trkpt>
      <trkpt lat="59.9985662323" lon="23.3592849314">
        <ele>24.2</ele>
        <time>2012-03-01T08:10:48Z</time>
      </trkpt>
      <trkpt lat="59.9986565892" lon="23.3591314588">
        <ele>24.4</ele>
        <time>2012-03-01T08:10:52Z</time>
      </trkpt>
      <trkpt lat="59.9986850038" lon="23.3591018707">
        <ele>24.4</ele>
        <time>2012-03-01T08:10:53Z</time>
      </trkpt>
      <trkpt lat="59.9987885203" lon="23.35905401">
        <ele>25.2</ele>
        <time>2012-03-01T08:10:57Z</time>
      </trkpt>
      <trkpt lat="59.9989216249" lon="23.359018387">
        <ele>25.8</ele>
        <time>2012-03-01T08:11:01Z</time>
      </trkpt>
      <trkpt lat="59.999060513" lon="23.3589833506">
        <ele>26.2</ele>
        <time>2012-03-01T08:11:05Z</time>
      </trkpt>
      <trkpt lat="59.9991862415" lon="23.3589110148">
        <ele>26.4</ele>
        <time>2012-03-01T08:11:09Z</time>
      </trkpt>
      <trkpt lat="59.9993167476" lon="23.3588853662">
        <ele>26.6</ele>
        <time>2012-03-01T08:11:13Z</time>
      </trkpt>
      <trkpt lat="59.9994512771" lon="23.3587975239">
        <ele>26.8</ele>
        <time>2012-03-01T08:11:18Z</time>
      </trkpt>
      <trkpt lat="59.9995304023" lon="23.358714124">
        <ele>26.8</ele>
        <time>2012-03-01T08:11:22Z</time>
      </trkpt>
      <trkpt lat="59.9996291411" lon="23.3586189894">
        <ele>26.8</ele>
        <time>2012-03-01T08:11:26Z</time>
      </trkpt>
      <trkpt lat="59.9996706315" lon="23.3585462345">
        <ele>26.8</ele>
        <time>2012-03-01T08:11:28Z</time>
      </trkpt>
      <trkpt lat="59.9997711304" lon="23.3583986293">
        <ele>26.8</ele>
        <time>2012-03-01T08:11:32Z</time>
      </trkpt>
      <trkpt lat="59.9998501718" lon="23.3582111262">
        <ele>26.8</ele>
        <time>2012-03-01T08:11:37Z</time>
      </trkpt>
      <trkpt lat="59.9998676899" lon="23.3581594937">
        <ele>26.8</ele>
        <time>2012-03-01T08:11:38Z</time>
      </trkpt>
      <trkpt lat="59.9999103538" lon="23.3579443303">
        <ele>26.8</ele>
        <time>2012-03-01T08:11:42Z</time>
      </trkpt>
      <trkpt lat="59.999981097" lon="23.3577636165">
        <ele>26.8</ele>
        <time>2012-03-01T08:11:46Z</time>
      </trkpt>
      <trkpt lat="60.0000726274" lon="23.357644845">
        <ele>26.8</ele>
        <time>2012-03-01T08:11:50Z</time>
      </trkpt>
      <trkpt lat="60.0000907323" lon="23.3576237226">
        <ele>26.8</ele>
        <time>2012-03-01T08:11:51Z</time>
      </trkpt>
      <trkpt lat="60.0001996132" lon="23.3575730959">
        <ele>26.8</ele>
        <time>2012-03-01T08:11:56Z</time>
      </trkpt>
      <trkpt lat="60.0002198974" lon="23.3575672286">
        <ele>26.8</ele>
        <time>2012-03-01T08:11:57Z</time>
      </trkpt>
      <trkpt lat="60.000338166" lon="23.3574862594">
        <ele>26.8</ele>
        <time>2012-03-01T08:12:02Z</time>
      </trkpt>
      <trkpt lat="60.0004540876" lon="23.3573474552">
        <ele>26.8</ele>
        <time>2012-03-01T08:12:06Z</time>
      </trkpt>
      <trkpt lat="60.0005345539" lon="23.3572544161">
        <ele>27</ele>
        <time>2012-03-01T08:12:09Z</time>
      </trkpt>
      <trkpt lat="60.0006144334" lon="23.357374864">
        <ele>27.8</ele>
        <time>2012-03-01T08:12:14Z</time>
      </trkpt>
      <trkpt lat="60.0007012699" lon="23.3575575894">
        <ele>28.2</ele>
        <time>2012-03-01T08:12:19Z</time>
      </trkpt>
      <trkpt lat="60.0007922973" lon="23.3577153368">
        <ele>28.6</ele>
        <time>2012-03-01T08:12:23Z</time>
      </trkpt>
      <trkpt lat="60.0008932154" lon="23.357931506">
        <ele>28.6</ele>
        <time>2012-03-01T08:12:28Z</time>
      </trkpt>
      <trkpt lat="60.0009717538" lon="23.3581654448">
        <ele>28.8</ele>
        <time>2012-03-01T08:12:33Z</time>
      </trkpt>
      <trkpt lat="60.0009927085" lon="23.3582017384">
        <ele>28.8</ele>
        <time>2012-03-01T08:12:34Z</time>
      </trkpt>
      <trkpt lat="60.0010666369" lon="23.3583279698">
        <ele>28.8</ele>
        <time>2012-03-01T08:12:38Z</time>
      </trkpt>
      <trkpt lat="60.0011304232" lon="23.358440874">
        <ele>29</ele>
        <time>2012-03-01T08:12:41Z</time>
      </trkpt>
      <trkpt lat="60.0012333529" lon="23.3586081768">
        <ele>30</ele>
        <time>2012-03-01T08:12:46Z</time>
      </trkpt>
      <trkpt lat="60.0013146573" lon="23.3587482383">
        <ele>30.4</ele>
        <time>2012-03-01T08:12:50Z</time>
      </trkpt>
      <trkpt lat="60.0013733306" lon="23.3588639924">
        <ele>30.4</ele>
        <time>2012-03-01T08:12:53Z</time>
      </trkpt>
      <trkpt lat="60.0014650286" lon="23.3590577819">
        <ele>30.6</ele>
        <time>2012-03-01T08:12:57Z</time>
      </trkpt>
      <trkpt lat="60.0015527033" lon="23.3592167027">
        <ele>30.8</ele>
        <time>2012-03-01T08:13:01Z</time>
      </trkpt>
      <trkpt lat="60.0016779289" lon="23.3593831672">
        <ele>31.2</ele>
        <time>2012-03-01T08:13:06Z</time>
      </trkpt>
      <trkpt lat="60.0018251989" lon="23.3595468657">
        <ele>32</ele>
        <time>2012-03-01T08:13:12Z</time>
      </trkpt>
      <trkpt lat="60.0019169807" lon="23.3596492087">
        <ele>32.4</ele>
        <time>2012-03-01T08:13:16Z</time>
      </trkpt>
      <trkpt lat="60.0020459781" lon="23.3597866719">
        <ele>32.6</ele>
        <time>2012-03-01T08:13:21Z</time>
      </trkpt>
      <trkpt lat="60.0021435434" lon="23.3598392264">
        <ele>32.8</ele>
        <time>2012-03-01T08:13:25Z</time>
      </trkpt>
      <trkpt lat="60.0022873768" lon="23.3598657132">
        <ele>32.8</ele>
        <time>2012-03-01T08:13:31Z</time>
      </trkpt>
      <trkpt lat="60.0024185536" lon="23.3598662161">
        <ele>32.8</ele>
        <time>2012-03-01T08:13:36Z</time>
      </trkpt>
      <trkpt lat="60.0025380794" lon="23.359856577">
        <ele>33.8</ele>
        <time>2012-03-01T08:13:41Z</time>
      </trkpt>
      <trkpt lat="60.0026866067" lon="23.3598119014">
        <ele>34.4</ele>
        <time>2012-03-01T08:13:47Z</time>
      </trkpt>
      <trkpt lat="60.0027810707" lon="23.3597772842">
        <ele>34.6</ele>
        <time>2012-03-01T08:13:51Z</time>
      </trkpt>
      <trkpt lat="60.0029124989" lon="23.3597464388">
        <ele>34.8</ele>
        <time>2012-03-01T08:13:56Z</time>
      </trkpt>
      <trkpt lat="60.003089357" lon="23.3597153419">
        <ele>34.8</ele>
        <time>2012-03-01T08:14:03Z</time>
      </trkpt>
      <trkpt lat="60.0032309273" lon="23.359688939">
        <ele>35</ele>
        <time>2012-03-01T08:14:09Z</time>
      </trkpt>
      <trkpt lat="60.0033367069" lon="23.3596859215">
        <ele>35</ele>
        <time>2012-03-01T08:14:13Z</time>
      </trkpt>
      <trkpt lat="60.0034714878" lon="23.3596922079">
        <ele>35</ele>
        <time>2012-03-01T08:14:18Z</time>
      </trkpt>
      <trkpt lat="60.0035907623" lon="23.3597169345">
        <ele>35</ele>
        <time>2012-03-01T08:14:22Z</time>
      </trkpt>
      <trkpt lat="60.0037060972" lon="23.3597350394">
        <ele>35</ele>
        <time>2012-03-01T08:14:26Z</time>
      </trkpt>
      <trkpt lat="60.0037382837" lon="23.3597380569">
        <ele>35</ele>
        <time>2012-03-01T08:14:27Z</time>
      </trkpt>
      <trkpt lat="60.0038119606" lon="23.3597432537">
        <ele>35</ele>
        <time>2012-03-01T08:14:29Z</time>
      </trkpt>
      <trkpt lat="60.004011366" lon="23.3597803855">
        <ele>35</ele>
        <time>2012-03-01T08:14:37Z</time>
      </trkpt>
      <trkpt lat="60.0041583845" lon="23.3598302578">
        <ele>34.4</ele>
        <time>2012-03-01T08:14:41Z</time>
      </trkpt>
      <trkpt lat="60.0042897289" lon="23.3599452575">
        <ele>33.8</ele>
        <time>2012-03-01T08:14:45Z</time>
      </trkpt>
      <trkpt lat="60.0044272759" lon="23.3601609237">
        <ele>33.6</ele>
        <time>2012-03-01T08:14:49Z</time>
      </trkpt>
      <trkpt lat="60.0046309561" lon="23.360784118">
        <ele>33.2</ele>
        <time>2012-03-01T08:14:57Z</time>
      </trkpt>
      <trkpt lat="60.0046556827" lon="23.3610333957">
        <ele>33.2</ele>
        <time>2012-03-01T08:14:59Z</time>
      </trkpt>
      <trkpt lat="60.0046768889" lon="23.3614534127">
        <ele>33.2</ele>
        <time>2012-03-01T08:15:03Z</time>
      </trkpt>
      <trkpt lat="60.0047001067" lon="23.3618411594">
        <ele>33</ele>
        <time>2012-03-01T08:15:07Z</time>
      </trkpt>
      <trkpt lat="60.0047485541" lon="23.3623037565">
        <ele>33.2</ele>
        <time>2012-03-01T08:15:12Z</time>
      </trkpt>
      <trkpt lat="60.0047744542" lon="23.3625416348">
        <ele>33.8</ele>
        <time>2012-03-01T08:15:15Z</time>
      </trkpt>
      <trkpt lat="60.004806976" lon="23.362847658">
        <ele>34.2</ele>
        <time>2012-03-01T08:15:20Z</time>
      </trkpt>
      <trkpt lat="60.0048236559" lon="23.3630839437">
        <ele>34.6</ele>
        <time>2012-03-01T08:15:24Z</time>
      </trkpt>
      <trkpt lat="60.0048503104" lon="23.3632375001">
        <ele>34.8</ele>
        <time>2012-03-01T08:15:28Z</time>
      </trkpt>
      <trkpt lat="60.0049124203" lon="23.363405641">
        <ele>34.8</ele>
        <time>2012-03-01T08:15:33Z</time>
      </trkpt>
      <trkpt lat="60.0049714288" lon="23.3635761289">
        <ele>35</ele>
        <time>2012-03-01T08:15:38Z</time>
      </trkpt>
      <trkpt lat="60.0050945589" lon="23.3637426772">
        <ele>35</ele>
        <time>2012-03-01T08:15:45Z</time>
      </trkpt>
      <trkpt lat="60.0052298428" lon="23.3639133327">
        <ele>35.2</ele>
        <time>2012-03-01T08:15:50Z</time>
      </trkpt>
      <trkpt lat="60.005358505" lon="23.3640550707">
        <ele>36</ele>
        <time>2012-03-01T08:15:55Z</time>
      </trkpt>
      <trkpt lat="60.005488173" lon="23.3642274863">
        <ele>36.6</ele>
        <time>2012-03-01T08:16:00Z</time>
      </trkpt>
      <trkpt lat="60.0055893425" lon="23.3643797855">
        <ele>36.8</ele>
        <time>2012-03-01T08:16:04Z</time>
      </trkpt>
      <trkpt lat="60.0056967146" lon="23.3646014029">
        <ele>37</ele>
        <time>2012-03-01T08:16:09Z</time>
      </trkpt>
      <trkpt lat="60.0057978004" lon="23.3648410414">
        <ele>37</ele>
        <time>2012-03-01T08:16:14Z</time>
      </trkpt>
      <trkpt lat="60.0059023226" lon="23.3650551151">
        <ele>37</ele>
        <time>2012-03-01T08:16:19Z</time>
      </trkpt>
      <trkpt lat="60.0059952779" lon="23.3652271117">
        <ele>37.2</ele>
        <time>2012-03-01T08:16:23Z</time>
      </trkpt>
      <trkpt lat="60.0061041588" lon="23.3653976834">
        <ele>37.2</ele>
        <time>2012-03-01T08:16:27Z</time>
      </trkpt>
      <trkpt lat="60.0062927516" lon="23.3656302811">
        <ele>37.2</ele>
        <time>2012-03-01T08:16:32Z</time>
      </trkpt>
      <trkpt lat="60.0064140376" lon="23.365860951">
        <ele>37.2</ele>
        <time>2012-03-01T08:16:36Z</time>
      </trkpt>
      <trkpt lat="60.006623166" lon="23.366218942">
        <ele>37.2</ele>
        <time>2012-03-01T08:16:43Z</time>
      </trkpt>
      <trkpt lat="60.0067581146" lon="23.366313406">
        <ele>37.2</ele>
        <time>2012-03-01T08:16:47Z</time>
      </trkpt>
      <trkpt lat="60.0068307019" lon="23.3663749291">
        <ele>37.2</ele>
        <time>2012-03-01T08:16:49Z</time>
      </trkpt>
      <trkpt lat="60.0069646447" lon="23.3665642762">
        <ele>37.2</ele>
        <time>2012-03-01T08:16:54Z</time>
      </trkpt>
      <trkpt lat="60.0070680773" lon="23.3667397932">
        <ele>37.2</ele>
        <time>2012-03-01T08:16:58Z</time>
      </trkpt>
      <trkpt lat="60.0072048699" lon="23.3669235245">
        <ele>37.2</ele>
        <time>2012-03-01T08:17:02Z</time>
      </trkpt>
      <trkpt lat="60.0073554088" lon="23.3671570442">
        <ele>37.2</ele>
        <time>2012-03-01T08:17:07Z</time>
      </trkpt>
      <trkpt lat="60.0073892717" lon="23.367221501">
        <ele>37.2</ele>
        <time>2012-03-01T08:17:08Z</time>
      </trkpt>
      <trkpt lat="60.0074462686" lon="23.3673585451">
        <ele>37.2</ele>
        <time>2012-03-01T08:17:10Z</time>
      </trkpt>
      <trkpt lat="60.0075497851" lon="23.3675918972">
        <ele>37.2</ele>
        <time>2012-03-01T08:17:14Z</time>
      </trkpt>
      <trkpt lat="60.0076287426" lon="23.3678041269">
        <ele>37.2</ele>
        <time>2012-03-01T08:17:18Z</time>
      </trkpt>
      <trkpt lat="60.0076477695" lon="23.3678773847">
        <ele>37.2</ele>
        <time>2012-03-01T08:17:19Z</time>
      </trkpt>
      <trkpt lat="60.0077061913" lon="23.3682364653">
        <ele>37.2</ele>
        <time>2012-03-01T08:17:24Z</time>
      </trkpt>
      <trkpt lat="60.0078354402" lon="23.3687551373">
        <ele>37.2</ele>
        <time>2012-03-01T08:17:31Z</time>
      </trkpt>
      <trkpt lat="60.0079361907" lon="23.3689713903">
        <ele>36.4</ele>
        <time>2012-03-01T08:17:35Z</time>
      </trkpt>
      <trkpt lat="60.00796427" lon="23.3690325782">
        <ele>36.4</ele>
        <time>2012-03-01T08:17:36Z</time>
      </trkpt>
      <trkpt lat="60.0079892481" lon="23.3690824505">
        <ele>36.2</ele>
        <time>2012-03-01T08:17:37Z</time>
      </trkpt>
      <trkpt lat="60.0081107018" lon="23.3693836959">
        <ele>35.8</ele>
        <time>2012-03-01T08:17:42Z</time>
      </trkpt>
      <trkpt lat="60.0082313174" lon="23.3696063192">
        <ele>35.6</ele>
        <time>2012-03-01T08:17:47Z</time>
      </trkpt>
      <trkpt lat="60.0082914156" lon="23.3696897191">
        <ele>35.4</ele>
        <time>2012-03-01T08:17:50Z</time>
      </trkpt>
      <trkpt lat="60.0083685291" lon="23.3698119272">
        <ele>35.6</ele>
        <time>2012-03-01T08:17:54Z</time>
      </trkpt>
      <trkpt lat="60.008494509" lon="23.3699817445">
        <ele>36.4</ele>
        <time>2012-03-01T08:18:00Z</time>
      </trkpt>
      <trkpt lat="60.0086642425" lon="23.3701021086">
        <ele>36.6</ele>
        <time>2012-03-01T08:18:05Z</time>
      </trkpt>
      <trkpt lat="60.0088289469" lon="23.370181569">
        <ele>36.8</ele>
        <time>2012-03-01T08:18:10Z</time>
      </trkpt>
      <trkpt lat="60.0089219859" lon="23.370201015">
        <ele>37</ele>
        <time>2012-03-01T08:18:13Z</time>
      </trkpt>
      <trkpt lat="60.0090550905" lon="23.3702321957">
        <ele>37</ele>
        <time>2012-03-01T08:18:17Z</time>
      </trkpt>
      <trkpt lat="60.0092295179" lon="23.3703067108">
        <ele>37</ele>
        <time>2012-03-01T08:18:22Z</time>
      </trkpt>
      <trkpt lat="60.0094084714" lon="23.3704341157">
        <ele>37.2</ele>
        <time>2012-03-01T08:18:27Z</time>
      </trkpt>
      <trkpt lat="60.0096009198" lon="23.3705503726">
        <ele>36.6</ele>
        <time>2012-03-01T08:18:32Z</time>
      </trkpt>
      <trkpt lat="60.0100378683" lon="23.3708392129">
        <ele>35.4</ele>
        <time>2012-03-01T08:18:44Z</time>
      </trkpt>
      <trkpt lat="60.0102152293" lon="23.3709998939">
        <ele>35.2</ele>
        <time>2012-03-01T08:18:50Z</time>
      </trkpt>
      <trkpt lat="60.0103389461" lon="23.3711754947">
        <ele>35.2</ele>
        <time>2012-03-01T08:18:55Z</time>
      </trkpt>
      <trkpt lat="60.0104646746" lon="23.3714253591">
        <ele>35</ele>
        <time>2012-03-01T08:19:00Z</time>
      </trkpt>
      <trkpt lat="60.0104897365" lon="23.3714867985">
        <ele>35</ele>
        <time>2012-03-01T08:19:01Z</time>
      </trkpt>
      <trkpt lat="60.0106340728" lon="23.3717463021">
        <ele>35.8</ele>
        <time>2012-03-01T08:19:06Z</time>
      </trkpt>
      <trkpt lat="60.0106639124" lon="23.3717863676">
        <ele>35.8</ele>
        <time>2012-03-01T08:19:07Z</time>
      </trkpt>
      <trkpt lat="60.0107563648" lon="23.3720264252">
        <ele>36.4</ele>
        <time>2012-03-01T08:19:12Z</time>
      </trkpt>
      <trkpt lat="60.0108411896" lon="23.3722124196">
        <ele>36.6</ele>
        <time>2012-03-01T08:19:16Z</time>
      </trkpt>
      <trkpt lat="60.0108592107" lon="23.372250641">
        <ele>36.6</ele>
        <time>2012-03-01T08:19:17Z</time>
      </trkpt>
      <trkpt lat="60.010936408" lon="23.3723773754">
        <ele>36.8</ele>
        <time>2012-03-01T08:19:21Z</time>
      </trkpt>
      <trkpt lat="60.0110240826" lon="23.3724919559">
        <ele>36.8</ele>
        <time>2012-03-01T08:19:25Z</time>
      </trkpt>
      <trkpt lat="60.0111265933" lon="23.3725972326">
        <ele>37</ele>
        <time>2012-03-01T08:19:29Z</time>
      </trkpt>
      <trkpt lat="60.0112534952" lon="23.3727162556">
        <ele>37</ele>
        <time>2012-03-01T08:19:34Z</time>
      </trkpt>
      <trkpt lat="60.0115517232" lon="23.3729845602">
        <ele>37</ele>
        <time>2012-03-01T08:19:43Z</time>
      </trkpt>
      <trkpt lat="60.0116970654" lon="23.3731083609">
        <ele>37</ele>
        <time>2012-03-01T08:19:47Z</time>
      </trkpt>
      <trkpt lat="60.0117250609" lon="23.3731260467">
        <ele>37</ele>
        <time>2012-03-01T08:19:48Z</time>
      </trkpt>
      <trkpt lat="60.011900075" lon="23.3732758312">
        <ele>37</ele>
        <time>2012-03-01T08:19:53Z</time>
      </trkpt>
      <trkpt lat="60.0119645318" lon="23.3733502625">
        <ele>37</ele>
        <time>2012-03-01T08:19:55Z</time>
      </trkpt>
      <trkpt lat="60.0121106283" lon="23.3735033998">
        <ele>37</ele>
        <time>2012-03-01T08:20:00Z</time>
      </trkpt>
      <trkpt lat="60.0122546294" lon="23.3735855424">
        <ele>38</ele>
        <time>2012-03-01T08:20:05Z</time>
      </trkpt>
      <trkpt lat="60.0123809446" lon="23.3736643323">
        <ele>38.4</ele>
        <time>2012-03-01T08:20:10Z</time>
      </trkpt>
      <trkpt lat="60.0124915019" lon="23.3737722073">
        <ele>38.8</ele>
        <time>2012-03-01T08:20:14Z</time>
      </trkpt>
      <trkpt lat="60.0126469023" lon="23.3739426952">
        <ele>39</ele>
        <time>2012-03-01T08:20:20Z</time>
      </trkpt>
      <trkpt lat="60.0127712059" lon="23.3740720279">
        <ele>39</ele>
        <time>2012-03-01T08:20:25Z</time>
      </trkpt>
      <trkpt lat="60.0128931625" lon="23.3741917214">
        <ele>39.8</ele>
        <time>2012-03-01T08:20:30Z</time>
      </trkpt>
      <trkpt lat="60.0130005347" lon="23.3742996803">
        <ele>40.4</ele>
        <time>2012-03-01T08:20:34Z</time>
      </trkpt>
      <trkpt lat="60.0132233256" lon="23.3744793882">
        <ele>41.6</ele>
        <time>2012-03-01T08:20:42Z</time>
      </trkpt>
      <trkpt lat="60.0133742836" lon="23.3745820665">
        <ele>42.2</ele>
        <time>2012-03-01T08:20:46Z</time>
      </trkpt>
      <trkpt lat="60.0135598589" lon="23.3746656341">
        <ele>42.6</ele>
        <time>2012-03-01T08:20:50Z</time>
      </trkpt>
      <trkpt lat="60.0137585099" lon="23.3747542307">
        <ele>42.8</ele>
        <time>2012-03-01T08:20:54Z</time>
      </trkpt>
      <trkpt lat="60.0138117349" lon="23.3747962241">
        <ele>42.8</ele>
        <time>2012-03-01T08:20:55Z</time>
      </trkpt>
      <trkpt lat="60.0140051892" lon="23.3749523789">
        <ele>43</ele>
        <time>2012-03-01T08:20:59Z</time>
      </trkpt>
      <trkpt lat="60.0140549777" lon="23.3749922767">
        <ele>43</ele>
        <time>2012-03-01T08:21:00Z</time>
      </trkpt>
      <trkpt lat="60.0141791136" lon="23.3751501917">
        <ele>43</ele>
        <time>2012-03-01T08:21:03Z</time>
      </trkpt>
      <trkpt lat="60.0143574805" lon="23.3752359385">
        <ele>43.2</ele>
        <time>2012-03-01T08:21:07Z</time>
      </trkpt>
      <trkpt lat="60.0143957019" lon="23.3752643532">
        <ele>43.2</ele>
        <time>2012-03-01T08:21:08Z</time>
      </trkpt>
      <trkpt lat="60.0144766711" lon="23.3753253734">
        <ele>43.2</ele>
        <time>2012-03-01T08:21:10Z</time>
      </trkpt>
      <trkpt lat="60.0146637551" lon="23.375441798">
        <ele>43.2</ele>
        <time>2012-03-01T08:21:15Z</time>
      </trkpt>
      <trkpt lat="60.0147078439" lon="23.3754656026">
        <ele>43.2</ele>
        <time>2012-03-01T08:21:16Z</time>
      </trkpt>
      <trkpt lat="60.0147440537" lon="23.3754961127">
        <ele>43.2</ele>
        <time>2012-03-01T08:21:17Z</time>
      </trkpt>
      <trkpt lat="60.0149113564" lon="23.3756766588">
        <ele>43.2</ele>
        <time>2012-03-01T08:21:22Z</time>
      </trkpt>
      <trkpt lat="60.0150489034" lon="23.3757999566">
        <ele>43.2</ele>
        <time>2012-03-01T08:21:26Z</time>
      </trkpt>
      <trkpt lat="60.0152298686" lon="23.3759585421">
        <ele>43.2</ele>
        <time>2012-03-01T08:21:30Z</time>
      </trkpt>
      <trkpt lat="60.015273203" lon="23.3760060675">
        <ele>43.2</ele>
        <time>2012-03-01T08:21:31Z</time>
      </trkpt>
      <trkpt lat="60.015366745" lon="23.376201282">
        <ele>43.2</ele>
        <time>2012-03-01T08:21:34Z</time>
      </trkpt>
      <trkpt lat="60.0154931441" lon="23.3765917947">
        <ele>43</ele>
        <time>2012-03-01T08:21:40Z</time>
      </trkpt>
      <trkpt lat="60.0155321199" lon="23.3767265756">
        <ele>42.8</ele>
        <time>2012-03-01T08:21:42Z</time>
      </trkpt>
      <trkpt lat="60.0157183657" lon="23.3770581636">
        <ele>42.2</ele>
        <time>2012-03-01T08:21:47Z</time>
      </trkpt>
      <trkpt lat="60.0158727603" lon="23.3773477582">
        <ele>41.8</ele>
        <time>2012-03-01T08:21:50Z</time>
      </trkpt>
      <trkpt lat="60.0159137478" lon="23.3777102754">
        <ele>41.8</ele>
        <time>2012-03-01T08:21:53Z</time>
      </trkpt>
      <trkpt lat="60.0159132449" lon="23.3778111935">
        <ele>41.6</ele>
        <time>2012-03-01T08:21:54Z</time>
      </trkpt>
      <trkpt lat="60.0159171006" lon="23.3778927494">
        <ele>41.6</ele>
        <time>2012-03-01T08:21:55Z</time>
      </trkpt>
      <trkpt lat="60.0158906976" lon="23.3780945017">
        <ele>40.8</ele>
        <time>2012-03-01T08:21:59Z</time>
      </trkpt>
      <trkpt lat="60.0158928769" lon="23.3781044762">
        <ele>40.6</ele>
        <time>2012-03-01T08:22:00Z</time>
      </trkpt>
      <trkpt lat="60.0158974031" lon="23.3781141992">
        <ele>39.8</ele>
        <time>2012-03-01T08:22:10Z</time>
      </trkpt>
      <trkpt lat="60.0158917034" lon="23.3781130257">
        <ele>39.4</ele>
        <time>2012-03-01T08:22:25Z</time>
      </trkpt>
      <trkpt lat="60.015899331" lon="23.3781361597">
        <ele>42.8</ele>
        <time>2012-03-01T08:22:53Z</time>
      </trkpt>
      <trkpt lat="60.0159097245" lon="23.3781215752">
        <ele>53.2</ele>
        <time>2012-03-01T08:24:03Z</time>
      </trkpt>
      <trkpt lat="60.0159135802" lon="23.3781089186">
        <ele>53.2</ele>
        <time>2012-03-01T08:24:04Z</time>
      </trkpt>
      <trkpt lat="60.0159316851" lon="23.3778847027">
        <ele>53.4</ele>
        <time>2012-03-01T08:24:08Z</time>
      </trkpt>
      <trkpt lat="60.0159192799" lon="23.3776239418">
        <ele>53.6</ele>
        <time>2012-03-01T08:24:11Z</time>
      </trkpt>
      <trkpt lat="60.0159102274" lon="23.377546074">
        <ele>53.6</ele>
        <time>2012-03-01T08:24:12Z</time>
      </trkpt>
      <trkpt lat="60.0158133327" lon="23.3772961257">
        <ele>53.6</ele>
        <time>2012-03-01T08:24:16Z</time>
      </trkpt>
      <trkpt lat="60.0157920426" lon="23.3772641907">
        <ele>53.6</ele>
        <time>2012-03-01T08:24:17Z</time>
      </trkpt>
      <trkpt lat="60.0157258256" lon="23.3771838083">
        <ele>53</ele>
        <time>2012-03-01T08:24:21Z</time>
      </trkpt>
      <trkpt lat="60.015689532" lon="23.3771544716">
        <ele>52.6</ele>
        <time>2012-03-01T08:24:25Z</time>
      </trkpt>
      <trkpt lat="60.0156760371" lon="23.3771344389">
        <ele>52.4</ele>
        <time>2012-03-01T08:24:27Z</time>
      </trkpt>
      <trkpt lat="60.0156364746" lon="23.3770867459">
        <ele>52</ele>
        <time>2012-03-01T08:24:31Z</time>
      </trkpt>
      <trkpt lat="60.0156174477" lon="23.3770353648">
        <ele>52</ele>
        <time>2012-03-01T08:24:34Z</time>
      </trkpt>
      <trkpt lat="60.0155560922" lon="23.3769068703">
        <ele>51.8</ele>
        <time>2012-03-01T08:24:42Z</time>
      </trkpt>
      <trkpt lat="60.0155416753" lon="23.3768706605">
        <ele>51.8</ele>
        <time>2012-03-01T08:24:44Z</time>
      </trkpt>
      <trkpt lat="60.0154661544" lon="23.3766226401">
        <ele>51.6</ele>
        <time>2012-03-01T08:24:51Z</time>
      </trkpt>
      <trkpt lat="60.0153550104" lon="23.3763260046">
        <ele>51.6</ele>
        <time>2012-03-01T08:24:57Z</time>
      </trkpt>
      <trkpt lat="60.0152432796" lon="23.3761607974">
        <ele>51.6</ele>
        <time>2012-03-01T08:25:01Z</time>
      </trkpt>
      <trkpt lat="60.0151334768" lon="23.3760432831">
        <ele>51.6</ele>
        <time>2012-03-01T08:25:06Z</time>
      </trkpt>
      <trkpt lat="60.0150418626" lon="23.3759656667">
        <ele>51.6</ele>
        <time>2012-03-01T08:25:10Z</time>
      </trkpt>
      <trkpt lat="60.0149357477" lon="23.375881261">
        <ele>51.6</ele>
        <time>2012-03-01T08:25:15Z</time>
      </trkpt>
      <trkpt lat="60.0148284594" lon="23.375769195">
        <ele>51</ele>
        <time>2012-03-01T08:25:20Z</time>
      </trkpt>
      <trkpt lat="60.0147029824" lon="23.3756609847">
        <ele>50.4</ele>
        <time>2012-03-01T08:25:25Z</time>
      </trkpt>
      <trkpt lat="60.0145236097" lon="23.3755262037">
        <ele>49</ele>
        <time>2012-03-01T08:25:31Z</time>
      </trkpt>
      <trkpt lat="60.0144035809" lon="23.3754040794">
        <ele>48.4</ele>
        <time>2012-03-01T08:25:35Z</time>
      </trkpt>
      <trkpt lat="60.0141814606" lon="23.3752999762">
        <ele>47.8</ele>
        <time>2012-03-01T08:25:42Z</time>
      </trkpt>
      <trkpt lat="60.0140398064" lon="23.3752085297">
        <ele>46.8</ele>
        <time>2012-03-01T08:25:47Z</time>
      </trkpt>
      <trkpt lat="60.0139261479" lon="23.3750923566">
        <ele>46.2</ele>
        <time>2012-03-01T08:25:51Z</time>
      </trkpt>
      <trkpt lat="60.0137870922" lon="23.37497501">
        <ele>45.8</ele>
        <time>2012-03-01T08:25:56Z</time>
      </trkpt>
      <trkpt lat="60.0136465277" lon="23.3748826414">
        <ele>45.6</ele>
        <time>2012-03-01T08:26:01Z</time>
      </trkpt>
      <trkpt lat="60.0135233976" lon="23.3748130717">
        <ele>45.4</ele>
        <time>2012-03-01T08:26:06Z</time>
      </trkpt>
      <trkpt lat="60.0133959927" lon="23.3747566615">
        <ele>45.4</ele>
        <time>2012-03-01T08:26:11Z</time>
      </trkpt>
      <trkpt lat="60.0132631396" lon="23.3746918694">
        <ele>45.2</ele>
        <time>2012-03-01T08:26:16Z</time>
      </trkpt>
      <trkpt lat="60.0131159534" lon="23.3746241436">
        <ele>45.2</ele>
        <time>2012-03-01T08:26:21Z</time>
      </trkpt>
      <trkpt lat="60.013012437" lon="23.3745388159">
        <ele>45.2</ele>
        <time>2012-03-01T08:26:25Z</time>
      </trkpt>
      <trkpt lat="60.012878578" lon="23.3743492173">
        <ele>45.2</ele>
        <time>2012-03-01T08:26:30Z</time>
      </trkpt>
      <trkpt lat="60.0127134546" lon="23.374184513">
        <ele>45.2</ele>
        <time>2012-03-01T08:26:35Z</time>
      </trkpt>
      <trkpt lat="60.0126211699" lon="23.3741010293">
        <ele>45.2</ele>
        <time>2012-03-01T08:26:38Z</time>
      </trkpt>
      <trkpt lat="60.0124829523" lon="23.3739430305">
        <ele>45.2</ele>
        <time>2012-03-01T08:26:42Z</time>
      </trkpt>
      <trkpt lat="60.012288157" lon="23.373768184">
        <ele>45.2</ele>
        <time>2012-03-01T08:26:47Z</time>
      </trkpt>
      <trkpt lat="60.0121584052" lon="23.3737226703">
        <ele>45.2</ele>
        <time>2012-03-01T08:26:50Z</time>
      </trkpt>
      <trkpt lat="60.0120367" lon="23.3736476523">
        <ele>45.2</ele>
        <time>2012-03-01T08:26:53Z</time>
      </trkpt>
      <trkpt lat="60.0118654578" lon="23.3734772483">
        <ele>45.2</ele>
        <time>2012-03-01T08:26:58Z</time>
      </trkpt>
      <trkpt lat="60.0118254761" lon="23.3734395297">
        <ele>45.2</ele>
        <time>2012-03-01T08:26:59Z</time>
      </trkpt>
      <trkpt lat="60.0117906074" lon="23.3733907471">
        <ele>45.2</ele>
        <time>2012-03-01T08:27:00Z</time>
      </trkpt>
      <trkpt lat="60.0116103965" lon="23.3732168226">
        <ele>45.2</ele>
        <time>2012-03-01T08:27:05Z</time>
      </trkpt>
      <trkpt lat="60.0114407469" lon="23.3730412218">
        <ele>45.2</ele>
        <time>2012-03-01T08:27:10Z</time>
      </trkpt>
      <trkpt lat="60.0112612904" lon="23.3728643637">
        <ele>44.6</ele>
        <time>2012-03-01T08:27:15Z</time>
      </trkpt>
      <trkpt lat="60.0111386632" lon="23.3727474362">
        <ele>44.2</ele>
        <time>2012-03-01T08:27:19Z</time>
      </trkpt>
      <trkpt lat="60.0109846039" lon="23.3726073747">
        <ele>43.6</ele>
        <time>2012-03-01T08:27:24Z</time>
      </trkpt>
      <trkpt lat="60.0105304726" lon="23.3718198952">
        <ele>41.6</ele>
        <time>2012-03-01T08:27:39Z</time>
      </trkpt>
      <trkpt lat="60.0104541973" lon="23.3716655006">
        <ele>41.6</ele>
        <time>2012-03-01T08:27:42Z</time>
      </trkpt>
      <trkpt lat="60.0103058376" lon="23.3713938432">
        <ele>41.4</ele>
        <time>2012-03-01T08:27:48Z</time>
      </trkpt>
      <trkpt lat="60.0101573104" lon="23.3711833737">
        <ele>41.2</ele>
        <time>2012-03-01T08:27:54Z</time>
      </trkpt>
      <trkpt lat="60.0099947853" lon="23.3710190885">
        <ele>41.2</ele>
        <time>2012-03-01T08:27:59Z</time>
      </trkpt>
      <trkpt lat="60.0098550591" lon="23.3709283125">
        <ele>41.2</ele>
        <time>2012-03-01T08:28:03Z</time>
      </trkpt>
      <trkpt lat="60.0097196914" lon="23.3708120555">
        <ele>41.2</ele>
        <time>2012-03-01T08:28:08Z</time>
      </trkpt>
      <trkpt lat="60.0095801327" lon="23.3706822199">
        <ele>41.2</ele>
        <time>2012-03-01T08:28:11Z</time>
      </trkpt>
      <trkpt lat="60.00944619" lon="23.3705834811">
        <ele>41.2</ele>
        <time>2012-03-01T08:28:15Z</time>
      </trkpt>
      <trkpt lat="60.009346613" lon="23.3705155877">
        <ele>41.2</ele>
        <time>2012-03-01T08:28:18Z</time>
      </trkpt>
      <trkpt lat="60.0091560924" lon="23.370415424">
        <ele>41.2</ele>
        <time>2012-03-01T08:28:23Z</time>
      </trkpt>
      <trkpt lat="60.0089855207" lon="23.3703581756">
        <ele>41.8</ele>
        <time>2012-03-01T08:28:28Z</time>
      </trkpt>
      <trkpt lat="60.0088469679" lon="23.3703549905">
        <ele>42.4</ele>
        <time>2012-03-01T08:28:32Z</time>
      </trkpt>
      <trkpt lat="60.0085176431" lon="23.3702659747">
        <ele>43</ele>
        <time>2012-03-01T08:28:41Z</time>
      </trkpt>
      <trkpt lat="60.0081043316" lon="23.3698057246">
        <ele>42.4</ele>
        <time>2012-03-01T08:28:52Z</time>
      </trkpt>
      <trkpt lat="60.0080695467" lon="23.3697413516">
        <ele>42.2</ele>
        <time>2012-03-01T08:28:53Z</time>
      </trkpt>
      <trkpt lat="60.0079309939" lon="23.3694397709">
        <ele>41.8</ele>
        <time>2012-03-01T08:28:57Z</time>
      </trkpt>
      <trkpt lat="60.0079078599" lon="23.3693912397">
        <ele>41.8</ele>
        <time>2012-03-01T08:28:58Z</time>
      </trkpt>
      <trkpt lat="60.0077620148" lon="23.3691033214">
        <ele>41.4</ele>
        <time>2012-03-01T08:29:03Z</time>
      </trkpt>
      <trkpt lat="60.0077164173" lon="23.3689971227">
        <ele>41.2</ele>
        <time>2012-03-01T08:29:05Z</time>
      </trkpt>
      <trkpt lat="60.007637795" lon="23.3686294088">
        <ele>40.2</ele>
        <time>2012-03-01T08:29:11Z</time>
      </trkpt>
      <trkpt lat="60.0076268986" lon="23.3685593361">
        <ele>40</ele>
        <time>2012-03-01T08:29:13Z</time>
      </trkpt>
      <trkpt lat="60.0076018367" lon="23.3683035205">
        <ele>39.8</ele>
        <time>2012-03-01T08:29:16Z</time>
      </trkpt>
      <trkpt lat="60.0075518806" lon="23.3680489622">
        <ele>39.4</ele>
        <time>2012-03-01T08:29:20Z</time>
      </trkpt>
      <trkpt lat="60.0074732583" lon="23.3678322063">
        <ele>39.4</ele>
        <time>2012-03-01T08:29:24Z</time>
      </trkpt>
      <trkpt lat="60.007365048" lon="23.3676358183">
        <ele>39.2</ele>
        <time>2012-03-01T08:29:28Z</time>
      </trkpt>
      <trkpt lat="60.0072249865" lon="23.3673559467">
        <ele>39.2</ele>
        <time>2012-03-01T08:29:33Z</time>
      </trkpt>
      <trkpt lat="60.0071417542" lon="23.3671664319">
        <ele>39.2</ele>
        <time>2012-03-01T08:29:37Z</time>
      </trkpt>
      <trkpt lat="60.0070326219" lon="23.3669452336">
        <ele>39.6</ele>
        <time>2012-03-01T08:29:42Z</time>
      </trkpt>
      <trkpt lat="60.0069474618" lon="23.3667767574">
        <ele>40.2</ele>
        <time>2012-03-01T08:29:46Z</time>
      </trkpt>
      <trkpt lat="60.0068296961" lon="23.3665842252">
        <ele>40.6</ele>
        <time>2012-03-01T08:29:51Z</time>
      </trkpt>
      <trkpt lat="60.0066920653" lon="23.3664363684">
        <ele>40.8</ele>
        <time>2012-03-01T08:29:56Z</time>
      </trkpt>
      <trkpt lat="60.0066304583" lon="23.3664242147">
        <ele>40.8</ele>
        <time>2012-03-01T08:29:58Z</time>
      </trkpt>
      <trkpt lat="60.0064793326" lon="23.3662543974">
        <ele>41</ele>
        <time>2012-03-01T08:30:03Z</time>
      </trkpt>
      <trkpt lat="60.0064093438" lon="23.3660859212">
        <ele>41</ele>
        <time>2012-03-01T08:30:06Z</time>
      </trkpt>
      <trkpt lat="60.0063534365" lon="23.3659370587">
        <ele>41</ele>
        <time>2012-03-01T08:30:09Z</time>
      </trkpt>
      <trkpt lat="60.0062576314" lon="23.3657881123">
        <ele>41</ele>
        <time>2012-03-01T08:30:13Z</time>
      </trkpt>
      <trkpt lat="60.0062324857" lon="23.365747041">
        <ele>41</ele>
        <time>2012-03-01T08:30:14Z</time>
      </trkpt>
      <trkpt lat="60.0061186595" lon="23.3656175406">
        <ele>41</ele>
        <time>2012-03-01T08:30:18Z</time>
      </trkpt>
      <trkpt lat="60.0060834555" lon="23.3655949095">
        <ele>41</ele>
        <time>2012-03-01T08:30:19Z</time>
      </trkpt>
      <trkpt lat="60.0059834594" lon="23.3653988569">
        <ele>41</ele>
        <time>2012-03-01T08:30:24Z</time>
      </trkpt>
      <trkpt lat="60.0058972935" lon="23.3652447137">
        <ele>41</ele>
        <time>2012-03-01T08:30:28Z</time>
      </trkpt>
      <trkpt lat="60.005787323" lon="23.3650191568">
        <ele>41</ele>
        <time>2012-03-01T08:30:32Z</time>
      </trkpt>
      <trkpt lat="60.0056818787" lon="23.3647336693">
        <ele>41</ele>
        <time>2012-03-01T08:30:37Z</time>
      </trkpt>
      <trkpt lat="60.0055548091" lon="23.3645420591">
        <ele>41</ele>
        <time>2012-03-01T08:30:41Z</time>
      </trkpt>
      <trkpt lat="60.0054150828" lon="23.3642986487">
        <ele>41</ele>
        <time>2012-03-01T08:30:45Z</time>
      </trkpt>
      <trkpt lat="60.0052534798" lon="23.3640623629">
        <ele>41</ele>
        <time>2012-03-01T08:30:50Z</time>
      </trkpt>
      <trkpt lat="60.0051241471" lon="23.3638660588">
        <ele>41</ele>
        <time>2012-03-01T08:30:56Z</time>
      </trkpt>
      <trkpt lat="60.0051031923" lon="23.363839572">
        <ele>41</ele>
        <time>2012-03-01T08:31:00Z</time>
      </trkpt>
      <trkpt lat="60.0051106522" lon="23.3638569225">
        <ele>41</ele>
        <time>2012-03-01T08:31:03Z</time>
      </trkpt>
      <trkpt lat="60.0052102292" lon="23.363977119">
        <ele>41</ele>
        <time>2012-03-01T08:31:08Z</time>
      </trkpt>
      <trkpt lat="60.0053766937" lon="23.3641382191">
        <ele>40.8</ele>
        <time>2012-03-01T08:31:14Z</time>
      </trkpt>
      <trkpt lat="60.005430757" lon="23.3641805477">
        <ele>40.4</ele>
        <time>2012-03-01T08:31:16Z</time>
      </trkpt>
      <trkpt lat="60.0056056034" lon="23.3644750038">
        <ele>39.4</ele>
        <time>2012-03-01T08:31:22Z</time>
      </trkpt>
      <trkpt lat="60.0056991454" lon="23.3646624231">
        <ele>38.6</ele>
        <time>2012-03-01T08:31:26Z</time>
      </trkpt>
      <trkpt lat="60.0059039152" lon="23.3650718789">
        <ele>37.4</ele>
        <time>2012-03-01T08:31:35Z</time>
      </trkpt>
      <trkpt lat="60.0060280511" lon="23.3652947537">
        <ele>36.2</ele>
        <time>2012-03-01T08:31:41Z</time>
      </trkpt>
      <trkpt lat="60.0061470741" lon="23.3654738749">
        <ele>35.8</ele>
        <time>2012-03-01T08:31:46Z</time>
      </trkpt>
      <trkpt lat="60.0062748143" lon="23.3656483022">
        <ele>35.4</ele>
        <time>2012-03-01T08:31:50Z</time>
      </trkpt>
      <trkpt lat="60.0063747265" lon="23.3658088156">
        <ele>35.2</ele>
        <time>2012-03-01T08:31:54Z</time>
      </trkpt>
      <trkpt lat="60.0064257723" lon="23.3659425907">
        <ele>35.2</ele>
        <time>2012-03-01T08:31:57Z</time>
      </trkpt>
      <trkpt lat="60.0065203201" lon="23.3661590114">
        <ele>35.2</ele>
        <time>2012-03-01T08:32:02Z</time>
      </trkpt>
      <trkpt lat="60.0066146165" lon="23.3662583369">
        <ele>35</ele>
        <time>2012-03-01T08:32:06Z</time>
      </trkpt>
      <trkpt lat="60.0066894669" lon="23.3663046888">
        <ele>35</ele>
        <time>2012-03-01T08:32:09Z</time>
      </trkpt>
      <trkpt lat="60.006777393" lon="23.366396303">
        <ele>35.2</ele>
        <time>2012-03-01T08:32:14Z</time>
      </trkpt>
      <trkpt lat="60.0068674146" lon="23.3664897612">
        <ele>36</ele>
        <time>2012-03-01T08:32:19Z</time>
      </trkpt>
      <trkpt lat="60.0069279319" lon="23.3665632704">
        <ele>36.2</ele>
        <time>2012-03-01T08:32:22Z</time>
      </trkpt>
      <trkpt lat="60.0070581028" lon="23.3667605803">
        <ele>36.6</ele>
        <time>2012-03-01T08:32:27Z</time>
      </trkpt>
      <trkpt lat="60.0071532374" lon="23.3669296433">
        <ele>36.8</ele>
        <time>2012-03-01T08:32:31Z</time>
      </trkpt>
      <trkpt lat="60.0072214661" lon="23.3670785896">
        <ele>36.8</ele>
        <time>2012-03-01T08:32:34Z</time>
      </trkpt>
      <trkpt lat="60.0073675626" lon="23.3673961798">
        <ele>37</ele>
        <time>2012-03-01T08:32:40Z</time>
      </trkpt>
      <trkpt lat="60.0073995814" lon="23.3674342336">
        <ele>37</ele>
        <time>2012-03-01T08:32:41Z</time>
      </trkpt>
      <trkpt lat="60.0076110568" lon="23.3678461202">
        <ele>37</ele>
        <time>2012-03-01T08:32:50Z</time>
      </trkpt>
      <trkpt lat="60.0076457578" lon="23.3679880258">
        <ele>37.2</ele>
        <time>2012-03-01T08:32:53Z</time>
      </trkpt>
      <trkpt lat="60.0076980609" lon="23.3682823143">
        <ele>38</ele>
        <time>2012-03-01T08:32:58Z</time>
      </trkpt>
      <trkpt lat="60.0077532976" lon="23.3685531335">
        <ele>38.4</ele>
        <time>2012-03-01T08:33:02Z</time>
      </trkpt>
      <trkpt lat="60.0078042596" lon="23.368754802">
        <ele>38.6</ele>
        <time>2012-03-01T08:33:05Z</time>
      </trkpt>
      <trkpt lat="60.0079004838" lon="23.3690164011">
        <ele>39.2</ele>
        <time>2012-03-01T08:33:10Z</time>
      </trkpt>
      <trkpt lat="60.0080098676" lon="23.369227625">
        <ele>40</ele>
        <time>2012-03-01T08:33:15Z</time>
      </trkpt>
      <trkpt lat="60.0080831254" lon="23.3694238452">
        <ele>40.4</ele>
        <time>2012-03-01T08:33:19Z</time>
      </trkpt>
      <trkpt lat="60.0081974545" lon="23.3695914832">
        <ele>40.8</ele>
        <time>2012-03-01T08:33:24Z</time>
      </trkpt>
      <trkpt lat="60.0082649288" lon="23.3696764757">
        <ele>41</ele>
        <time>2012-03-01T08:33:28Z</time>
      </trkpt>
      <trkpt lat="60.0083696187" lon="23.3698141065">
        <ele>41.8</ele>
        <time>2012-03-01T08:33:33Z</time>
      </trkpt>
      <trkpt lat="60.0084575449" lon="23.369914354">
        <ele>42.4</ele>
        <time>2012-03-01T08:33:38Z</time>
      </trkpt>
      <trkpt lat="60.0085904818" lon="23.3700253304">
        <ele>42.8</ele>
        <time>2012-03-01T08:33:43Z</time>
      </trkpt>
      <trkpt lat="60.0087339799" lon="23.3700908768">
        <ele>43</ele>
        <time>2012-03-01T08:33:48Z</time>
      </trkpt>
      <trkpt lat="60.0088508236" lon="23.3701420903">
        <ele>43</ele>
        <time>2012-03-01T08:33:53Z</time>
      </trkpt>
      <trkpt lat="60.0088657434" lon="23.3701451916">
        <ele>43.2</ele>
        <time>2012-03-01T08:33:57Z</time>
      </trkpt>
      <trkpt lat="60.0089072338" lon="23.3701746959">
        <ele>43.2</ele>
        <time>2012-03-01T08:34:04Z</time>
      </trkpt>
      <trkpt lat="60.0089851855" lon="23.3701829101">
        <ele>43.2</ele>
        <time>2012-03-01T08:34:12Z</time>
      </trkpt>
      <trkpt lat="60.0090819964" lon="23.370195483">
        <ele>43.2</ele>
        <time>2012-03-01T08:34:15Z</time>
      </trkpt>
      <trkpt lat="60.0091081479" lon="23.3701923817">
        <ele>43.2</ele>
        <time>2012-03-01T08:34:16Z</time>
      </trkpt>
      <trkpt lat="60.0092296017" lon="23.3702836606">
        <ele>43.2</ele>
        <time>2012-03-01T08:34:21Z</time>
      </trkpt>
      <trkpt lat="60.0092617882" lon="23.3703065431">
        <ele>43.2</ele>
        <time>2012-03-01T08:34:22Z</time>
      </trkpt>
      <trkpt lat="60.0094220501" lon="23.3704270749">
        <ele>43.2</ele>
        <time>2012-03-01T08:34:26Z</time>
      </trkpt>
      <trkpt lat="60.0095505446" lon="23.370517767">
        <ele>43.2</ele>
        <time>2012-03-01T08:34:30Z</time>
      </trkpt>
      <trkpt lat="60.009689768" lon="23.3706572418">
        <ele>43</ele>
        <time>2012-03-01T08:34:33Z</time>
      </trkpt>
      <trkpt lat="60.0098083719" lon="23.3707401388">
        <ele>42.6</ele>
        <time>2012-03-01T08:34:36Z</time>
      </trkpt>
      <trkpt lat="60.009903255" lon="23.3708072778">
        <ele>42.2</ele>
        <time>2012-03-01T08:34:38Z</time>
      </trkpt>
      <trkpt lat="60.0100220265" lon="23.3709188409">
        <ele>41.8</ele>
        <time>2012-03-01T08:34:43Z</time>
      </trkpt>
      <trkpt lat="60.0101306559" lon="23.3709983013">
        <ele>40.8</ele>
        <time>2012-03-01T08:34:46Z</time>
      </trkpt>
      <trkpt lat="60.010223695" lon="23.3711333338">
        <ele>40.2</ele>
        <time>2012-03-01T08:34:51Z</time>
      </trkpt>
      <trkpt lat="60.0103279658" lon="23.3712637561">
        <ele>39.8</ele>
        <time>2012-03-01T08:34:56Z</time>
      </trkpt>
      <trkpt lat="60.0104383555" lon="23.3714519298">
        <ele>39.2</ele>
        <time>2012-03-01T08:35:00Z</time>
      </trkpt>
      <trkpt lat="60.0105306402" lon="23.3716352419">
        <ele>38.4</ele>
        <time>2012-03-01T08:35:03Z</time>
      </trkpt>
      <trkpt lat="60.0105717953" lon="23.3717187256">
        <ele>38.2</ele>
        <time>2012-03-01T08:35:06Z</time>
      </trkpt>
      <trkpt lat="60.0106684386" lon="23.3718721144">
        <ele>37.8</ele>
        <time>2012-03-01T08:35:10Z</time>
      </trkpt>
      <trkpt lat="60.0107574544" lon="23.3720139362">
        <ele>37.6</ele>
        <time>2012-03-01T08:35:13Z</time>
      </trkpt>
      <trkpt lat="60.0108139484" lon="23.372122817">
        <ele>37.4</ele>
        <time>2012-03-01T08:35:16Z</time>
      </trkpt>
      <trkpt lat="60.0108980189" lon="23.3722752838">
        <ele>37.4</ele>
        <time>2012-03-01T08:35:21Z</time>
      </trkpt>
      <trkpt lat="60.0109939078" lon="23.3724352943">
        <ele>37.2</ele>
        <time>2012-03-01T08:35:26Z</time>
      </trkpt>
      <trkpt lat="60.0110663274" lon="23.372502098">
        <ele>37.2</ele>
        <time>2012-03-01T08:35:28Z</time>
      </trkpt>
      <trkpt lat="60.0110980948" lon="23.3725410739">
        <ele>37.2</ele>
        <time>2012-03-01T08:35:29Z</time>
      </trkpt>
      <trkpt lat="60.0112062213" lon="23.3726492842">
        <ele>37.2</ele>
        <time>2012-03-01T08:35:33Z</time>
      </trkpt>
      <trkpt lat="60.0113920481" lon="23.3728425708">
        <ele>37.2</ele>
        <time>2012-03-01T08:35:43Z</time>
      </trkpt>
      <trkpt lat="60.011473101" lon="23.3729167506">
        <ele>37.2</ele>
        <time>2012-03-01T08:35:46Z</time>
      </trkpt>
      <trkpt lat="60.011580557" lon="23.3730465024">
        <ele>37.2</ele>
        <time>2012-03-01T08:35:51Z</time>
      </trkpt>
      <trkpt lat="60.0117040224" lon="23.3731501027">
        <ele>37.2</ele>
        <time>2012-03-01T08:35:57Z</time>
      </trkpt>
      <trkpt lat="60.0118096343" lon="23.3732545412">
        <ele>37.2</ele>
        <time>2012-03-01T08:36:02Z</time>
      </trkpt>
      <trkpt lat="60.011962604" lon="23.3734137135">
        <ele>37.4</ele>
        <time>2012-03-01T08:36:08Z</time>
      </trkpt>
      <trkpt lat="60.0120850635" lon="23.3735107759">
        <ele>38</ele>
        <time>2012-03-01T08:36:12Z</time>
      </trkpt>
      <trkpt lat="60.0122138933" lon="23.3735773282">
        <ele>38.4</ele>
        <time>2012-03-01T08:36:15Z</time>
      </trkpt>
      <trkpt lat="60.0123410468" lon="23.3736373426">
        <ele>38.6</ele>
        <time>2012-03-01T08:36:19Z</time>
      </trkpt>
      <trkpt lat="60.0124923401" lon="23.3737948385">
        <ele>38.8</ele>
        <time>2012-03-01T08:36:25Z</time>
      </trkpt>
      <trkpt lat="60.0126374308" lon="23.373921489">
        <ele>39</ele>
        <time>2012-03-01T08:36:30Z</time>
      </trkpt>
      <trkpt lat="60.0127810127" lon="23.3740719441">
        <ele>39</ele>
        <time>2012-03-01T08:36:35Z</time>
      </trkpt>
      <trkpt lat="60.0129045619" lon="23.3741692579">
        <ele>39.2</ele>
        <time>2012-03-01T08:36:39Z</time>
      </trkpt>
      <trkpt lat="60.0129833518" lon="23.3742763786">
        <ele>39.2</ele>
        <time>2012-03-01T08:36:43Z</time>
      </trkpt>
      <trkpt lat="60.0131715254" lon="23.3744496325">
        <ele>39.2</ele>
        <time>2012-03-01T08:36:50Z</time>
      </trkpt>
      <trkpt lat="60.0133001038" lon="23.3745359661">
        <ele>39.2</ele>
        <time>2012-03-01T08:36:53Z</time>
      </trkpt>
      <trkpt lat="60.0134811528" lon="23.3746438411">
        <ele>39.8</ele>
        <time>2012-03-01T08:37:00Z</time>
      </trkpt>
      <trkpt lat="60.0136722601" lon="23.3747372993">
        <ele>40.4</ele>
        <time>2012-03-01T08:37:04Z</time>
      </trkpt>
      <trkpt lat="60.0139208673" lon="23.3748954657">
        <ele>40.8</ele>
        <time>2012-03-01T08:37:10Z</time>
      </trkpt>
      <trkpt lat="60.0140651198" lon="23.3750340186">
        <ele>40.8</ele>
        <time>2012-03-01T08:37:15Z</time>
      </trkpt>
      <trkpt lat="60.0142241244" lon="23.3751337632">
        <ele>41</ele>
        <time>2012-03-01T08:37:18Z</time>
      </trkpt>
      <trkpt lat="60.0142903414" lon="23.3752089488">
        <ele>41</ele>
        <time>2012-03-01T08:37:21Z</time>
      </trkpt>
      <trkpt lat="60.0144672833" lon="23.3753122138">
        <ele>41.2</ele>
        <time>2012-03-01T08:37:26Z</time>
      </trkpt>
      <trkpt lat="60.0146333288" lon="23.3754200051">
        <ele>41.2</ele>
        <time>2012-03-01T08:37:30Z</time>
      </trkpt>
      <trkpt lat="60.0148136235" lon="23.3755894033">
        <ele>41.2</ele>
        <time>2012-03-01T08:37:36Z</time>
      </trkpt>
      <trkpt lat="60.0149951754" lon="23.3757767387">
        <ele>41.2</ele>
        <time>2012-03-01T08:37:42Z</time>
      </trkpt>
      <trkpt lat="60.0151784876" lon="23.3759364977">
        <ele>41.2</ele>
        <time>2012-03-01T08:37:46Z</time>
      </trkpt>
      <trkpt lat="60.015257026" lon="23.3760058999">
        <ele>41.2</ele>
        <time>2012-03-01T08:37:48Z</time>
      </trkpt>
      <trkpt lat="60.0153334689" lon="23.376124839">
        <ele>40.8</ele>
        <time>2012-03-01T08:37:51Z</time>
      </trkpt>
      <trkpt lat="60.0153893762" lon="23.3762550099">
        <ele>40.4</ele>
        <time>2012-03-01T08:37:52Z</time>
      </trkpt>
      <trkpt lat="60.0154478818" lon="23.376441591">
        <ele>40</ele>
        <time>2012-03-01T08:37:56Z</time>
      </trkpt>
      <trkpt lat="60.0155679945" lon="23.3768135797">
        <ele>39.6</ele>
        <time>2012-03-01T08:38:02Z</time>
      </trkpt>
      <trkpt lat="60.0157545755" lon="23.3770526315">
        <ele>39.4</ele>
        <time>2012-03-01T08:38:06Z</time>
      </trkpt>
      <trkpt lat="60.0158212117" lon="23.3771326787">
        <ele>39.4</ele>
        <time>2012-03-01T08:38:07Z</time>
      </trkpt>
      <trkpt lat="60.0159279971" lon="23.377553953">
        <ele>39.2</ele>
        <time>2012-03-01T08:38:10Z</time>
      </trkpt>
      <trkpt lat="60.0159329424" lon="23.3779038135">
        <ele>39.2</ele>
        <time>2012-03-01T08:38:13Z</time>
      </trkpt>
      <trkpt lat="60.0159226326" lon="23.3780598845">
        <ele>39.2</ele>
        <time>2012-03-01T08:38:16Z</time>
      </trkpt>
      <trkpt lat="60.0158971517" lon="23.3781998622">
        <ele>39.2</ele>
        <time>2012-03-01T08:38:18Z</time>
      </trkpt>
      <trkpt lat="60.01589514" lon="23.3782101719">
        <ele>39.2</ele>
        <time>2012-03-01T08:38:19Z</time>
      </trkpt>
      <trkpt lat="60.0158931284" lon="23.3782089985">
        <ele>39</ele>
        <time>2012-03-01T08:38:28Z</time>
      </trkpt>
      <trkpt lat="60.0159205372" lon="23.377677586">
        <ele>39</ele>
        <time>2012-03-01T08:38:34Z</time>
      </trkpt>
      <trkpt lat="60.0159163462" lon="23.3775628378">
        <ele>39</ele>
        <time>2012-03-01T08:38:36Z</time>
      </trkpt>
      <trkpt lat="60.0158843274" lon="23.3773508595">
        <ele>39</ele>
        <time>2012-03-01T08:38:38Z</time>
      </trkpt>
      <trkpt lat="60.0157143424" lon="23.3770666293">
        <ele>39</ele>
        <time>2012-03-01T08:38:43Z</time>
      </trkpt>
      <trkpt lat="60.0155804835" lon="23.3769228797">
        <ele>39</ele>
        <time>2012-03-01T08:38:50Z</time>
      </trkpt>
      <trkpt lat="60.0155127577" lon="23.3768016774">
        <ele>39</ele>
        <time>2012-03-01T08:38:56Z</time>
      </trkpt>
      <trkpt lat="60.0155023642" lon="23.3768039406">
        <ele>39</ele>
        <time>2012-03-01T08:39:05Z</time>
      </trkpt>
      <trkpt lat="60.0154949043" lon="23.3768159267">
        <ele>39</ele>
        <time>2012-03-01T08:39:13Z</time>
      </trkpt>
      <trkpt lat="60.0154651485" lon="23.376785668">
        <ele>46.6</ele>
        <time>2012-03-01T08:39:58Z</time>
      </trkpt>
      <trkpt lat="60.0154335488" lon="23.3767523081">
        <ele>49</ele>
        <time>2012-03-01T08:40:19Z</time>
      </trkpt>
      <trkpt lat="60.0154115882" lon="23.3766437625">
        <ele>49.2</ele>
        <time>2012-03-01T08:40:22Z</time>
      </trkpt>
      <trkpt lat="60.0153428566" lon="23.3764458658">
        <ele>49.2</ele>
        <time>2012-03-01T08:40:27Z</time>
      </trkpt>
      <trkpt lat="60.0153274339" lon="23.3764038725">
        <ele>49.4</ele>
        <time>2012-03-01T08:40:28Z</time>
      </trkpt>
      <trkpt lat="60.0151617238" lon="23.376071111">
        <ele>49.4</ele>
        <time>2012-03-01T08:40:36Z</time>
      </trkpt>
      <trkpt lat="60.0149231749" lon="23.3758186482">
        <ele>49.4</ele>
        <time>2012-03-01T08:40:47Z</time>
      </trkpt>
      <trkpt lat="60.0147728874" lon="23.3756886449">
        <ele>49.4</ele>
        <time>2012-03-01T08:40:53Z</time>
      </trkpt>
      <trkpt lat="60.0146252822" lon="23.3755505951">
        <ele>49.4</ele>
        <time>2012-03-01T08:40:58Z</time>
      </trkpt>
      <trkpt lat="60.0144821193" lon="23.3754605734">
        <ele>49.4</ele>
        <time>2012-03-01T08:41:03Z</time>
      </trkpt>
      <trkpt lat="60.0143424769" lon="23.3753518602">
        <ele>49.4</ele>
        <time>2012-03-01T08:41:08Z</time>
      </trkpt>
      <trkpt lat="60.0141999007" lon="23.3752692147">
        <ele>49.4</ele>
        <time>2012-03-01T08:41:13Z</time>
      </trkpt>
      <trkpt lat="60.0140584143" lon="23.3751707273">
        <ele>48.6</ele>
        <time>2012-03-01T08:41:18Z</time>
      </trkpt>
      <trkpt lat="60.0139545625" lon="23.3751011576">
        <ele>48.2</ele>
        <time>2012-03-01T08:41:22Z</time>
      </trkpt>
      <trkpt lat="60.0138393952" lon="23.3749905165">
        <ele>48</ele>
        <time>2012-03-01T08:41:26Z</time>
      </trkpt>
      <trkpt lat="60.0136720925" lon="23.3748748463">
        <ele>47.8</ele>
        <time>2012-03-01T08:41:32Z</time>
      </trkpt>
      <trkpt lat="60.0134001837" lon="23.3747580864">
        <ele>46.2</ele>
        <time>2012-03-01T08:41:42Z</time>
      </trkpt>
      <trkpt lat="60.0132715215" lon="23.3746779554">
        <ele>46</ele>
        <time>2012-03-01T08:41:47Z</time>
      </trkpt>
      <trkpt lat="60.0131366567" lon="23.3745731817">
        <ele>45.6</ele>
        <time>2012-03-01T08:41:53Z</time>
      </trkpt>
      <trkpt lat="60.0130260156" lon="23.3744593555">
        <ele>45.6</ele>
        <time>2012-03-01T08:41:58Z</time>
      </trkpt>
      <trkpt lat="60.0129191464" lon="23.3743821582">
        <ele>45.6</ele>
        <time>2012-03-01T08:42:02Z</time>
      </trkpt>
      <trkpt lat="60.0128273646" lon="23.374333627">
        <ele>45.4</ele>
        <time>2012-03-01T08:42:05Z</time>
      </trkpt>
      <trkpt lat="60.0126652587" lon="23.3741704314">
        <ele>45.4</ele>
        <time>2012-03-01T08:42:10Z</time>
      </trkpt>
      <trkpt lat="60.012540536" lon="23.3740367401">
        <ele>45.4</ele>
        <time>2012-03-01T08:42:15Z</time>
      </trkpt>
      <trkpt lat="60.0124349241" lon="23.3739317149">
        <ele>45.4</ele>
        <time>2012-03-01T08:42:19Z</time>
      </trkpt>
      <trkpt lat="60.0122971256" lon="23.3738425315">
        <ele>45.4</ele>
        <time>2012-03-01T08:42:23Z</time>
      </trkpt>
      <trkpt lat="60.012169134" lon="23.373761227">
        <ele>45.4</ele>
        <time>2012-03-01T08:42:27Z</time>
      </trkpt>
      <trkpt lat="60.0119859895" lon="23.3736253564">
        <ele>45.4</ele>
        <time>2012-03-01T08:42:33Z</time>
      </trkpt>
      <trkpt lat="60.0118336904" lon="23.3734666871">
        <ele>45.4</ele>
        <time>2012-03-01T08:42:38Z</time>
      </trkpt>
      <trkpt lat="60.0117569122" lon="23.3733497596">
        <ele>45.4</ele>
        <time>2012-03-01T08:42:42Z</time>
      </trkpt>
      <trkpt lat="60.0114752803" lon="23.3730457481">
        <ele>45.4</ele>
        <time>2012-03-01T08:42:52Z</time>
      </trkpt>
      <trkpt lat="60.0113943112" lon="23.3729506973">
        <ele>45.4</ele>
        <time>2012-03-01T08:42:55Z</time>
      </trkpt>
      <trkpt lat="60.0112748691" lon="23.372883223">
        <ele>45.4</ele>
        <time>2012-03-01T08:42:58Z</time>
      </trkpt>
      <trkpt lat="60.0112367314" lon="23.3728536349">
        <ele>45.4</ele>
        <time>2012-03-01T08:43:00Z</time>
      </trkpt>
      <trkpt lat="60.0111270962" lon="23.3727621884">
        <ele>45.2</ele>
        <time>2012-03-01T08:43:03Z</time>
      </trkpt>
      <trkpt lat="60.0110024573" lon="23.3726673891">
        <ele>44.6</ele>
        <time>2012-03-01T08:43:08Z</time>
      </trkpt>
      <trkpt lat="60.0109053111" lon="23.3725629506">
        <ele>44.2</ele>
        <time>2012-03-01T08:43:11Z</time>
      </trkpt>
      <trkpt lat="60.0107898924" lon="23.3723886071">
        <ele>44</ele>
        <time>2012-03-01T08:43:16Z</time>
      </trkpt>
      <trkpt lat="60.010693752" lon="23.3721741981">
        <ele>43.8</ele>
        <time>2012-03-01T08:43:21Z</time>
      </trkpt>
      <trkpt lat="60.0106033113" lon="23.3719721943">
        <ele>43.6</ele>
        <time>2012-03-01T08:43:27Z</time>
      </trkpt>
      <trkpt lat="60.0105324842" lon="23.3718276065">
        <ele>43.6</ele>
        <time>2012-03-01T08:43:31Z</time>
      </trkpt>
      <trkpt lat="60.0104176522" lon="23.3715864593">
        <ele>43.4</ele>
        <time>2012-03-01T08:43:37Z</time>
      </trkpt>
      <trkpt lat="60.0104040735" lon="23.3715463938">
        <ele>43.4</ele>
        <time>2012-03-01T08:43:38Z</time>
      </trkpt>
      <trkpt lat="60.0103142195" lon="23.3714339087">
        <ele>43.4</ele>
        <time>2012-03-01T08:43:42Z</time>
      </trkpt>
      <trkpt lat="60.0102350944" lon="23.3713016423">
        <ele>43.4</ele>
        <time>2012-03-01T08:43:46Z</time>
      </trkpt>
      <trkpt lat="60.0101133892" lon="23.3711481697">
        <ele>43.4</ele>
        <time>2012-03-01T08:43:52Z</time>
      </trkpt>
      <trkpt lat="60.0100020776" lon="23.3710709724">
        <ele>43.4</ele>
        <time>2012-03-01T08:43:56Z</time>
      </trkpt>
      <trkpt lat="60.0098584118" lon="23.3709613372">
        <ele>43.4</ele>
        <time>2012-03-01T08:44:01Z</time>
      </trkpt>
      <trkpt lat="60.0097222059" lon="23.3708403025">
        <ele>43.4</ele>
        <time>2012-03-01T08:44:05Z</time>
      </trkpt>
      <trkpt lat="60.0095518857" lon="23.3707114727">
        <ele>43.4</ele>
        <time>2012-03-01T08:44:11Z</time>
      </trkpt>
      <trkpt lat="60.0094097287" lon="23.370604352">
        <ele>43.4</ele>
        <time>2012-03-01T08:44:16Z</time>
      </trkpt>
      <trkpt lat="60.0093016022" lon="23.3705572458">
        <ele>43.4</ele>
        <time>2012-03-01T08:44:19Z</time>
      </trkpt>
      <trkpt lat="60.0091539969" lon="23.3704532264">
        <ele>43.4</ele>
        <time>2012-03-01T08:44:24Z</time>
      </trkpt>
      <trkpt lat="60.0090197189" lon="23.3704281645">
        <ele>43.4</ele>
        <time>2012-03-01T08:44:28Z</time>
      </trkpt>
      <trkpt lat="60.0088783162" lon="23.3704017615">
        <ele>43.4</ele>
        <time>2012-03-01T08:44:34Z</time>
      </trkpt>
      <trkpt lat="60.0087087504" lon="23.3703259891">
        <ele>43.4</ele>
        <time>2012-03-01T08:44:40Z</time>
      </trkpt>
      <trkpt lat="60.0085318923" lon="23.3702168568">
        <ele>43.4</ele>
        <time>2012-03-01T08:44:45Z</time>
      </trkpt>
      <trkpt lat="60.0084128693" lon="23.3701150167">
        <ele>42.8</ele>
        <time>2012-03-01T08:44:49Z</time>
      </trkpt>
      <trkpt lat="60.0083524358" lon="23.3700513143">
        <ele>42.4</ele>
        <time>2012-03-01T08:44:51Z</time>
      </trkpt>
      <trkpt lat="60.008267611" lon="23.3699512344">
        <ele>42.2</ele>
        <time>2012-03-01T08:44:54Z</time>
      </trkpt>
      <trkpt lat="60.0081061756" lon="23.3697159545">
        <ele>41.8</ele>
        <time>2012-03-01T08:44:58Z</time>
      </trkpt>
      <trkpt lat="60.007969383" lon="23.3694760645">
        <ele>41.6</ele>
        <time>2012-03-01T08:45:04Z</time>
      </trkpt>
      <trkpt lat="60.0078580714" lon="23.3692195783">
        <ele>41.6</ele>
        <time>2012-03-01T08:45:09Z</time>
      </trkpt>
      <trkpt lat="60.0078081153" lon="23.3690818637">
        <ele>41.4</ele>
        <time>2012-03-01T08:45:12Z</time>
      </trkpt>
      <trkpt lat="60.0077377073" lon="23.3688999765">
        <ele>41.2</ele>
        <time>2012-03-01T08:45:16Z</time>
      </trkpt>
      <trkpt lat="60.0076791178" lon="23.3687000682">
        <ele>40.6</ele>
        <time>2012-03-01T08:45:20Z</time>
      </trkpt>
      <trkpt lat="60.0076351128" lon="23.3684574122">
        <ele>40.2</ele>
        <time>2012-03-01T08:45:24Z</time>
      </trkpt>
      <trkpt lat="60.0075713266" lon="23.368167147">
        <ele>39.8</ele>
        <time>2012-03-01T08:45:29Z</time>
      </trkpt>
      <trkpt lat="60.0074973144" lon="23.3679701723">
        <ele>39.6</ele>
        <time>2012-03-01T08:45:33Z</time>
      </trkpt>
      <trkpt lat="60.0074150041" lon="23.3677775563">
        <ele>39.6</ele>
        <time>2012-03-01T08:45:37Z</time>
      </trkpt>
      <trkpt lat="60.0072788821" lon="23.3674805017">
        <ele>39.4</ele>
        <time>2012-03-01T08:45:43Z</time>
      </trkpt>
      <trkpt lat="60.0071893634" lon="23.3672675177">
        <ele>39.4</ele>
        <time>2012-03-01T08:45:48Z</time>
      </trkpt>
      <trkpt lat="60.0070419258" lon="23.3669773363">
        <ele>39.4</ele>
        <time>2012-03-01T08:45:56Z</time>
      </trkpt>
      <trkpt lat="60.0069539996" lon="23.3668048368">
        <ele>39.4</ele>
        <time>2012-03-01T08:46:00Z</time>
      </trkpt>
      <trkpt lat="60.0068187158" lon="23.3666064372">
        <ele>39.4</ele>
        <time>2012-03-01T08:46:05Z</time>
      </trkpt>
      <trkpt lat="60.0067049734" lon="23.3664830556">
        <ele>39.4</ele>
        <time>2012-03-01T08:46:09Z</time>
      </trkpt>
      <trkpt lat="60.0065625649" lon="23.3663667987">
        <ele>39.4</ele>
        <time>2012-03-01T08:46:14Z</time>
      </trkpt>
      <trkpt lat="60.0064493254" lon="23.3662273239">
        <ele>39.4</ele>
        <time>2012-03-01T08:46:19Z</time>
      </trkpt>
      <trkpt lat="60.0064284545" lon="23.3661632861">
        <ele>39.4</ele>
        <time>2012-03-01T08:46:20Z</time>
      </trkpt>
      <trkpt lat="60.0063569569" lon="23.3659829077">
        <ele>39.4</ele>
        <time>2012-03-01T08:46:24Z</time>
      </trkpt>
      <trkpt lat="60.0062691146" lon="23.3658353862">
        <ele>39.4</ele>
        <time>2012-03-01T08:46:27Z</time>
      </trkpt>
      <trkpt lat="60.0061609881" lon="23.3656793152">
        <ele>39.4</ele>
        <time>2012-03-01T08:46:33Z</time>
      </trkpt>
      <trkpt lat="60.0061177375" lon="23.3656065604">
        <ele>39.4</ele>
        <time>2012-03-01T08:46:35Z</time>
      </trkpt>
      <trkpt lat="60.0059928472" lon="23.3654043889">
        <ele>39.4</ele>
        <time>2012-03-01T08:46:41Z</time>
      </trkpt>
      <trkpt lat="60.0058680407" lon="23.3651981942">
        <ele>39.4</ele>
        <time>2012-03-01T08:46:46Z</time>
      </trkpt>
      <trkpt lat="60.005841051" lon="23.3651753954">
        <ele>39.4</ele>
        <time>2012-03-01T08:46:47Z</time>
      </trkpt>
      <trkpt lat="60.0057684637" lon="23.3649980344">
        <ele>39.4</ele>
        <time>2012-03-01T08:46:50Z</time>
      </trkpt>
      <trkpt lat="60.0057323377" lon="23.3649299734">
        <ele>39.4</ele>
        <time>2012-03-01T08:46:52Z</time>
      </trkpt>
      <trkpt lat="60.0056496922" lon="23.3647267961">
        <ele>39.4</ele>
        <time>2012-03-01T08:46:56Z</time>
      </trkpt>
      <trkpt lat="60.0056237083" lon="23.3646863115">
        <ele>39.4</ele>
        <time>2012-03-01T08:46:57Z</time>
      </trkpt>
      <trkpt lat="60.0054594231" lon="23.3644328429">
        <ele>39.4</ele>
        <time>2012-03-01T08:47:03Z</time>
      </trkpt>
      <trkpt lat="60.0053584212" lon="23.3642867464">
        <ele>39.4</ele>
        <time>2012-03-01T08:47:07Z</time>
      </trkpt>
      <trkpt lat="60.0052509652" lon="23.364109553">
        <ele>39.4</ele>
        <time>2012-03-01T08:47:13Z</time>
      </trkpt>
      <trkpt lat="60.0051508015" lon="23.3639663902">
        <ele>39.4</ele>
        <time>2012-03-01T08:47:20Z</time>
      </trkpt>
      <trkpt lat="60.0050984984" lon="23.3638870136">
        <ele>39.4</ele>
        <time>2012-03-01T08:47:24Z</time>
      </trkpt>
      <trkpt lat="60.004994982" lon="23.3637783003">
        <ele>39.4</ele>
        <time>2012-03-01T08:47:30Z</time>
      </trkpt>
      <trkpt lat="60.0048951535" lon="23.3635860195">
        <ele>39.4</ele>
        <time>2012-03-01T08:47:34Z</time>
      </trkpt>
      <trkpt lat="60.0047952413" lon="23.3632327225">
        <ele>39.4</ele>
        <time>2012-03-01T08:47:39Z</time>
      </trkpt>
      <trkpt lat="60.0047661561" lon="23.362874983">
        <ele>39.4</ele>
        <time>2012-03-01T08:47:42Z</time>
      </trkpt>
      <trkpt lat="60.004768503" lon="23.3627336641">
        <ele>39.4</ele>
        <time>2012-03-01T08:47:43Z</time>
      </trkpt>
      <trkpt lat="60.0047457881" lon="23.3623505275">
        <ele>39.4</ele>
        <time>2012-03-01T08:47:47Z</time>
      </trkpt>
      <trkpt lat="60.0047333829" lon="23.3621469311">
        <ele>39.4</ele>
        <time>2012-03-01T08:47:49Z</time>
      </trkpt>
      <trkpt lat="60.0046989333" lon="23.3619066221">
        <ele>39.4</ele>
        <time>2012-03-01T08:47:52Z</time>
      </trkpt>
      <trkpt lat="60.0046462949" lon="23.3613674982">
        <ele>38.2</ele>
        <time>2012-03-01T08:47:58Z</time>
      </trkpt>
      <trkpt lat="60.0046034634" lon="23.360955947">
        <ele>37.8</ele>
        <time>2012-03-01T08:48:05Z</time>
      </trkpt>
      <trkpt lat="60.0045977637" lon="23.3607948468">
        <ele>37.6</ele>
        <time>2012-03-01T08:48:08Z</time>
      </trkpt>
      <trkpt lat="60.0045932375" lon="23.3607358383">
        <ele>37.6</ele>
        <time>2012-03-01T08:48:09Z</time>
      </trkpt>
      <trkpt lat="60.0045301218" lon="23.3604589003">
        <ele>37.4</ele>
        <time>2012-03-01T08:48:15Z</time>
      </trkpt>
      <trkpt lat="60.0044625637" lon="23.3602898374">
        <ele>37.4</ele>
        <time>2012-03-01T08:48:19Z</time>
      </trkpt>
      <trkpt lat="60.0043757272" lon="23.360168216">
        <ele>37.4</ele>
        <time>2012-03-01T08:48:22Z</time>
      </trkpt>
      <trkpt lat="60.0040963585" lon="23.3598785375">
        <ele>37.2</ele>
        <time>2012-03-01T08:48:35Z</time>
      </trkpt>
      <trkpt lat="60.0039407066" lon="23.3598601812">
        <ele>37.2</ele>
        <time>2012-03-01T08:48:42Z</time>
      </trkpt>
      <trkpt lat="60.003799723" lon="23.3598132425">
        <ele>37.2</ele>
        <time>2012-03-01T08:48:46Z</time>
      </trkpt>
      <trkpt lat="60.0036279779" lon="23.3597978198">
        <ele>37.2</ele>
        <time>2012-03-01T08:48:51Z</time>
      </trkpt>
      <trkpt lat="60.0034442467" lon="23.3597903599">
        <ele>37.4</ele>
        <time>2012-03-01T08:48:57Z</time>
      </trkpt>
      <trkpt lat="60.0032556539" lon="23.3598229655">
        <ele>38.4</ele>
        <time>2012-03-01T08:49:03Z</time>
      </trkpt>
      <trkpt lat="60.0031349545" lon="23.3598372986">
        <ele>38.6</ele>
        <time>2012-03-01T08:49:07Z</time>
      </trkpt>
      <trkpt lat="60.0029460265" lon="23.359877867">
        <ele>39</ele>
        <time>2012-03-01T08:49:13Z</time>
      </trkpt>
      <trkpt lat="60.0027752872" lon="23.3599311759">
        <ele>39</ele>
        <time>2012-03-01T08:49:18Z</time>
      </trkpt>
      <trkpt lat="60.0026217308" lon="23.3599512086">
        <ele>39.2</ele>
        <time>2012-03-01T08:49:23Z</time>
      </trkpt>
      <trkpt lat="60.0024477226" lon="23.3599849877">
        <ele>39.2</ele>
        <time>2012-03-01T08:49:27Z</time>
      </trkpt>
      <trkpt lat="60.0023059008" lon="23.3599914417">
        <ele>39.2</ele>
        <time>2012-03-01T08:49:30Z</time>
      </trkpt>
      <trkpt lat="60.0022370016" lon="23.360024215">
        <ele>39.2</ele>
        <time>2012-03-01T08:49:32Z</time>
      </trkpt>
      <trkpt lat="60.0020484088" lon="23.3599137415">
        <ele>39.2</ele>
        <time>2012-03-01T08:49:36Z</time>
      </trkpt>
      <trkpt lat="60.0019182379" lon="23.3597992448">
        <ele>39.2</ele>
        <time>2012-03-01T08:49:38Z</time>
      </trkpt>
      <trkpt lat="60.0017233588" lon="23.3595710056">
        <ele>39.2</ele>
        <time>2012-03-01T08:49:43Z</time>
      </trkpt>
      <trkpt lat="60.0015692994" lon="23.3593384079">
        <ele>39.2</ele>
        <time>2012-03-01T08:49:47Z</time>
      </trkpt>
      <trkpt lat="60.0014457502" lon="23.3591101688">
        <ele>39.2</ele>
        <time>2012-03-01T08:49:50Z</time>
      </trkpt>
      <trkpt lat="60.001393531" lon="23.359007239">
        <ele>39.2</ele>
        <time>2012-03-01T08:49:52Z</time>
      </trkpt>
      <trkpt lat="60.0012993184" lon="23.3588023854">
        <ele>39.2</ele>
        <time>2012-03-01T08:49:55Z</time>
      </trkpt>
      <trkpt lat="60.0012252224" lon="23.358696522">
        <ele>39.2</ele>
        <time>2012-03-01T08:49:57Z</time>
      </trkpt>
      <trkpt lat="60.0010897709" lon="23.3584718033">
        <ele>39.2</ele>
        <time>2012-03-01T08:50:01Z</time>
      </trkpt>
      <trkpt lat="60.0009472786" lon="23.3581229486">
        <ele>38.4</ele>
        <time>2012-03-01T08:50:05Z</time>
      </trkpt>
      <trkpt lat="60.0009071293" lon="23.3580196836">
        <ele>38.4</ele>
        <time>2012-03-01T08:50:07Z</time>
      </trkpt>
      <trkpt lat="60.0007885255" lon="23.3578093817">
        <ele>38</ele>
        <time>2012-03-01T08:50:10Z</time>
      </trkpt>
      <trkpt lat="60.00076514" lon="23.3577960545">
        <ele>38</ele>
        <time>2012-03-01T08:50:11Z</time>
      </trkpt>
      <trkpt lat="60.0007349651" lon="23.3577394766">
        <ele>38</ele>
        <time>2012-03-01T08:50:12Z</time>
      </trkpt>
      <trkpt lat="60.000614601" lon="23.3574628739">
        <ele>36.8</ele>
        <time>2012-03-01T08:50:17Z</time>
      </trkpt>
      <trkpt lat="60.0004827537" lon="23.3574842478">
        <ele>36.2</ele>
        <time>2012-03-01T08:50:21Z</time>
      </trkpt>
      <trkpt lat="60.0004543391" lon="23.3575215472">
        <ele>36.2</ele>
        <time>2012-03-01T08:50:22Z</time>
      </trkpt>
      <trkpt lat="60.0002954183" lon="23.3576651292">
        <ele>35.6</ele>
        <time>2012-03-01T08:50:28Z</time>
      </trkpt>
      <trkpt lat="60.0000968511" lon="23.3577487806">
        <ele>34.8</ele>
        <time>2012-03-01T08:50:35Z</time>
      </trkpt>
      <trkpt lat="59.9999237648" lon="23.3582592383">
        <ele>33.8</ele>
        <time>2012-03-01T08:50:43Z</time>
      </trkpt>
      <trkpt lat="59.9999279558" lon="23.3583077695">
        <ele>33.8</ele>
        <time>2012-03-01T08:50:44Z</time>
      </trkpt>
      <trkpt lat="59.9998877227" lon="23.358435342">
        <ele>33.6</ele>
        <time>2012-03-01T08:50:45Z</time>
      </trkpt>
      <trkpt lat="59.9997549534" lon="23.3586435484">
        <ele>33.2</ele>
        <time>2012-03-01T08:50:50Z</time>
      </trkpt>
      <trkpt lat="59.9997441407" lon="23.3586652575">
        <ele>33</ele>
        <time>2012-03-01T08:50:51Z</time>
      </trkpt>
      <trkpt lat="59.9996489223" lon="23.3587774073">
        <ele>32.4</ele>
        <time>2012-03-01T08:50:54Z</time>
      </trkpt>
      <trkpt lat="59.9995196734" lon="23.3589205702">
        <ele>31.8</ele>
        <time>2012-03-01T08:50:59Z</time>
      </trkpt>
      <trkpt lat="59.9994174143" lon="23.358957702">
        <ele>31.6</ele>
        <time>2012-03-01T08:51:03Z</time>
      </trkpt>
      <trkpt lat="59.9992587449" lon="23.3589768965">
        <ele>31.4</ele>
        <time>2012-03-01T08:51:09Z</time>
      </trkpt>
      <trkpt lat="59.9991544741" lon="23.3590225779">
        <ele>31.2</ele>
        <time>2012-03-01T08:51:13Z</time>
      </trkpt>
      <trkpt lat="59.9990424081" lon="23.3590462149">
        <ele>31.2</ele>
        <time>2012-03-01T08:51:17Z</time>
      </trkpt>
      <trkpt lat="59.9989408194" lon="23.3590543453">
        <ele>31.2</ele>
        <time>2012-03-01T08:51:21Z</time>
      </trkpt>
      <trkpt lat="59.9988120734" lon="23.3590870347">
        <ele>30.8</ele>
        <time>2012-03-01T08:51:26Z</time>
      </trkpt>
      <trkpt lat="59.9987611115" lon="23.3591143597">
        <ele>30.4</ele>
        <time>2012-03-01T08:51:28Z</time>
      </trkpt>
      <trkpt lat="59.9985979159" lon="23.3594404994">
        <ele>29.8</ele>
        <time>2012-03-01T08:51:35Z</time>
      </trkpt>
      <trkpt lat="59.9985876062" lon="23.3596569201">
        <ele>29.6</ele>
        <time>2012-03-01T08:51:38Z</time>
      </trkpt>
      <trkpt lat="59.998619625" lon="23.3599816349">
        <ele>29.4</ele>
        <time>2012-03-01T08:51:42Z</time>
      </trkpt>
      <trkpt lat="59.9986444354" lon="23.3601510331">
        <ele>29.4</ele>
        <time>2012-03-01T08:51:44Z</time>
      </trkpt>
      <trkpt lat="59.9986799747" lon="23.3603202637">
        <ele>29.2</ele>
        <time>2012-03-01T08:51:46Z</time>
      </trkpt>
      <trkpt lat="59.9987215489" lon="23.3606200842">
        <ele>28.6</ele>
        <time>2012-03-01T08:51:50Z</time>
      </trkpt>
      <trkpt lat="59.9987197887" lon="23.3606520193">
        <ele>28.6</ele>
        <time>2012-03-01T08:51:51Z</time>
      </trkpt>
      <trkpt lat="59.9986606963" lon="23.3609102656">
        <ele>28</ele>
        <time>2012-03-01T08:51:56Z</time>
      </trkpt>
      <trkpt lat="59.9986086447" lon="23.3610511653">
        <ele>27.6</ele>
        <time>2012-03-01T08:52:00Z</time>
      </trkpt>
      <trkpt lat="59.9984761269" lon="23.3612330526">
        <ele>27.4</ele>
        <time>2012-03-01T08:52:05Z</time>
      </trkpt>
      <trkpt lat="59.9983689224" lon="23.3613527461">
        <ele>27.2</ele>
        <time>2012-03-01T08:52:09Z</time>
      </trkpt>
      <trkpt lat="59.9982137734" lon="23.3615846733">
        <ele>27.6</ele>
        <time>2012-03-01T08:52:14Z</time>
      </trkpt>
      <trkpt lat="59.9981266855" lon="23.3617499643">
        <ele>28.2</ele>
        <time>2012-03-01T08:52:18Z</time>
      </trkpt>
      <trkpt lat="59.9980184751" lon="23.3619175185">
        <ele>28.4</ele>
        <time>2012-03-01T08:52:22Z</time>
      </trkpt>
      <trkpt lat="59.9979115221" lon="23.3620597594">
        <ele>28.8</ele>
        <time>2012-03-01T08:52:26Z</time>
      </trkpt>
      <trkpt lat="59.9977964386" lon="23.3621584981">
        <ele>28.8</ele>
        <time>2012-03-01T08:52:30Z</time>
      </trkpt>
      <trkpt lat="59.9976783376" lon="23.3622617632">
        <ele>29</ele>
        <time>2012-03-01T08:52:33Z</time>
      </trkpt>
      <trkpt lat="59.9975967818" lon="23.362369722">
        <ele>29</ele>
        <time>2012-03-01T08:52:37Z</time>
      </trkpt>
      <trkpt lat="59.9974744898" lon="23.3625381982">
        <ele>29</ele>
        <time>2012-03-01T08:52:42Z</time>
      </trkpt>
      <trkpt lat="59.9973663633" lon="23.3627030702">
        <ele>29</ele>
        <time>2012-03-01T08:52:47Z</time>
      </trkpt>
      <trkpt lat="59.9972365277" lon="23.3628259488">
        <ele>29.6</ele>
        <time>2012-03-01T08:52:52Z</time>
      </trkpt>
      <trkpt lat="59.9970759305" lon="23.3628614881">
        <ele>30.2</ele>
        <time>2012-03-01T08:52:57Z</time>
      </trkpt>
      <trkpt lat="59.9970091267" lon="23.362892082">
        <ele>30.4</ele>
        <time>2012-03-01T08:52:59Z</time>
      </trkpt>
      <trkpt lat="59.9968806322" lon="23.3628963568">
        <ele>30.8</ele>
        <time>2012-03-01T08:53:03Z</time>
      </trkpt>
      <trkpt lat="59.9968533072" lon="23.362895351">
        <ele>30.8</ele>
        <time>2012-03-01T08:53:04Z</time>
      </trkpt>
      <trkpt lat="59.9966966495" lon="23.3629251905">
        <ele>31</ele>
        <time>2012-03-01T08:53:10Z</time>
      </trkpt>
      <trkpt lat="59.9965444342" lon="23.363004148">
        <ele>31</ele>
        <time>2012-03-01T08:53:16Z</time>
      </trkpt>
      <trkpt lat="59.9964097371" lon="23.3631390128">
        <ele>31.2</ele>
        <time>2012-03-01T08:53:21Z</time>
      </trkpt>
      <trkpt lat="59.9963041251" lon="23.3632866181">
        <ele>31.2</ele>
        <time>2012-03-01T08:53:25Z</time>
      </trkpt>
      <trkpt lat="59.9962744532" lon="23.3633272703">
        <ele>31.2</ele>
        <time>2012-03-01T08:53:26Z</time>
      </trkpt>
      <trkpt lat="59.9962264249" lon="23.3634845147">
        <ele>31.2</ele>
        <time>2012-03-01T08:53:29Z</time>
      </trkpt>
      <trkpt lat="59.9960117645" lon="23.3638871812">
        <ele>31.2</ele>
        <time>2012-03-01T08:53:34Z</time>
      </trkpt>
      <trkpt lat="59.9958528436" lon="23.3641125705">
        <ele>31.2</ele>
        <time>2012-03-01T08:53:38Z</time>
      </trkpt>
      <trkpt lat="59.9955932562" lon="23.3643155801">
        <ele>31.2</ele>
        <time>2012-03-01T08:53:43Z</time>
      </trkpt>
      <trkpt lat="59.9954516021" lon="23.3644038415">
        <ele>31.2</ele>
        <time>2012-03-01T08:53:46Z</time>
      </trkpt>
      <trkpt lat="59.9953987961" lon="23.3644298254">
        <ele>31.2</ele>
        <time>2012-03-01T08:53:47Z</time>
      </trkpt>
      <trkpt lat="59.9953561323" lon="23.3644454996">
        <ele>31.2</ele>
        <time>2012-03-01T08:53:48Z</time>
      </trkpt>
      <trkpt lat="59.9951806991" lon="23.3645454118">
        <ele>31.2</ele>
        <time>2012-03-01T08:53:52Z</time>
      </trkpt>
      <trkpt lat="59.9950134802" lon="23.3646666141">
        <ele>31</ele>
        <time>2012-03-01T08:53:56Z</time>
      </trkpt>
      <trkpt lat="59.9948647853" lon="23.364836599">
        <ele>30</ele>
        <time>2012-03-01T08:54:02Z</time>
      </trkpt>
      <trkpt lat="59.9948506199" lon="23.3648609065">
        <ele>30</ele>
        <time>2012-03-01T08:54:03Z</time>
      </trkpt>
      <trkpt lat="59.9947734226" lon="23.3650068354">
        <ele>29.6</ele>
        <time>2012-03-01T08:54:08Z</time>
      </trkpt>
      <trkpt lat="59.9947586704" lon="23.3650367588">
        <ele>29.6</ele>
        <time>2012-03-01T08:54:09Z</time>
      </trkpt>
      <trkpt lat="59.994730172" lon="23.3651132855">
        <ele>29</ele>
        <time>2012-03-01T08:54:11Z</time>
      </trkpt>
      <trkpt lat="59.9946765278" lon="23.3652897245">
        <ele>28.2</ele>
        <time>2012-03-01T08:54:16Z</time>
      </trkpt>
      <trkpt lat="59.9946621947" lon="23.3653245932">
        <ele>28</ele>
        <time>2012-03-01T08:54:17Z</time>
      </trkpt>
      <trkpt lat="59.9946073771" lon="23.3654936562">
        <ele>27.6</ele>
        <time>2012-03-01T08:54:22Z</time>
      </trkpt>
      <trkpt lat="59.9945339517" lon="23.365674789">
        <ele>27.4</ele>
        <time>2012-03-01T08:54:27Z</time>
      </trkpt>
      <trkpt lat="59.9944872645" lon="23.365816946">
        <ele>27.2</ele>
        <time>2012-03-01T08:54:30Z</time>
      </trkpt>
      <trkpt lat="59.9944634599" lon="23.3658846718">
        <ele>27.2</ele>
        <time>2012-03-01T08:54:31Z</time>
      </trkpt>
      <trkpt lat="59.994399506" lon="23.3661214605">
        <ele>27.2</ele>
        <time>2012-03-01T08:54:37Z</time>
      </trkpt>
      <trkpt lat="59.9943774616" lon="23.3661862526">
        <ele>27.2</ele>
        <time>2012-03-01T08:54:38Z</time>
      </trkpt>
      <trkpt lat="59.9943141783" lon="23.36640787">
        <ele>27</ele>
        <time>2012-03-01T08:54:43Z</time>
      </trkpt>
      <trkpt lat="59.9942186246" lon="23.3668076866">
        <ele>27</ele>
        <time>2012-03-01T08:54:50Z</time>
      </trkpt>
      <trkpt lat="59.9941519885" lon="23.3670693695">
        <ele>27</ele>
        <time>2012-03-01T08:54:55Z</time>
      </trkpt>
      <trkpt lat="59.9940664931" lon="23.3673504146">
        <ele>27</ele>
        <time>2012-03-01T08:54:59Z</time>
      </trkpt>
      <trkpt lat="59.9939915589" lon="23.3676450384">
        <ele>27</ele>
        <time>2012-03-01T08:55:02Z</time>
      </trkpt>
      <trkpt lat="59.9938941613" lon="23.3680965714">
        <ele>27</ele>
        <time>2012-03-01T08:55:06Z</time>
      </trkpt>
      <trkpt lat="59.9938492343" lon="23.3683699051">
        <ele>27</ele>
        <time>2012-03-01T08:55:09Z</time>
      </trkpt>
      <trkpt lat="59.9938140303" lon="23.368688585">
        <ele>27</ele>
        <time>2012-03-01T08:55:12Z</time>
      </trkpt>
      <trkpt lat="59.9938341468" lon="23.3692040718">
        <ele>27</ele>
        <time>2012-03-01T08:55:17Z</time>
      </trkpt>
      <trkpt lat="59.9938270222" lon="23.3693678542">
        <ele>27</ele>
        <time>2012-03-01T08:55:19Z</time>
      </trkpt>
      <trkpt lat="59.9937736295" lon="23.3695349054">
        <ele>27</ele>
        <time>2012-03-01T08:55:21Z</time>
      </trkpt>
      <trkpt lat="59.9936384295" lon="23.369953749">
        <ele>27</ele>
        <time>2012-03-01T08:55:28Z</time>
      </trkpt>
      <trkpt lat="59.9934014732" lon="23.3702941379">
        <ele>26.2</ele>
        <time>2012-03-01T08:55:37Z</time>
      </trkpt>
      <trkpt lat="59.9932522754" lon="23.3703860874">
        <ele>25.6</ele>
        <time>2012-03-01T08:55:43Z</time>
      </trkpt>
      <trkpt lat="59.9931143931" lon="23.370470074">
        <ele>25.4</ele>
        <time>2012-03-01T08:55:48Z</time>
      </trkpt>
      <trkpt lat="59.9929856471" lon="23.3705365425">
        <ele>25.2</ele>
        <time>2012-03-01T08:55:53Z</time>
      </trkpt>
      <trkpt lat="59.9928228706" lon="23.3707025879">
        <ele>25</ele>
        <time>2012-03-01T08:55:58Z</time>
      </trkpt>
      <trkpt lat="59.9926982318" lon="23.3709032506">
        <ele>25</ele>
        <time>2012-03-01T08:56:02Z</time>
      </trkpt>
      <trkpt lat="59.9926917777" lon="23.3709682941">
        <ele>25</ele>
        <time>2012-03-01T08:56:03Z</time>
      </trkpt>
      <trkpt lat="59.9926531371" lon="23.3710798572">
        <ele>25</ele>
        <time>2012-03-01T08:56:05Z</time>
      </trkpt>
      <trkpt lat="59.992541574" lon="23.3714296339">
        <ele>25</ele>
        <time>2012-03-01T08:56:11Z</time>
      </trkpt>
      <trkpt lat="59.9924599343" lon="23.3717183904">
        <ele>25</ele>
        <time>2012-03-01T08:56:16Z</time>
      </trkpt>
      <trkpt lat="59.992376283" lon="23.3719780616">
        <ele>25</ele>
        <time>2012-03-01T08:56:21Z</time>
      </trkpt>
      <trkpt lat="59.9922904523" lon="23.3722304406">
        <ele>25</ele>
        <time>2012-03-01T08:56:27Z</time>
      </trkpt>
      <trkpt lat="59.9922027777" lon="23.3724104839">
        <ele>25</ele>
        <time>2012-03-01T08:56:32Z</time>
      </trkpt>
      <trkpt lat="59.9921089842" lon="23.3726093863">
        <ele>25</ele>
        <time>2012-03-01T08:56:36Z</time>
      </trkpt>
      <trkpt lat="59.9920072279" lon="23.3729102127">
        <ele>25</ele>
        <time>2012-03-01T08:56:41Z</time>
      </trkpt>
      <trkpt lat="59.9918965868" lon="23.3732418007">
        <ele>25</ele>
        <time>2012-03-01T08:56:45Z</time>
      </trkpt>
      <trkpt lat="59.9918556832" lon="23.3733583091">
        <ele>25</ele>
        <time>2012-03-01T08:56:46Z</time>
      </trkpt>
      <trkpt lat="59.9918044698" lon="23.3735850395">
        <ele>25</ele>
        <time>2012-03-01T08:56:51Z</time>
      </trkpt>
      <trkpt lat="59.9917469699" lon="23.3737489895">
        <ele>25</ele>
        <time>2012-03-01T08:56:55Z</time>
      </trkpt>
      <trkpt lat="59.9917203155" lon="23.3737935812">
        <ele>25</ele>
        <time>2012-03-01T08:56:57Z</time>
      </trkpt>
      <trkpt lat="59.9916432858" lon="23.3739219919">
        <ele>25</ele>
        <time>2012-03-01T08:57:01Z</time>
      </trkpt>
      <trkpt lat="59.991535327" lon="23.3740685913">
        <ele>25.4</ele>
        <time>2012-03-01T08:57:05Z</time>
      </trkpt>
      <trkpt lat="59.9914486581" lon="23.3741990137">
        <ele>25.8</ele>
        <time>2012-03-01T08:57:09Z</time>
      </trkpt>
      <trkpt lat="59.9913201636" lon="23.3744491296">
        <ele>26.4</ele>
        <time>2012-03-01T08:57:14Z</time>
      </trkpt>
      <trkpt lat="59.9912005539" lon="23.3746830684">
        <ele>26.4</ele>
        <time>2012-03-01T08:57:17Z</time>
      </trkpt>
      <trkpt lat="59.9911534476" lon="23.3747468547">
        <ele>26.6</ele>
        <time>2012-03-01T08:57:18Z</time>
      </trkpt>
      <trkpt lat="59.990902242" lon="23.3749411471">
        <ele>26.6</ele>
        <time>2012-03-01T08:57:23Z</time>
      </trkpt>
      <trkpt lat="59.9908442393" lon="23.3749750938">
        <ele>26.8</ele>
        <time>2012-03-01T08:57:25Z</time>
      </trkpt>
      <trkpt lat="59.9907933612" lon="23.3750081185">
        <ele>26.8</ele>
        <time>2012-03-01T08:57:27Z</time>
      </trkpt>
      <trkpt lat="59.9906146591" lon="23.3750543866">
        <ele>26.8</ele>
        <time>2012-03-01T08:57:31Z</time>
      </trkpt>
      <trkpt lat="59.9904971448" lon="23.3750962123">
        <ele>26.8</ele>
        <time>2012-03-01T08:57:34Z</time>
      </trkpt>
      <trkpt lat="59.9903702429" lon="23.3752240362">
        <ele>26.8</ele>
        <time>2012-03-01T08:57:38Z</time>
      </trkpt>
      <trkpt lat="59.9902367192" lon="23.3753484236">
        <ele>27</ele>
        <time>2012-03-01T08:57:43Z</time>
      </trkpt>
      <trkpt lat="59.9901176124" lon="23.3754422171">
        <ele>27</ele>
        <time>2012-03-01T08:57:48Z</time>
      </trkpt>
      <trkpt lat="59.9900262497" lon="23.3754971185">
        <ele>27</ele>
        <time>2012-03-01T08:57:52Z</time>
      </trkpt>
      <trkpt lat="59.9899434365" lon="23.3755949353">
        <ele>27</ele>
        <time>2012-03-01T08:57:56Z</time>
      </trkpt>
      <trkpt lat="59.989722322" lon="23.3758904811">
        <ele>27</ele>
        <time>2012-03-01T08:58:03Z</time>
      </trkpt>
      <trkpt lat="59.9897006129" lon="23.375940521">
        <ele>27</ele>
        <time>2012-03-01T08:58:04Z</time>
      </trkpt>
      <trkpt lat="59.9896193084" lon="23.3761511582">
        <ele>27</ele>
        <time>2012-03-01T08:58:09Z</time>
      </trkpt>
      <trkpt lat="59.9895564442" lon="23.3763033735">
        <ele>27</ele>
        <time>2012-03-01T08:58:13Z</time>
      </trkpt>
      <trkpt lat="59.9895283648" lon="23.3763717698">
        <ele>27</ele>
        <time>2012-03-01T08:58:15Z</time>
      </trkpt>
      <trkpt lat="59.9894849466" lon="23.3764303593">
        <ele>27</ele>
        <time>2012-03-01T08:58:16Z</time>
      </trkpt>
      <trkpt lat="59.9893774906" lon="23.3766088937">
        <ele>27</ele>
        <time>2012-03-01T08:58:20Z</time>
      </trkpt>
      <trkpt lat="59.9893318931" lon="23.3767015137">
        <ele>27</ele>
        <time>2012-03-01T08:58:22Z</time>
      </trkpt>
      <trkpt lat="59.9892116966" lon="23.3770921103">
        <ele>27</ele>
        <time>2012-03-01T08:58:29Z</time>
      </trkpt>
      <trkpt lat="59.9890801846" lon="23.3772975507">
        <ele>27</ele>
        <time>2012-03-01T08:58:33Z</time>
      </trkpt>
      <trkpt lat="59.9890023168" lon="23.3777372651">
        <ele>27</ele>
        <time>2012-03-01T08:58:41Z</time>
      </trkpt>
      <trkpt lat="59.9890024006" lon="23.3778002132">
        <ele>27</ele>
        <time>2012-03-01T08:58:42Z</time>
      </trkpt>
      <trkpt lat="59.9890086032" lon="23.3781806676">
        <ele>27</ele>
        <time>2012-03-01T08:58:47Z</time>
      </trkpt>
      <trkpt lat="59.9890262052" lon="23.3784119243">
        <ele>27</ele>
        <time>2012-03-01T08:58:50Z</time>
      </trkpt>
      <trkpt lat="59.989006843" lon="23.3786793907">
        <ele>27</ele>
        <time>2012-03-01T08:58:54Z</time>
      </trkpt>
      <trkpt lat="59.988901734" lon="23.3789228849">
        <ele>27</ele>
        <time>2012-03-01T08:58:59Z</time>
      </trkpt>
      <trkpt lat="59.9887602475" lon="23.379112232">
        <ele>27</ele>
        <time>2012-03-01T08:59:04Z</time>
      </trkpt>
      <trkpt lat="59.9885822159" lon="23.3793383757">
        <ele>27</ele>
        <time>2012-03-01T08:59:09Z</time>
      </trkpt>
      <trkpt lat="59.9885282365" lon="23.3794844722">
        <ele>27</ele>
        <time>2012-03-01T08:59:11Z</time>
      </trkpt>
      <trkpt lat="59.9885311702" lon="23.3798006374">
        <ele>27</ele>
        <time>2012-03-01T08:59:15Z</time>
      </trkpt>
      <trkpt lat="59.9885848143" lon="23.3800057425">
        <ele>27</ele>
        <time>2012-03-01T08:59:18Z</time>
      </trkpt>
      <trkpt lat="59.9886299928" lon="23.3801628193">
        <ele>27</ele>
        <time>2012-03-01T08:59:21Z</time>
      </trkpt>
      <trkpt lat="59.988680368" lon="23.3802995281">
        <ele>27</ele>
        <time>2012-03-01T08:59:24Z</time>
      </trkpt>
      <trkpt lat="59.9887222775" lon="23.3804671661">
        <ele>27</ele>
        <time>2012-03-01T08:59:27Z</time>
      </trkpt>
      <trkpt lat="59.9887335092" lon="23.3805338022">
        <ele>27</ele>
        <time>2012-03-01T08:59:28Z</time>
      </trkpt>
      <trkpt lat="59.9887904223" lon="23.380739997">
        <ele>27</ele>
        <time>2012-03-01T08:59:32Z</time>
      </trkpt>
      <trkpt lat="59.9888375286" lon="23.3809369716">
        <ele>27</ele>
        <time>2012-03-01T08:59:36Z</time>
      </trkpt>
      <trkpt lat="59.9888454076" lon="23.3809559147">
        <ele>27</ele>
        <time>2012-03-01T08:59:37Z</time>
      </trkpt>
      <trkpt lat="59.9888663624" lon="23.3810337826">
        <ele>27</ele>
        <time>2012-03-01T08:59:38Z</time>
      </trkpt>
      <trkpt lat="59.9889138039" lon="23.3812916098">
        <ele>27</ele>
        <time>2012-03-01T08:59:44Z</time>
      </trkpt>
      <trkpt lat="59.9889294781" lon="23.3813399734">
        <ele>27</ele>
        <time>2012-03-01T08:59:45Z</time>
      </trkpt>
      <trkpt lat="59.9889619998" lon="23.3815182564">
        <ele>27</ele>
        <time>2012-03-01T08:59:49Z</time>
      </trkpt>
      <trkpt lat="59.9889942702" lon="23.3817149796">
        <ele>27</ele>
        <time>2012-03-01T08:59:53Z</time>
      </trkpt>
      <trkpt lat="59.9890442263" lon="23.3819457333">
        <ele>27</ele>
        <time>2012-03-01T08:59:58Z</time>
      </trkpt>
      <trkpt lat="59.9890797655" lon="23.3821702006">
        <ele>27</ele>
        <time>2012-03-01T09:00:02Z</time>
      </trkpt>
      <trkpt lat="59.9891205016" lon="23.3824571968">
        <ele>27</ele>
        <time>2012-03-01T09:00:07Z</time>
      </trkpt>
      <trkpt lat="59.9891303922" lon="23.3825116792">
        <ele>27</ele>
        <time>2012-03-01T09:00:08Z</time>
      </trkpt>
      <trkpt lat="59.9891667697" lon="23.3826791495">
        <ele>27</ele>
        <time>2012-03-01T09:00:11Z</time>
      </trkpt>
      <trkpt lat="59.9892577133" lon="23.3830695784">
        <ele>27</ele>
        <time>2012-03-01T09:00:17Z</time>
      </trkpt>
      <trkpt lat="59.9892875528" lon="23.3833569938">
        <ele>27</ele>
        <time>2012-03-01T09:00:21Z</time>
      </trkpt>
      <trkpt lat="59.9893682705" lon="23.3836701416">
        <ele>27</ele>
        <time>2012-03-01T09:00:25Z</time>
      </trkpt>
      <trkpt lat="59.9893923266" lon="23.3837425612">
        <ele>27</ele>
        <time>2012-03-01T09:00:26Z</time>
      </trkpt>
      <trkpt lat="59.9894250998" lon="23.3839095286">
        <ele>27</ele>
        <time>2012-03-01T09:00:28Z</time>
      </trkpt>
      <trkpt lat="59.9894504131" lon="23.3840447287">
        <ele>27</ele>
        <time>2012-03-01T09:00:30Z</time>
      </trkpt>
      <trkpt lat="59.9895399318" lon="23.3842855407">
        <ele>27</ele>
        <time>2012-03-01T09:00:33Z</time>
      </trkpt>
      <trkpt lat="59.9896291153" lon="23.3846054778">
        <ele>26.4</ele>
        <time>2012-03-01T09:00:36Z</time>
      </trkpt>
      <trkpt lat="59.98967136" lon="23.3847608782">
        <ele>26.2</ele>
        <time>2012-03-01T09:00:38Z</time>
      </trkpt>
      <trkpt lat="59.9897214" lon="23.3850216391">
        <ele>25.8</ele>
        <time>2012-03-01T09:00:41Z</time>
      </trkpt>
      <trkpt lat="59.9897794865" lon="23.3853072943">
        <ele>25.4</ele>
        <time>2012-03-01T09:00:45Z</time>
      </trkpt>
      <trkpt lat="59.9898235753" lon="23.3854386387">
        <ele>25.4</ele>
        <time>2012-03-01T09:00:47Z</time>
      </trkpt>
      <trkpt lat="59.9898410097" lon="23.3854651255">
        <ele>25.4</ele>
        <time>2012-03-01T09:00:48Z</time>
      </trkpt>
      <trkpt lat="59.989852912" lon="23.3858272235">
        <ele>24.4</ele>
        <time>2012-03-01T09:00:53Z</time>
      </trkpt>
      <trkpt lat="59.9898387466" lon="23.3861280499">
        <ele>23.8</ele>
        <time>2012-03-01T09:00:58Z</time>
      </trkpt>
      <trkpt lat="59.9898023691" lon="23.3863145472">
        <ele>23.4</ele>
        <time>2012-03-01T09:01:01Z</time>
      </trkpt>
      <trkpt lat="59.9897838451" lon="23.3864282896">
        <ele>23.4</ele>
        <time>2012-03-01T09:01:03Z</time>
      </trkpt>
      <trkpt lat="59.9897368227" lon="23.3866700236">
        <ele>23.2</ele>
        <time>2012-03-01T09:01:07Z</time>
      </trkpt>
      <trkpt lat="59.9897171252" lon="23.38692081">
        <ele>23</ele>
        <time>2012-03-01T09:01:11Z</time>
      </trkpt>
      <trkpt lat="59.9896944941" lon="23.3872330358">
        <ele>23</ele>
        <time>2012-03-01T09:01:16Z</time>
      </trkpt>
      <trkpt lat="59.9896607988" lon="23.3875207026">
        <ele>23</ele>
        <time>2012-03-01T09:01:21Z</time>
      </trkpt>
      <trkpt lat="59.9896359046" lon="23.3877911865">
        <ele>23</ele>
        <time>2012-03-01T09:01:26Z</time>
      </trkpt>
      <trkpt lat="59.9896295344" lon="23.3878429867">
        <ele>23.2</ele>
        <time>2012-03-01T09:01:27Z</time>
      </trkpt>
      <trkpt lat="59.9896108427" lon="23.3881186674">
        <ele>23.8</ele>
        <time>2012-03-01T09:01:32Z</time>
      </trkpt>
      <trkpt lat="59.9895852779" lon="23.3884134588">
        <ele>24.4</ele>
        <time>2012-03-01T09:01:38Z</time>
      </trkpt>
      <trkpt lat="59.989541692" lon="23.3886596352">
        <ele>24.6</ele>
        <time>2012-03-01T09:01:43Z</time>
      </trkpt>
      <trkpt lat="59.989478744" lon="23.3889240003">
        <ele>24.8</ele>
        <time>2012-03-01T09:01:48Z</time>
      </trkpt>
      <trkpt lat="59.9894244293" lon="23.389139499">
        <ele>24.8</ele>
        <time>2012-03-01T09:01:52Z</time>
      </trkpt>
      <trkpt lat="59.9893658398" lon="23.3894464441">
        <ele>25.2</ele>
        <time>2012-03-01T09:01:57Z</time>
      </trkpt>
      <trkpt lat="59.9893150455" lon="23.3897604301">
        <ele>25.8</ele>
        <time>2012-03-01T09:02:01Z</time>
      </trkpt>
      <trkpt lat="59.9892702861" lon="23.390019347">
        <ele>26.2</ele>
        <time>2012-03-01T09:02:04Z</time>
      </trkpt>
      <trkpt lat="59.9892449728" lon="23.3901040042">
        <ele>26.2</ele>
        <time>2012-03-01T09:02:05Z</time>
      </trkpt>
      <trkpt lat="59.9891432165" lon="23.3904671919">
        <ele>26.6</ele>
        <time>2012-03-01T09:02:09Z</time>
      </trkpt>
      <trkpt lat="59.9891206692" lon="23.3905672718">
        <ele>26.6</ele>
        <time>2012-03-01T09:02:10Z</time>
      </trkpt>
      <trkpt lat="59.9890301447" lon="23.3909585389">
        <ele>26.8</ele>
        <time>2012-03-01T09:02:14Z</time>
      </trkpt>
      <trkpt lat="59.9889983773" lon="23.3910514104">
        <ele>26.8</ele>
        <time>2012-03-01T09:02:15Z</time>
      </trkpt>
      <trkpt lat="59.9889380276" lon="23.3912842595">
        <ele>26.8</ele>
        <time>2012-03-01T09:02:18Z</time>
      </trkpt>
      <trkpt lat="59.9888838805" lon="23.3915947251">
        <ele>27</ele>
        <time>2012-03-01T09:02:22Z</time>
      </trkpt>
      <trkpt lat="59.9888743252" lon="23.3917479463">
        <ele>27</ele>
        <time>2012-03-01T09:02:24Z</time>
      </trkpt>
      <trkpt lat="59.9888672005" lon="23.3919655404">
        <ele>27</ele>
        <time>2012-03-01T09:02:27Z</time>
      </trkpt>
      <trkpt lat="59.9888617523" lon="23.3923590706">
        <ele>27</ele>
        <time>2012-03-01T09:02:32Z</time>
      </trkpt>
      <trkpt lat="59.988858651" lon="23.3924965337">
        <ele>27</ele>
        <time>2012-03-01T09:02:34Z</time>
      </trkpt>
      <trkpt lat="59.988821603" lon="23.3928032275">
        <ele>27</ele>
        <time>2012-03-01T09:02:39Z</time>
      </trkpt>
      <trkpt lat="59.9888113771" lon="23.3930458835">
        <ele>27</ele>
        <time>2012-03-01T09:02:43Z</time>
      </trkpt>
      <trkpt lat="59.9888138078" lon="23.3933520743">
        <ele>26.2</ele>
        <time>2012-03-01T09:02:48Z</time>
      </trkpt>
      <trkpt lat="59.9888133887" lon="23.3936573431">
        <ele>25.6</ele>
        <time>2012-03-01T09:02:53Z</time>
      </trkpt>
      <trkpt lat="59.9887980499" lon="23.3939321018">
        <ele>25.4</ele>
        <time>2012-03-01T09:02:57Z</time>
      </trkpt>
      <trkpt lat="59.9887827948" lon="23.394193617">
        <ele>25.2</ele>
        <time>2012-03-01T09:03:02Z</time>
      </trkpt>
      <trkpt lat="59.9887802802" lon="23.3942654499">
        <ele>25.2</ele>
        <time>2012-03-01T09:03:04Z</time>
      </trkpt>
      <trkpt lat="59.9887782686" lon="23.3943156575">
        <ele>25</ele>
        <time>2012-03-01T09:03:12Z</time>
      </trkpt>
      <trkpt lat="59.9887800288" lon="23.3943418928">
        <ele>25</ele>
        <time>2012-03-01T09:03:18Z</time>
      </trkpt>
      <trkpt lat="59.9887532067" lon="23.394418671">
        <ele>25</ele>
        <time>2012-03-01T09:03:24Z</time>
      </trkpt>
      <trkpt lat="59.9887401309" lon="23.3944764223">
        <ele>25</ele>
        <time>2012-03-01T09:03:26Z</time>
      </trkpt>
      <trkpt lat="59.9887290668" lon="23.3945938528">
        <ele>25.8</ele>
        <time>2012-03-01T09:03:31Z</time>
      </trkpt>
      <trkpt lat="59.988731749" lon="23.3946872271">
        <ele>26.2</ele>
        <time>2012-03-01T09:03:36Z</time>
      </trkpt>
      <trkpt lat="59.9887865667" lon="23.394592344">
        <ele>27.8</ele>
        <time>2012-03-01T09:03:50Z</time>
      </trkpt>
      <trkpt lat="59.9888607465" lon="23.3945347604">
        <ele>28.2</ele>
        <time>2012-03-01T09:03:55Z</time>
      </trkpt>
      <trkpt lat="59.9889696274" lon="23.3945002269">
        <ele>28.6</ele>
        <time>2012-03-01T09:04:00Z</time>
      </trkpt>
      <trkpt lat="59.9890357606" lon="23.3944806133">
        <ele>29</ele>
        <time>2012-03-01T09:04:04Z</time>
      </trkpt>
      <trkpt lat="59.9891023967" lon="23.3944934376">
        <ele>29.8</ele>
        <time>2012-03-01T09:04:09Z</time>
      </trkpt>
      <trkpt lat="59.989169871" lon="23.3944864806">
        <ele>30.4</ele>
        <time>2012-03-01T09:04:15Z</time>
      </trkpt>
      <trkpt lat="59.9892381834" lon="23.3944247898">
        <ele>30.6</ele>
        <time>2012-03-01T09:04:21Z</time>
      </trkpt>
      <trkpt lat="59.9893038975" lon="23.3943328404">
        <ele>30.8</ele>
        <time>2012-03-01T09:04:25Z</time>
      </trkpt>
      <trkpt lat="59.9893836094" lon="23.3942094588">
        <ele>30.8</ele>
        <time>2012-03-01T09:04:29Z</time>
      </trkpt>
      <trkpt lat="59.9894069111" lon="23.394154725">
        <ele>30.8</ele>
        <time>2012-03-01T09:04:31Z</time>
      </trkpt>
      <trkpt lat="59.9895600484" lon="23.394065374">
        <ele>31</ele>
        <time>2012-03-01T09:04:37Z</time>
      </trkpt>
      <trkpt lat="59.9896743775" lon="23.3939795433">
        <ele>31</ele>
        <time>2012-03-01T09:04:42Z</time>
      </trkpt>
      <trkpt lat="59.9897784807" lon="23.3938222989">
        <ele>31</ele>
        <time>2012-03-01T09:04:47Z</time>
      </trkpt>
      <trkpt lat="59.9899238229" lon="23.3935613703">
        <ele>31</ele>
        <time>2012-03-01T09:04:54Z</time>
      </trkpt>
      <trkpt lat="59.990014515" lon="23.3935337939">
        <ele>31</ele>
        <time>2012-03-01T09:04:58Z</time>
      </trkpt>
      <trkpt lat="59.9901750284" lon="23.3936529007">
        <ele>31</ele>
        <time>2012-03-01T09:05:04Z</time>
      </trkpt>
      <trkpt lat="59.9902796345" lon="23.393755998">
        <ele>31</ele>
        <time>2012-03-01T09:05:09Z</time>
      </trkpt>
      <trkpt lat="59.9903534791" lon="23.3938502944">
        <ele>31</ele>
        <time>2012-03-01T09:05:14Z</time>
      </trkpt>
      <trkpt lat="59.9903744338" lon="23.3938809722">
        <ele>31</ele>
        <time>2012-03-01T09:05:16Z</time>
      </trkpt>
      <trkpt lat="59.9903963106" lon="23.3940572435">
        <ele>31</ele>
        <time>2012-03-01T09:05:21Z</time>
      </trkpt>
      <trkpt lat="59.9903954724" lon="23.3941065291">
        <ele>31</ele>
        <time>2012-03-01T09:05:22Z</time>
      </trkpt>
      <trkpt lat="59.9903493719" lon="23.3946884844">
        <ele>31</ele>
        <time>2012-03-01T09:05:32Z</time>
      </trkpt>
      <trkpt lat="59.9902709173" lon="23.3949718764">
        <ele>31</ele>
        <time>2012-03-01T09:05:37Z</time>
      </trkpt>
      <trkpt lat="59.9902250683" lon="23.3951805019">
        <ele>31</ele>
        <time>2012-03-01T09:05:40Z</time>
      </trkpt>
      <trkpt lat="59.9901829074" lon="23.3955484673">
        <ele>31.8</ele>
        <time>2012-03-01T09:05:45Z</time>
      </trkpt>
      <trkpt lat="59.9901991683" lon="23.3956920493">
        <ele>32</ele>
        <time>2012-03-01T09:05:47Z</time>
      </trkpt>
      <trkpt lat="59.9902739348" lon="23.3959032732">
        <ele>32.4</ele>
        <time>2012-03-01T09:05:51Z</time>
      </trkpt>
      <trkpt lat="59.9902928779" lon="23.3959538999">
        <ele>32.4</ele>
        <time>2012-03-01T09:05:52Z</time>
      </trkpt>
      <trkpt lat="59.9903538981" lon="23.3961133236">
        <ele>32.6</ele>
        <time>2012-03-01T09:05:55Z</time>
      </trkpt>
      <trkpt lat="59.9903742662" lon="23.3963521239">
        <ele>32.8</ele>
        <time>2012-03-01T09:05:59Z</time>
      </trkpt>
      <trkpt lat="59.9903555745" lon="23.3966091968">
        <ele>33</ele>
        <time>2012-03-01T09:06:03Z</time>
      </trkpt>
      <trkpt lat="59.9903455162" lon="23.3966689597">
        <ele>33</ele>
        <time>2012-03-01T09:06:04Z</time>
      </trkpt>
      <trkpt lat="59.9903001702" lon="23.3968623302">
        <ele>33</ele>
        <time>2012-03-01T09:06:08Z</time>
      </trkpt>
      <trkpt lat="59.9902910339" lon="23.3969102746">
        <ele>33</ele>
        <time>2012-03-01T09:06:09Z</time>
      </trkpt>
      <trkpt lat="59.990242838" lon="23.3970593886">
        <ele>33</ele>
        <time>2012-03-01T09:06:12Z</time>
      </trkpt>
      <trkpt lat="59.9901883556" lon="23.3971767352">
        <ele>33</ele>
        <time>2012-03-01T09:06:14Z</time>
      </trkpt>
      <trkpt lat="59.9900658961" lon="23.3974986002">
        <ele>33</ele>
        <time>2012-03-01T09:06:20Z</time>
      </trkpt>
      <trkpt lat="59.9900167781" lon="23.3976924736">
        <ele>33.2</ele>
        <time>2012-03-01T09:06:24Z</time>
      </trkpt>
      <trkpt lat="59.9900095697" lon="23.3979352972">
        <ele>33.2</ele>
        <time>2012-03-01T09:06:29Z</time>
      </trkpt>
      <trkpt lat="59.9900686621" lon="23.3982284961">
        <ele>33.2</ele>
        <time>2012-03-01T09:06:36Z</time>
      </trkpt>
      <trkpt lat="59.990136304" lon="23.3984159992">
        <ele>33.2</ele>
        <time>2012-03-01T09:06:42Z</time>
      </trkpt>
      <trkpt lat="59.9901721786" lon="23.3986840523">
        <ele>33.2</ele>
        <time>2012-03-01T09:06:46Z</time>
      </trkpt>
      <trkpt lat="59.9901576779" lon="23.3988734833">
        <ele>33.2</ele>
        <time>2012-03-01T09:06:48Z</time>
      </trkpt>
      <trkpt lat="59.9900049597" lon="23.3992104356">
        <ele>33.2</ele>
        <time>2012-03-01T09:06:53Z</time>
      </trkpt>
      <trkpt lat="59.9898537502" lon="23.3994496551">
        <ele>33.2</ele>
        <time>2012-03-01T09:06:59Z</time>
      </trkpt>
      <trkpt lat="59.9897582803" lon="23.399568259">
        <ele>33.2</ele>
        <time>2012-03-01T09:07:04Z</time>
      </trkpt>
      <trkpt lat="59.9896618885" lon="23.3996822528">
        <ele>33.2</ele>
        <time>2012-03-01T09:07:09Z</time>
      </trkpt>
      <trkpt lat="59.9895716992" lon="23.399801611">
        <ele>33.2</ele>
        <time>2012-03-01T09:07:13Z</time>
      </trkpt>
      <trkpt lat="59.9894614773" lon="23.3999758707">
        <ele>33.2</ele>
        <time>2012-03-01T09:07:18Z</time>
      </trkpt>
      <trkpt lat="59.9894371697" lon="23.4000565046">
        <ele>33.2</ele>
        <time>2012-03-01T09:07:20Z</time>
      </trkpt>
      <trkpt lat="59.9893960146" lon="23.4002985739">
        <ele>33.2</ele>
        <time>2012-03-01T09:07:25Z</time>
      </trkpt>
      <trkpt lat="59.9893926619" lon="23.400319361">
        <ele>33.2</ele>
        <time>2012-03-01T09:07:26Z</time>
      </trkpt>
      <trkpt lat="59.9893548595" lon="23.4005286571">
        <ele>33.2</ele>
        <time>2012-03-01T09:07:30Z</time>
      </trkpt>
      <trkpt lat="59.9893483216" lon="23.4009041662">
        <ele>33.2</ele>
        <time>2012-03-01T09:07:34Z</time>
      </trkpt>
      <trkpt lat="59.9894417798" lon="23.4012884763">
        <ele>33.2</ele>
        <time>2012-03-01T09:07:37Z</time>
      </trkpt>
      <trkpt lat="59.9894654167" lon="23.4014049009">
        <ele>33.2</ele>
        <time>2012-03-01T09:07:38Z</time>
      </trkpt>
      <trkpt lat="59.9894865391" lon="23.4015862014">
        <ele>33.2</ele>
        <time>2012-03-01T09:07:40Z</time>
      </trkpt>
      <trkpt lat="59.9895084997" lon="23.4017120975">
        <ele>33.2</ele>
        <time>2012-03-01T09:07:45Z</time>
      </trkpt>
      <trkpt lat="59.9895083321" lon="23.4017311244">
        <ele>33.2</ele>
        <time>2012-03-01T09:07:46Z</time>
      </trkpt>
      <trkpt lat="59.9895034706" lon="23.4017760514">
        <ele>33.2</ele>
        <time>2012-03-01T09:07:48Z</time>
      </trkpt>
      <trkpt lat="59.9894916521" lon="23.4018099143">
        <ele>33.2</ele>
        <time>2012-03-01T09:07:59Z</time>
      </trkpt>
      <trkpt lat="59.9894613096" lon="23.4019081502">
        <ele>33.2</ele>
        <time>2012-03-01T09:08:07Z</time>
      </trkpt>
      <trkpt lat="59.9893545242" lon="23.4021880218">
        <ele>33.2</ele>
        <time>2012-03-01T09:08:12Z</time>
      </trkpt>
      <trkpt lat="59.9892168096" lon="23.4025534726">
        <ele>33.2</ele>
        <time>2012-03-01T09:08:16Z</time>
      </trkpt>
      <trkpt lat="59.9891820247" lon="23.4026590846">
        <ele>33.2</ele>
        <time>2012-03-01T09:08:17Z</time>
      </trkpt>
      <trkpt lat="59.9890840403" lon="23.4030581468">
        <ele>33.2</ele>
        <time>2012-03-01T09:08:20Z</time>
      </trkpt>
      <trkpt lat="59.9889964494" lon="23.4033717975">
        <ele>33.2</ele>
        <time>2012-03-01T09:08:22Z</time>
      </trkpt>
      <trkpt lat="59.9889535341" lon="23.4035209115">
        <ele>33.2</ele>
        <time>2012-03-01T09:08:23Z</time>
      </trkpt>
      <trkpt lat="59.9889438949" lon="23.4037816724">
        <ele>32.8</ele>
        <time>2012-03-01T09:08:26Z</time>
      </trkpt>
      <trkpt lat="59.98898044" lon="23.4037859472">
        <ele>32.6</ele>
        <time>2012-03-01T09:08:27Z</time>
      </trkpt>
      <trkpt lat="59.9890487525" lon="23.4037367455">
        <ele>32.2</ele>
        <time>2012-03-01T09:08:29Z</time>
      </trkpt>
      <trkpt lat="59.9891343317" lon="23.4035613123">
        <ele>32</ele>
        <time>2012-03-01T09:08:31Z</time>
      </trkpt>
      <trkpt lat="59.9892234313" lon="23.4034235977">
        <ele>31.6</ele>
        <time>2012-03-01T09:08:33Z</time>
      </trkpt>
      <trkpt lat="59.9892681906" lon="23.4033650082">
        <ele>31.4</ele>
        <time>2012-03-01T09:08:34Z</time>
      </trkpt>
      <trkpt lat="59.9893055739" lon="23.403323434">
        <ele>31.2</ele>
        <time>2012-03-01T09:08:35Z</time>
      </trkpt>
      <trkpt lat="59.9893979425" lon="23.4032672752">
        <ele>30.6</ele>
        <time>2012-03-01T09:08:38Z</time>
      </trkpt>
      <trkpt lat="59.9894962621" lon="23.4032681134">
        <ele>29.6</ele>
        <time>2012-03-01T09:08:41Z</time>
      </trkpt>
      <trkpt lat="59.9896564403" lon="23.4033830293">
        <ele>28.6</ele>
        <time>2012-03-01T09:08:45Z</time>
      </trkpt>
      <trkpt lat="59.9897590347" lon="23.403500795">
        <ele>28</ele>
        <time>2012-03-01T09:08:49Z</time>
      </trkpt>
      <trkpt lat="59.9898047999" lon="23.4035455543">
        <ele>27.6</ele>
        <time>2012-03-01T09:08:53Z</time>
      </trkpt>
      <trkpt lat="59.9898515709" lon="23.4035755615">
        <ele>27.2</ele>
        <time>2012-03-01T09:08:59Z</time>
      </trkpt>
      <trkpt lat="59.9899065561" lon="23.4036153755">
        <ele>27</ele>
        <time>2012-03-01T09:09:05Z</time>
      </trkpt>
      <trkpt lat="59.9899660676" lon="23.4036668404">
        <ele>26.8</ele>
        <time>2012-03-01T09:09:13Z</time>
      </trkpt>
      <trkpt lat="59.9900181192" lon="23.4036971829">
        <ele>27.4</ele>
        <time>2012-03-01T09:09:19Z</time>
      </trkpt>
      <trkpt lat="59.9900764573" lon="23.4037358235">
        <ele>28</ele>
        <time>2012-03-01T09:09:25Z</time>
      </trkpt>
      <trkpt lat="59.9901261619" lon="23.403799023">
        <ele>29.2</ele>
        <time>2012-03-01T09:09:30Z</time>
      </trkpt>
      <trkpt lat="59.9901876013" lon="23.4038561875">
        <ele>29.8</ele>
        <time>2012-03-01T09:09:34Z</time>
      </trkpt>
      <trkpt lat="59.9903005054" lon="23.4039469635">
        <ele>30</ele>
        <time>2012-03-01T09:09:38Z</time>
      </trkpt>
      <trkpt lat="59.9906049361" lon="23.4040565149">
        <ele>30.4</ele>
        <time>2012-03-01T09:09:45Z</time>
      </trkpt>
      <trkpt lat="59.9907085363" lon="23.4040631366">
        <ele>30.4</ele>
        <time>2012-03-01T09:09:47Z</time>
      </trkpt>
      <trkpt lat="59.9908589076" lon="23.404152823">
        <ele>30.6</ele>
        <time>2012-03-01T09:09:50Z</time>
      </trkpt>
      <trkpt lat="59.9909288127" lon="23.4045769471">
        <ele>30.6</ele>
        <time>2012-03-01T09:09:54Z</time>
      </trkpt>
      <trkpt lat="59.9909501865" lon="23.4048903464">
        <ele>30.6</ele>
        <time>2012-03-01T09:09:57Z</time>
      </trkpt>
      <trkpt lat="59.9909532878" lon="23.4053226009">
        <ele>30.6</ele>
        <time>2012-03-01T09:10:02Z</time>
      </trkpt>
      <trkpt lat="59.9909518629" lon="23.4053946853">
        <ele>30.6</ele>
        <time>2012-03-01T09:10:03Z</time>
      </trkpt>
      <trkpt lat="59.9909446545" lon="23.4056058253">
        <ele>30.4</ele>
        <time>2012-03-01T09:10:06Z</time>
      </trkpt>
      <trkpt lat="59.990999975" lon="23.4058781533">
        <ele>29.8</ele>
        <time>2012-03-01T09:10:10Z</time>
      </trkpt>
      <trkpt lat="59.9911414615" lon="23.4062540815">
        <ele>29.2</ele>
        <time>2012-03-01T09:10:16Z</time>
      </trkpt>
      <trkpt lat="59.9912122047" lon="23.4066045287">
        <ele>29</ele>
        <time>2012-03-01T09:10:21Z</time>
      </trkpt>
      <trkpt lat="59.9912759071" lon="23.4069547245">
        <ele>28.8</ele>
        <time>2012-03-01T09:10:25Z</time>
      </trkpt>
      <trkpt lat="59.991361654" lon="23.4073941037">
        <ele>28</ele>
        <time>2012-03-01T09:10:29Z</time>
      </trkpt>
      <trkpt lat="59.9915029728" lon="23.4083889514">
        <ele>26.6</ele>
        <time>2012-03-01T09:10:36Z</time>
      </trkpt>
      <trkpt lat="59.9914955129" lon="23.4085421725">
        <ele>26.4</ele>
        <time>2012-03-01T09:10:37Z</time>
      </trkpt>
      <trkpt lat="59.9914738876" lon="23.4086809768">
        <ele>25.8</ele>
        <time>2012-03-01T09:10:38Z</time>
      </trkpt>
      <trkpt lat="59.9913973609" lon="23.4088425798">
        <ele>25.2</ele>
        <time>2012-03-01T09:10:40Z</time>
      </trkpt>
      <trkpt lat="59.991252354" lon="23.4088389756">
        <ele>24.6</ele>
        <time>2012-03-01T09:10:44Z</time>
      </trkpt>
      <trkpt lat="59.9911919205" lon="23.4088025982">
        <ele>23.8</ele>
        <time>2012-03-01T09:10:46Z</time>
      </trkpt>
      <trkpt lat="59.991064348" lon="23.4087074636">
        <ele>22.6</ele>
        <time>2012-03-01T09:10:50Z</time>
      </trkpt>
      <trkpt lat="59.9910329997" lon="23.4086676496">
        <ele>22.2</ele>
        <time>2012-03-01T09:10:51Z</time>
      </trkpt>
      <trkpt lat="59.9908989731" lon="23.4084024463">
        <ele>20</ele>
        <time>2012-03-01T09:10:57Z</time>
      </trkpt>
      <trkpt lat="59.9908143159" lon="23.4082206429">
        <ele>18.8</ele>
        <time>2012-03-01T09:11:01Z</time>
      </trkpt>
      <trkpt lat="59.9907284853" lon="23.408055268">
        <ele>16.8</ele>
        <time>2012-03-01T09:11:06Z</time>
      </trkpt>
      <trkpt lat="59.990664699" lon="23.4079117698">
        <ele>15.8</ele>
        <time>2012-03-01T09:11:10Z</time>
      </trkpt>
      <trkpt lat="59.9906555627" lon="23.4078783261">
        <ele>15.8</ele>
        <time>2012-03-01T09:11:11Z</time>
      </trkpt>
      <trkpt lat="59.990641565" lon="23.4078183117">
        <ele>15.2</ele>
        <time>2012-03-01T09:11:14Z</time>
      </trkpt>
      <trkpt lat="59.9906367873" lon="23.4077927469">
        <ele>14.8</ele>
        <time>2012-03-01T09:11:19Z</time>
      </trkpt>
      <trkpt lat="59.9907460873" lon="23.4085156857">
        <ele>20.8</ele>
        <time>2012-03-01T09:17:33Z</time>
      </trkpt>
      <trkpt lat="59.9907848954" lon="23.4086003429">
        <ele>20.8</ele>
        <time>2012-03-01T09:17:34Z</time>
      </trkpt>
      <trkpt lat="59.9911410424" lon="23.4091029217">
        <ele>20.2</ele>
        <time>2012-03-01T09:17:45Z</time>
      </trkpt>
      <trkpt lat="59.9911837901" lon="23.4091183444">
        <ele>20.2</ele>
        <time>2012-03-01T09:17:46Z</time>
      </trkpt>
      <trkpt lat="59.9913240193" lon="23.4091161651">
        <ele>19.2</ele>
        <time>2012-03-01T09:17:50Z</time>
      </trkpt>
      <trkpt lat="59.9915045654" lon="23.4090051887">
        <ele>18.4</ele>
        <time>2012-03-01T09:17:55Z</time>
      </trkpt>
      <trkpt lat="59.9916176372" lon="23.4088277439">
        <ele>17.2</ele>
        <time>2012-03-01T09:17:59Z</time>
      </trkpt>
      <trkpt lat="59.9916834351" lon="23.4086306016">
        <ele>16.4</ele>
        <time>2012-03-01T09:18:03Z</time>
      </trkpt>
      <trkpt lat="59.991711263" lon="23.4083788931">
        <ele>15.4</ele>
        <time>2012-03-01T09:18:07Z</time>
      </trkpt>
      <trkpt lat="59.9916983549" lon="23.4081004464">
        <ele>14.4</ele>
        <time>2012-03-01T09:18:11Z</time>
      </trkpt>
      <trkpt lat="59.9916738798" lon="23.4079111831">
        <ele>13.8</ele>
        <time>2012-03-01T09:18:15Z</time>
      </trkpt>
      <trkpt lat="59.9916368318" lon="23.4076842851">
        <ele>13.4</ele>
        <time>2012-03-01T09:18:20Z</time>
      </trkpt>
      <trkpt lat="59.991595509" lon="23.4074221831">
        <ele>13.2</ele>
        <time>2012-03-01T09:18:26Z</time>
      </trkpt>
      <trkpt lat="59.9915565332" lon="23.4071977996">
        <ele>13</ele>
        <time>2012-03-01T09:18:32Z</time>
      </trkpt>
      <trkpt lat="59.9915447985" lon="23.4070291558">
        <ele>13</ele>
        <time>2012-03-01T09:18:37Z</time>
      </trkpt>
      <trkpt lat="59.9915391826" lon="23.4069649504">
        <ele>13</ele>
        <time>2012-03-01T09:18:40Z</time>
      </trkpt>
      <trkpt lat="59.9915230056" lon="23.4068780301">
        <ele>12.8</ele>
        <time>2012-03-01T09:18:45Z</time>
      </trkpt>
      <trkpt lat="59.9915454691" lon="23.4067342805">
        <ele>13.6</ele>
        <time>2012-03-01T09:18:52Z</time>
      </trkpt>
      <trkpt lat="59.9915899769" lon="23.4066268246">
        <ele>14.2</ele>
        <time>2012-03-01T09:18:58Z</time>
      </trkpt>
      <trkpt lat="59.9916086686" lon="23.4065704982">
        <ele>14.4</ele>
        <time>2012-03-01T09:19:00Z</time>
      </trkpt>
      <trkpt lat="59.9916801662" lon="23.4063789718">
        <ele>15.6</ele>
        <time>2012-03-01T09:19:06Z</time>
      </trkpt>
      <trkpt lat="59.9917171304" lon="23.4061711845">
        <ele>16.2</ele>
        <time>2012-03-01T09:19:11Z</time>
      </trkpt>
      <trkpt lat="59.9917792402" lon="23.4059210686">
        <ele>17.2</ele>
        <time>2012-03-01T09:19:17Z</time>
      </trkpt>
      <trkpt lat="59.9918685075" lon="23.4058316337">
        <ele>18</ele>
        <time>2012-03-01T09:19:21Z</time>
      </trkpt>
      <trkpt lat="59.9920015282" lon="23.4056893929">
        <ele>18.6</ele>
        <time>2012-03-01T09:19:27Z</time>
      </trkpt>
      <trkpt lat="59.9920685834" lon="23.4055307235">
        <ele>19.6</ele>
        <time>2012-03-01T09:19:32Z</time>
      </trkpt>
      <trkpt lat="59.992108146" lon="23.4054230161">
        <ele>20</ele>
        <time>2012-03-01T09:19:35Z</time>
      </trkpt>
      <trkpt lat="59.992229013" lon="23.405221599">
        <ele>20.6</ele>
        <time>2012-03-01T09:19:42Z</time>
      </trkpt>
      <trkpt lat="59.9924178572" lon="23.4050516141">
        <ele>20.8</ele>
        <time>2012-03-01T09:19:49Z</time>
      </trkpt>
      <trkpt lat="59.9924543185" lon="23.4050479261">
        <ele>21</ele>
        <time>2012-03-01T09:19:50Z</time>
      </trkpt>
      <trkpt lat="59.9925725871" lon="23.4050728203">
        <ele>21</ele>
        <time>2012-03-01T09:19:54Z</time>
      </trkpt>
      <trkpt lat="59.9927849844" lon="23.4051335053">
        <ele>21</ele>
        <time>2012-03-01T09:19:59Z</time>
      </trkpt>
      <trkpt lat="59.992963016" lon="23.4050977146">
        <ele>21.2</ele>
        <time>2012-03-01T09:20:02Z</time>
      </trkpt>
      <trkpt lat="59.9932420494" lon="23.4048040966">
        <ele>21.2</ele>
        <time>2012-03-01T09:20:06Z</time>
      </trkpt>
      <trkpt lat="59.9933728071" lon="23.4043623705">
        <ele>20.8</ele>
        <time>2012-03-01T09:20:09Z</time>
      </trkpt>
      <trkpt lat="59.9934092683" lon="23.4040860192">
        <ele>20.4</ele>
        <time>2012-03-01T09:20:11Z</time>
      </trkpt>
      <trkpt lat="59.993436761" lon="23.4038802436">
        <ele>20.2</ele>
        <time>2012-03-01T09:20:13Z</time>
      </trkpt>
      <trkpt lat="59.99347054" lon="23.4036094244">
        <ele>19.6</ele>
        <time>2012-03-01T09:20:16Z</time>
      </trkpt>
      <trkpt lat="59.9934831967" lon="23.4034678541">
        <ele>19.2</ele>
        <time>2012-03-01T09:20:18Z</time>
      </trkpt>
      <trkpt lat="59.9935078395" lon="23.4033362583">
        <ele>18.8</ele>
        <time>2012-03-01T09:20:20Z</time>
      </trkpt>
      <trkpt lat="59.9935451389" lon="23.4030271338">
        <ele>18</ele>
        <time>2012-03-01T09:20:25Z</time>
      </trkpt>
      <trkpt lat="59.9935577956" lon="23.4029627608">
        <ele>18</ele>
        <time>2012-03-01T09:20:26Z</time>
      </trkpt>
      <trkpt lat="59.9936232582" lon="23.4026924445">
        <ele>17.6</ele>
        <time>2012-03-01T09:20:31Z</time>
      </trkpt>
      <trkpt lat="59.9936884694" lon="23.4025097191">
        <ele>17.4</ele>
        <time>2012-03-01T09:20:35Z</time>
      </trkpt>
      <trkpt lat="59.9937573686" lon="23.4022612796">
        <ele>17.2</ele>
        <time>2012-03-01T09:20:40Z</time>
      </trkpt>
      <trkpt lat="59.993797015" lon="23.4020660652">
        <ele>17.2</ele>
        <time>2012-03-01T09:20:44Z</time>
      </trkpt>
      <trkpt lat="59.9938944127" lon="23.4017866126">
        <ele>17.2</ele>
        <time>2012-03-01T09:20:51Z</time>
      </trkpt>
      <trkpt lat="59.9940141062" lon="23.401638253">
        <ele>18</ele>
        <time>2012-03-01T09:20:56Z</time>
      </trkpt>
      <trkpt lat="59.9941550898" lon="23.4014927432">
        <ele>18.4</ele>
        <time>2012-03-01T09:21:01Z</time>
      </trkpt>
      <trkpt lat="59.9942571813" lon="23.4013724629">
        <ele>18.6</ele>
        <time>2012-03-01T09:21:04Z</time>
      </trkpt>
      <trkpt lat="59.9943960694" lon="23.4012332396">
        <ele>18.8</ele>
        <time>2012-03-01T09:21:08Z</time>
      </trkpt>
      <trkpt lat="59.9945189481" lon="23.4011235205">
        <ele>19</ele>
        <time>2012-03-01T09:21:12Z</time>
      </trkpt>
      <trkpt lat="59.9946477779" lon="23.4009992169">
        <ele>20</ele>
        <time>2012-03-01T09:21:18Z</time>
      </trkpt>
      <trkpt lat="59.9947854925" lon="23.4008481751">
        <ele>20.6</ele>
        <time>2012-03-01T09:21:24Z</time>
      </trkpt>
      <trkpt lat="59.9948803756" lon="23.4006875779">
        <ele>21</ele>
        <time>2012-03-01T09:21:30Z</time>
      </trkpt>
      <trkpt lat="59.9949326787" lon="23.4005633581">
        <ele>22</ele>
        <time>2012-03-01T09:21:35Z</time>
      </trkpt>
      <trkpt lat="59.9949791144" lon="23.4004284095">
        <ele>23</ele>
        <time>2012-03-01T09:21:42Z</time>
      </trkpt>
      <trkpt lat="59.9950343511" lon="23.4002838218">
        <ele>24.8</ele>
        <time>2012-03-01T09:21:50Z</time>
      </trkpt>
      <trkpt lat="59.995045499" lon="23.4002505456">
        <ele>25.4</ele>
        <time>2012-03-01T09:21:52Z</time>
      </trkpt>
      <trkpt lat="59.9950717344" lon="23.4001272479">
        <ele>26.4</ele>
        <time>2012-03-01T09:21:58Z</time>
      </trkpt>
      <trkpt lat="59.9951041723" lon="23.3998930576">
        <ele>28.8</ele>
        <time>2012-03-01T09:22:08Z</time>
      </trkpt>
      <trkpt lat="59.9951031665" lon="23.3997433568">
        <ele>30.2</ele>
        <time>2012-03-01T09:22:14Z</time>
      </trkpt>
      <trkpt lat="59.9951058487" lon="23.3996766369">
        <ele>30.8</ele>
        <time>2012-03-01T09:22:17Z</time>
      </trkpt>
      <trkpt lat="59.9950943655" lon="23.3995597094">
        <ele>32.2</ele>
        <time>2012-03-01T09:22:23Z</time>
      </trkpt>
      <trkpt lat="59.9950458343" lon="23.3994488169">
        <ele>33</ele>
        <time>2012-03-01T09:22:28Z</time>
      </trkpt>
      <trkpt lat="59.9949434075" lon="23.3993249324">
        <ele>33.8</ele>
        <time>2012-03-01T09:22:32Z</time>
      </trkpt>
      <trkpt lat="59.9949193514" lon="23.3992933326">
        <ele>34</ele>
        <time>2012-03-01T09:22:33Z</time>
      </trkpt>
      <trkpt lat="59.9946912799" lon="23.3990756547">
        <ele>35</ele>
        <time>2012-03-01T09:22:40Z</time>
      </trkpt>
      <trkpt lat="59.9946653799" lon="23.3990163947">
        <ele>35.2</ele>
        <time>2012-03-01T09:22:42Z</time>
      </trkpt>
      <trkpt lat="59.9946024318" lon="23.3987032469">
        <ele>35.6</ele>
        <time>2012-03-01T09:22:48Z</time>
      </trkpt>
      <trkpt lat="59.9945529786" lon="23.3985087868">
        <ele>35.8</ele>
        <time>2012-03-01T09:22:51Z</time>
      </trkpt>
      <trkpt lat="59.9944531502" lon="23.3982821402">
        <ele>36</ele>
        <time>2012-03-01T09:22:56Z</time>
      </trkpt>
      <trkpt lat="59.9943177825" lon="23.3982110617">
        <ele>36</ele>
        <time>2012-03-01T09:22:59Z</time>
      </trkpt>
      <trkpt lat="59.9941883659" lon="23.3980559127">
        <ele>36</ele>
        <time>2012-03-01T09:23:02Z</time>
      </trkpt>
      <trkpt lat="59.9940752103" lon="23.3977222293">
        <ele>36</ele>
        <time>2012-03-01T09:23:07Z</time>
      </trkpt>
      <trkpt lat="59.9940628051" lon="23.3976535815">
        <ele>36</ele>
        <time>2012-03-01T09:23:08Z</time>
      </trkpt>
      <trkpt lat="59.9940105858" lon="23.3973789067">
        <ele>36</ele>
        <time>2012-03-01T09:23:11Z</time>
      </trkpt>
      <trkpt lat="59.9938350689" lon="23.3968342508">
        <ele>35.6</ele>
        <time>2012-03-01T09:23:15Z</time>
      </trkpt>
      <trkpt lat="59.9936857034" lon="23.396460921">
        <ele>35.2</ele>
        <time>2012-03-01T09:23:17Z</time>
      </trkpt>
      <trkpt lat="59.9935645011" lon="23.3961763555">
        <ele>34.6</ele>
        <time>2012-03-01T09:23:19Z</time>
      </trkpt>
      <trkpt lat="59.9934138784" lon="23.3958347092">
        <ele>33.8</ele>
        <time>2012-03-01T09:23:22Z</time>
      </trkpt>
      <trkpt lat="59.9933738967" lon="23.3957522313">
        <ele>33.6</ele>
        <time>2012-03-01T09:23:23Z</time>
      </trkpt>
      <trkpt lat="59.9932798518" lon="23.3955442764">
        <ele>32.4</ele>
        <time>2012-03-01T09:23:27Z</time>
      </trkpt>
      <trkpt lat="59.9932609925" lon="23.3955180411">
        <ele>32.2</ele>
        <time>2012-03-01T09:23:28Z</time>
      </trkpt>
      <trkpt lat="59.9931865613" lon="23.395415279">
        <ele>31</ele>
        <time>2012-03-01T09:23:33Z</time>
      </trkpt>
      <trkpt lat="59.9931090287" lon="23.3952803304">
        <ele>30.4</ele>
        <time>2012-03-01T09:23:38Z</time>
      </trkpt>
      <trkpt lat="59.9930910076" lon="23.3952540112">
        <ele>30.4</ele>
        <time>2012-03-01T09:23:39Z</time>
      </trkpt>
      <trkpt lat="59.9929817076" lon="23.3951029694">
        <ele>30</ele>
        <time>2012-03-01T09:23:46Z</time>
      </trkpt>
      <trkpt lat="59.9928912669" lon="23.394960058">
        <ele>30.6</ele>
        <time>2012-03-01T09:23:52Z</time>
      </trkpt>
      <trkpt lat="59.992825469" lon="23.3948233492">
        <ele>31.2</ele>
        <time>2012-03-01T09:23:57Z</time>
      </trkpt>
      <trkpt lat="59.9927578271" lon="23.3946968663">
        <ele>32.4</ele>
        <time>2012-03-01T09:24:02Z</time>
      </trkpt>
      <trkpt lat="59.9926840663" lon="23.3945769213">
        <ele>33.6</ele>
        <time>2012-03-01T09:24:07Z</time>
      </trkpt>
      <trkpt lat="59.99263235" lon="23.3944620893">
        <ele>34.4</ele>
        <time>2012-03-01T09:24:11Z</time>
      </trkpt>
      <trkpt lat="59.992530007" lon="23.3943232012">
        <ele>36</ele>
        <time>2012-03-01T09:24:16Z</time>
      </trkpt>
      <trkpt lat="59.9924932943" lon="23.3942628515">
        <ele>36.4</ele>
        <time>2012-03-01T09:24:18Z</time>
      </trkpt>
      <trkpt lat="59.9923923762" lon="23.3940805452">
        <ele>38</ele>
        <time>2012-03-01T09:24:24Z</time>
      </trkpt>
      <trkpt lat="59.9923096469" lon="23.3938502944">
        <ele>39.6</ele>
        <time>2012-03-01T09:24:30Z</time>
      </trkpt>
      <trkpt lat="59.9922472855" lon="23.3935978316">
        <ele>40.8</ele>
        <time>2012-03-01T09:24:36Z</time>
      </trkpt>
      <trkpt lat="59.9921848404" lon="23.3933050518">
        <ele>42.2</ele>
        <time>2012-03-01T09:24:43Z</time>
      </trkpt>
      <trkpt lat="59.9921321182" lon="23.3930891341">
        <ele>43.2</ele>
        <time>2012-03-01T09:24:48Z</time>
      </trkpt>
      <trkpt lat="59.9920619617" lon="23.3929004575">
        <ele>44.4</ele>
        <time>2012-03-01T09:24:53Z</time>
      </trkpt>
      <trkpt lat="59.991995158" lon="23.3927743099">
        <ele>45</ele>
        <time>2012-03-01T09:24:56Z</time>
      </trkpt>
      <trkpt lat="59.991973365" lon="23.3927470687">
        <ele>45.2</ele>
        <time>2012-03-01T09:24:57Z</time>
      </trkpt>
      <trkpt lat="59.9919028733" lon="23.3926873896">
        <ele>45.4</ele>
        <time>2012-03-01T09:24:59Z</time>
      </trkpt>
      <trkpt lat="59.9917620573" lon="23.392719157">
        <ele>46</ele>
        <time>2012-03-01T09:25:04Z</time>
      </trkpt>
      <trkpt lat="59.9917449583" lon="23.3927630782">
        <ele>46</ele>
        <time>2012-03-01T09:25:05Z</time>
      </trkpt>
      <trkpt lat="59.9916110993" lon="23.3929774872">
        <ele>46.4</ele>
        <time>2012-03-01T09:25:11Z</time>
      </trkpt>
      <trkpt lat="59.9915109356" lon="23.3930309637">
        <ele>46.4</ele>
        <time>2012-03-01T09:25:15Z</time>
      </trkpt>
      <trkpt lat="59.9914847003" lon="23.3930434527">
        <ele>46.4</ele>
        <time>2012-03-01T09:25:16Z</time>
      </trkpt>
      <trkpt lat="59.9913878055" lon="23.3931005335">
        <ele>46.6</ele>
        <time>2012-03-01T09:25:19Z</time>
      </trkpt>
      <trkpt lat="59.9913495841" lon="23.3931375815">
        <ele>46.6</ele>
        <time>2012-03-01T09:25:20Z</time>
      </trkpt>
      <trkpt lat="59.9911891545" lon="23.3932022059">
        <ele>46.6</ele>
        <time>2012-03-01T09:25:24Z</time>
      </trkpt>
      <trkpt lat="59.9909925989" lon="23.3932265134">
        <ele>46.6</ele>
        <time>2012-03-01T09:25:28Z</time>
      </trkpt>
      <trkpt lat="59.9907728255" lon="23.3933125117">
        <ele>46.6</ele>
        <time>2012-03-01T09:25:32Z</time>
      </trkpt>
      <trkpt lat="59.9907322571" lon="23.3933477157">
        <ele>46.6</ele>
        <time>2012-03-01T09:25:33Z</time>
      </trkpt>
      <trkpt lat="59.9905742583" lon="23.3935349673">
        <ele>46.6</ele>
        <time>2012-03-01T09:25:36Z</time>
      </trkpt>
      <trkpt lat="59.9905294151" lon="23.3936116617">
        <ele>46.6</ele>
        <time>2012-03-01T09:25:37Z</time>
      </trkpt>
      <trkpt lat="59.9904683949" lon="23.3938232209">
        <ele>46.2</ele>
        <time>2012-03-01T09:25:40Z</time>
      </trkpt>
      <trkpt lat="59.990429" lon="23.3938951376">
        <ele>45.8</ele>
        <time>2012-03-01T09:25:43Z</time>
      </trkpt>
      <trkpt lat="59.9904165109" lon="23.3938882644">
        <ele>45.6</ele>
        <time>2012-03-01T09:25:44Z</time>
      </trkpt>
      <trkpt lat="59.9902347075" lon="23.3936951454">
        <ele>45.2</ele>
        <time>2012-03-01T09:25:51Z</time>
      </trkpt>
      <trkpt lat="59.9901990845" lon="23.3936613664">
        <ele>45</ele>
        <time>2012-03-01T09:25:52Z</time>
      </trkpt>
      <trkpt lat="59.9900212205" lon="23.3936011843">
        <ele>44.8</ele>
        <time>2012-03-01T09:25:56Z</time>
      </trkpt>
      <trkpt lat="59.989889038" lon="23.3937071316">
        <ele>44.2</ele>
        <time>2012-03-01T09:25:59Z</time>
      </trkpt>
      <trkpt lat="59.989847799" lon="23.3937631226">
        <ele>44</ele>
        <time>2012-03-01T09:26:00Z</time>
      </trkpt>
      <trkpt lat="59.9897669975" lon="23.3939401484">
        <ele>43.6</ele>
        <time>2012-03-01T09:26:03Z</time>
      </trkpt>
      <trkpt lat="59.9897343919" lon="23.3939858297">
        <ele>43.6</ele>
        <time>2012-03-01T09:26:04Z</time>
      </trkpt>
      <trkpt lat="59.9895909776" lon="23.394095465">
        <ele>43.2</ele>
        <time>2012-03-01T09:26:08Z</time>
      </trkpt>
      <trkpt lat="59.9895494872" lon="23.3941053556">
        <ele>43.2</ele>
        <time>2012-03-01T09:26:09Z</time>
      </trkpt>
      <trkpt lat="59.9895056499" lon="23.3941156654">
        <ele>43.2</ele>
        <time>2012-03-01T09:26:10Z</time>
      </trkpt>
      <trkpt lat="59.9893784126" lon="23.3942378735">
        <ele>42.6</ele>
        <time>2012-03-01T09:26:14Z</time>
      </trkpt>
      <trkpt lat="59.9892049911" lon="23.3945371073">
        <ele>41.6</ele>
        <time>2012-03-01T09:26:20Z</time>
      </trkpt>
      <trkpt lat="59.9890790112" lon="23.394586812">
        <ele>41.4</ele>
        <time>2012-03-01T09:26:23Z</time>
      </trkpt>
      <trkpt lat="59.9888991356" lon="23.3946039949">
        <ele>40.6</ele>
        <time>2012-03-01T09:26:26Z</time>
      </trkpt>
      <trkpt lat="59.9888503529" lon="23.3946288053">
        <ele>40.4</ele>
        <time>2012-03-01T09:26:27Z</time>
      </trkpt>
      <trkpt lat="59.9887444895" lon="23.3947056673">
        <ele>40</ele>
        <time>2012-03-01T09:26:29Z</time>
      </trkpt>
      <trkpt lat="59.988685481" lon="23.3947745665">
        <ele>39.6</ele>
        <time>2012-03-01T09:26:31Z</time>
      </trkpt>
      <trkpt lat="59.9886719861" lon="23.3947941802">
        <ele>39.4</ele>
        <time>2012-03-01T09:26:33Z</time>
      </trkpt>
      <trkpt lat="59.988704424" lon="23.3947042424">
        <ele>39</ele>
        <time>2012-03-01T09:26:38Z</time>
      </trkpt>
      <trkpt lat="59.9887418911" lon="23.3945012328">
        <ele>38.8</ele>
        <time>2012-03-01T09:26:42Z</time>
      </trkpt>
      <trkpt lat="59.988766953" lon="23.3942022504">
        <ele>38.6</ele>
        <time>2012-03-01T09:26:47Z</time>
      </trkpt>
      <trkpt lat="59.9887598284" lon="23.3938782061">
        <ele>38.6</ele>
        <time>2012-03-01T09:26:53Z</time>
      </trkpt>
      <trkpt lat="59.9887610019" lon="23.393635634">
        <ele>38.4</ele>
        <time>2012-03-01T09:26:57Z</time>
      </trkpt>
      <trkpt lat="59.9887556375" lon="23.3933926427">
        <ele>38.4</ele>
        <time>2012-03-01T09:27:01Z</time>
      </trkpt>
      <trkpt lat="59.9887545478" lon="23.3932517429">
        <ele>38.4</ele>
        <time>2012-03-01T09:27:03Z</time>
      </trkpt>
      <trkpt lat="59.9887313299" lon="23.3928771558">
        <ele>38.4</ele>
        <time>2012-03-01T09:27:08Z</time>
      </trkpt>
      <trkpt lat="59.9887159911" lon="23.3925323245">
        <ele>38</ele>
        <time>2012-03-01T09:27:12Z</time>
      </trkpt>
      <trkpt lat="59.9887128898" lon="23.392443644">
        <ele>37.8</ele>
        <time>2012-03-01T09:27:13Z</time>
      </trkpt>
      <trkpt lat="59.9886954554" lon="23.3922878244">
        <ele>37.6</ele>
        <time>2012-03-01T09:27:15Z</time>
      </trkpt>
      <trkpt lat="59.9886950363" lon="23.3921204379">
        <ele>37.4</ele>
        <time>2012-03-01T09:27:17Z</time>
      </trkpt>
      <trkpt lat="59.9887028315" lon="23.3917314339">
        <ele>37</ele>
        <time>2012-03-01T09:27:22Z</time>
      </trkpt>
      <trkpt lat="59.9887121354" lon="23.3916645463">
        <ele>36.8</ele>
        <time>2012-03-01T09:27:23Z</time>
      </trkpt>
      <trkpt lat="59.988713225" lon="23.3915993352">
        <ele>36.6</ele>
        <time>2012-03-01T09:27:24Z</time>
      </trkpt>
      <trkpt lat="59.9887444057" lon="23.3913472076">
        <ele>35.8</ele>
        <time>2012-03-01T09:27:28Z</time>
      </trkpt>
      <trkpt lat="59.9887591579" lon="23.3912806553">
        <ele>35.6</ele>
        <time>2012-03-01T09:27:29Z</time>
      </trkpt>
      <trkpt lat="59.9887997263" lon="23.3910774781">
        <ele>35.2</ele>
        <time>2012-03-01T09:27:33Z</time>
      </trkpt>
      <trkpt lat="59.9888696313" lon="23.3908137835">
        <ele>34.8</ele>
        <time>2012-03-01T09:27:38Z</time>
      </trkpt>
      <trkpt lat="59.9889571383" lon="23.3905774977">
        <ele>34.6</ele>
        <time>2012-03-01T09:27:43Z</time>
      </trkpt>
      <trkpt lat="59.9890045799" lon="23.3903774218">
        <ele>34.6</ele>
        <time>2012-03-01T09:27:47Z</time>
      </trkpt>
      <trkpt lat="59.9890655163" lon="23.3901418904">
        <ele>34.4</ele>
        <time>2012-03-01T09:27:52Z</time>
      </trkpt>
      <trkpt lat="59.9890716351" lon="23.390097634">
        <ele>34.4</ele>
        <time>2012-03-01T09:27:53Z</time>
      </trkpt>
      <trkpt lat="59.9891372654" lon="23.3898849013">
        <ele>34.4</ele>
        <time>2012-03-01T09:27:58Z</time>
      </trkpt>
      <trkpt lat="59.9891947652" lon="23.3896581709">
        <ele>34.4</ele>
        <time>2012-03-01T09:28:03Z</time>
      </trkpt>
      <trkpt lat="59.9892149656" lon="23.3895485357">
        <ele>34.4</ele>
        <time>2012-03-01T09:28:05Z</time>
      </trkpt>
      <trkpt lat="59.9892827751" lon="23.3893105736">
        <ele>33.8</ele>
        <time>2012-03-01T09:28:10Z</time>
      </trkpt>
      <trkpt lat="59.989306915" lon="23.3892238209">
        <ele>33.4</ele>
        <time>2012-03-01T09:28:12Z</time>
      </trkpt>
      <trkpt lat="59.9894040612" lon="23.3888665005">
        <ele>32.8</ele>
        <time>2012-03-01T09:28:19Z</time>
      </trkpt>
      <trkpt lat="59.9894867906" lon="23.3885330685">
        <ele>32.6</ele>
        <time>2012-03-01T09:28:24Z</time>
      </trkpt>
      <trkpt lat="59.9894968489" lon="23.3884654266">
        <ele>32.6</ele>
        <time>2012-03-01T09:28:25Z</time>
      </trkpt>
      <trkpt lat="59.9895491519" lon="23.3881080224">
        <ele>32.4</ele>
        <time>2012-03-01T09:28:29Z</time>
      </trkpt>
      <trkpt lat="59.9895975155" lon="23.387665961">
        <ele>32.4</ele>
        <time>2012-03-01T09:28:33Z</time>
      </trkpt>
      <trkpt lat="59.9896347311" lon="23.3872748615">
        <ele>32.4</ele>
        <time>2012-03-01T09:28:36Z</time>
      </trkpt>
      <trkpt lat="59.9896701027" lon="23.3868565209">
        <ele>32.4</ele>
        <time>2012-03-01T09:28:40Z</time>
      </trkpt>
      <trkpt lat="59.989672785" lon="23.3867783177">
        <ele>32.4</ele>
        <time>2012-03-01T09:28:41Z</time>
      </trkpt>
      <trkpt lat="59.989675551" lon="23.3867026292">
        <ele>32.4</ele>
        <time>2012-03-01T09:28:42Z</time>
      </trkpt>
      <trkpt lat="59.9896736231" lon="23.3865246814">
        <ele>32.4</ele>
        <time>2012-03-01T09:28:44Z</time>
      </trkpt>
      <trkpt lat="59.9896878724" lon="23.3861881482">
        <ele>32.2</ele>
        <time>2012-03-01T09:28:48Z</time>
      </trkpt>
      <trkpt lat="59.9896821727" lon="23.3859345119">
        <ele>32.2</ele>
        <time>2012-03-01T09:28:51Z</time>
      </trkpt>
      <trkpt lat="59.9896656603" lon="23.385674673">
        <ele>32.2</ele>
        <time>2012-03-01T09:28:54Z</time>
      </trkpt>
      <trkpt lat="59.9896562726" lon="23.3855958831">
        <ele>32.2</ele>
        <time>2012-03-01T09:28:55Z</time>
      </trkpt>
      <trkpt lat="59.9895873734" lon="23.385210651">
        <ele>31.4</ele>
        <time>2012-03-01T09:29:01Z</time>
      </trkpt>
      <trkpt lat="59.989538004" lon="23.3850340444">
        <ele>31</ele>
        <time>2012-03-01T09:29:04Z</time>
      </trkpt>
      <trkpt lat="59.9894879641" lon="23.3848529115">
        <ele>30.8</ele>
        <time>2012-03-01T09:29:07Z</time>
      </trkpt>
      <trkpt lat="59.9894762294" lon="23.3848109182">
        <ele>30.8</ele>
        <time>2012-03-01T09:29:08Z</time>
      </trkpt>
      <trkpt lat="59.9894387623" lon="23.3845840201">
        <ele>30.6</ele>
        <time>2012-03-01T09:29:13Z</time>
      </trkpt>
      <trkpt lat="59.9894007085" lon="23.3843690244">
        <ele>30.4</ele>
        <time>2012-03-01T09:29:18Z</time>
      </trkpt>
      <trkpt lat="59.9893613136" lon="23.3842549467">
        <ele>30.4</ele>
        <time>2012-03-01T09:29:21Z</time>
      </trkpt>
      <trkpt lat="59.9893137044" lon="23.3840151406">
        <ele>30.2</ele>
        <time>2012-03-01T09:29:27Z</time>
      </trkpt>
      <trkpt lat="59.9892897321" lon="23.383828308">
        <ele>30.2</ele>
        <time>2012-03-01T09:29:31Z</time>
      </trkpt>
      <trkpt lat="59.9892215873" lon="23.3835709837">
        <ele>30.2</ele>
        <time>2012-03-01T09:29:36Z</time>
      </trkpt>
      <trkpt lat="59.9891821923" lon="23.3833457621">
        <ele>30.2</ele>
        <time>2012-03-01T09:29:40Z</time>
      </trkpt>
      <trkpt lat="59.989148078" lon="23.3831456023">
        <ele>30.2</ele>
        <time>2012-03-01T09:29:44Z</time>
      </trkpt>
      <trkpt lat="59.9891116168" lon="23.3829449396">
        <ele>30.2</ele>
        <time>2012-03-01T09:29:48Z</time>
      </trkpt>
      <trkpt lat="59.9890441425" lon="23.3826369886">
        <ele>30.2</ele>
        <time>2012-03-01T09:29:53Z</time>
      </trkpt>
      <trkpt lat="59.988985553" lon="23.3822886368">
        <ele>30.2</ele>
        <time>2012-03-01T09:29:58Z</time>
      </trkpt>
      <trkpt lat="59.9889334176" lon="23.382053776">
        <ele>30.2</ele>
        <time>2012-03-01T09:30:01Z</time>
      </trkpt>
      <trkpt lat="59.9888354331" lon="23.3817609962">
        <ele>30.2</ele>
        <time>2012-03-01T09:30:06Z</time>
      </trkpt>
      <trkpt lat="59.9887699705" lon="23.3815151551">
        <ele>30.2</ele>
        <time>2012-03-01T09:30:10Z</time>
      </trkpt>
      <trkpt lat="59.9887334254" lon="23.3812886762">
        <ele>30.2</ele>
        <time>2012-03-01T09:30:14Z</time>
      </trkpt>
      <trkpt lat="59.9886917674" lon="23.3810160968">
        <ele>30.2</ele>
        <time>2012-03-01T09:30:19Z</time>
      </trkpt>
      <trkpt lat="59.9886556414" lon="23.3807902046">
        <ele>30.2</ele>
        <time>2012-03-01T09:30:23Z</time>
      </trkpt>
      <trkpt lat="59.9885968005" lon="23.380532545">
        <ele>30.2</ele>
        <time>2012-03-01T09:30:27Z</time>
      </trkpt>
      <trkpt lat="59.9885096287" lon="23.3801318063">
        <ele>30.2</ele>
        <time>2012-03-01T09:30:33Z</time>
      </trkpt>
      <trkpt lat="59.9884626901" lon="23.3798743982">
        <ele>30.2</ele>
        <time>2012-03-01T09:30:37Z</time>
      </trkpt>
      <trkpt lat="59.9884216187" lon="23.3795542934">
        <ele>30.2</ele>
        <time>2012-03-01T09:30:42Z</time>
      </trkpt>
      <trkpt lat="59.9884915238" lon="23.3793448297">
        <ele>30.2</ele>
        <time>2012-03-01T09:30:47Z</time>
      </trkpt>
      <trkpt lat="59.9886376203" lon="23.3791445861">
        <ele>29</ele>
        <time>2012-03-01T09:30:54Z</time>
      </trkpt>
      <trkpt lat="59.9887351018" lon="23.3790377169">
        <ele>28.6</ele>
        <time>2012-03-01T09:30:59Z</time>
      </trkpt>
      <trkpt lat="59.9888369419" lon="23.3788725935">
        <ele>28.4</ele>
        <time>2012-03-01T09:31:05Z</time>
      </trkpt>
      <trkpt lat="59.9888999738" lon="23.3786178675">
        <ele>28.2</ele>
        <time>2012-03-01T09:31:11Z</time>
      </trkpt>
      <trkpt lat="59.9889112055" lon="23.3782259299">
        <ele>28.2</ele>
        <time>2012-03-01T09:31:17Z</time>
      </trkpt>
      <trkpt lat="59.9889037456" lon="23.3779619">
        <ele>28.2</ele>
        <time>2012-03-01T09:31:21Z</time>
      </trkpt>
      <trkpt lat="59.988914223" lon="23.3776426335">
        <ele>28.2</ele>
        <time>2012-03-01T09:31:26Z</time>
      </trkpt>
      <trkpt lat="59.9889440626" lon="23.3773731554">
        <ele>28.2</ele>
        <time>2012-03-01T09:31:30Z</time>
      </trkpt>
      <trkpt lat="59.9890467408" lon="23.3771923578">
        <ele>28.2</ele>
        <time>2012-03-01T09:31:34Z</time>
      </trkpt>
      <trkpt lat="59.9891464855" lon="23.3769336086">
        <ele>28.2</ele>
        <time>2012-03-01T09:31:39Z</time>
      </trkpt>
      <trkpt lat="59.9892244371" lon="23.3767280844">
        <ele>28.2</ele>
        <time>2012-03-01T09:31:43Z</time>
      </trkpt>
      <trkpt lat="59.9893841123" lon="23.3764452791">
        <ele>28.2</ele>
        <time>2012-03-01T09:31:49Z</time>
      </trkpt>
      <trkpt lat="59.989456029" lon="23.3763010266">
        <ele>28.2</ele>
        <time>2012-03-01T09:31:52Z</time>
      </trkpt>
      <trkpt lat="59.9895715316" lon="23.3760033015">
        <ele>28.2</ele>
        <time>2012-03-01T09:31:56Z</time>
      </trkpt>
      <trkpt lat="59.9896509082" lon="23.375809931">
        <ele>28.2</ele>
        <time>2012-03-01T09:31:59Z</time>
      </trkpt>
      <trkpt lat="59.9897773911" lon="23.375612202">
        <ele>28.2</ele>
        <time>2012-03-01T09:32:04Z</time>
      </trkpt>
      <trkpt lat="59.9897950769" lon="23.3755901576">
        <ele>28.2</ele>
        <time>2012-03-01T09:32:05Z</time>
      </trkpt>
      <trkpt lat="59.9899125911" lon="23.3754565501">
        <ele>28.2</ele>
        <time>2012-03-01T09:32:10Z</time>
      </trkpt>
      <trkpt lat="59.9900375652" lon="23.3753671991">
        <ele>28.2</ele>
        <time>2012-03-01T09:32:14Z</time>
      </trkpt>
      <trkpt lat="59.9901370584" lon="23.3752663648">
        <ele>28.2</ele>
        <time>2012-03-01T09:32:17Z</time>
      </trkpt>
      <trkpt lat="59.990302098" lon="23.3750921889">
        <ele>28.2</ele>
        <time>2012-03-01T09:32:21Z</time>
      </trkpt>
      <trkpt lat="59.9903958915" lon="23.3750001557">
        <ele>28.2</ele>
        <time>2012-03-01T09:32:23Z</time>
      </trkpt>
      <trkpt lat="59.9905673013" lon="23.3748618543">
        <ele>28.2</ele>
        <time>2012-03-01T09:32:27Z</time>
      </trkpt>
      <trkpt lat="59.9906610948" lon="23.3748549812">
        <ele>28.2</ele>
        <time>2012-03-01T09:32:30Z</time>
      </trkpt>
      <trkpt lat="59.9908158247" lon="23.3748319309">
        <ele>28.2</ele>
        <time>2012-03-01T09:32:36Z</time>
      </trkpt>
      <trkpt lat="59.9909252085" lon="23.3747730062">
        <ele>28.2</ele>
        <time>2012-03-01T09:32:40Z</time>
      </trkpt>
      <trkpt lat="59.9910878173" lon="23.3746605211">
        <ele>28.2</ele>
        <time>2012-03-01T09:32:45Z</time>
      </trkpt>
      <trkpt lat="59.9911895736" lon="23.3744703358">
        <ele>28.2</ele>
        <time>2012-03-01T09:32:50Z</time>
      </trkpt>
      <trkpt lat="59.9912137973" lon="23.3743985029">
        <ele>28.2</ele>
        <time>2012-03-01T09:32:52Z</time>
      </trkpt>
      <trkpt lat="59.9912988736" lon="23.3742513167">
        <ele>28.2</ele>
        <time>2012-03-01T09:32:59Z</time>
      </trkpt>
      <trkpt lat="59.9913077584" lon="23.3742320384">
        <ele>28.2</ele>
        <time>2012-03-01T09:33:00Z</time>
      </trkpt>
      <trkpt lat="59.991388979" lon="23.3741320423">
        <ele>28.8</ele>
        <time>2012-03-01T09:33:06Z</time>
      </trkpt>
      <trkpt lat="59.9914731333" lon="23.3740105886">
        <ele>29.4</ele>
        <time>2012-03-01T09:33:11Z</time>
      </trkpt>
      <trkpt lat="59.9914926631" lon="23.3739840179">
        <ele>29.6</ele>
        <time>2012-03-01T09:33:12Z</time>
      </trkpt>
      <trkpt lat="59.9916349877" lon="23.3737808407">
        <ele>30.8</ele>
        <time>2012-03-01T09:33:18Z</time>
      </trkpt>
      <trkpt lat="59.99171361" lon="23.3735867159">
        <ele>31.2</ele>
        <time>2012-03-01T09:33:21Z</time>
      </trkpt>
      <trkpt lat="59.9917996083" lon="23.3732640127">
        <ele>31.6</ele>
        <time>2012-03-01T09:33:24Z</time>
      </trkpt>
      <trkpt lat="59.9918694295" lon="23.3730779346">
        <ele>31.8</ele>
        <time>2012-03-01T09:33:26Z</time>
      </trkpt>
      <trkpt lat="59.9919760473" lon="23.3727403116">
        <ele>32</ele>
        <time>2012-03-01T09:33:31Z</time>
      </trkpt>
      <trkpt lat="59.9920351397" lon="23.3726323527">
        <ele>32.2</ele>
        <time>2012-03-01T09:33:34Z</time>
      </trkpt>
      <trkpt lat="59.9920660689" lon="23.3725694885">
        <ele>32.4</ele>
        <time>2012-03-01T09:33:36Z</time>
      </trkpt>
      <trkpt lat="59.992137315" lon="23.3724126632">
        <ele>33.4</ele>
        <time>2012-03-01T09:33:41Z</time>
      </trkpt>
      <trkpt lat="59.9922119139" lon="23.3722394931">
        <ele>33.8</ele>
        <time>2012-03-01T09:33:45Z</time>
      </trkpt>
      <trkpt lat="59.9923041986" lon="23.371895919">
        <ele>34</ele>
        <time>2012-03-01T09:33:49Z</time>
      </trkpt>
      <trkpt lat="59.9924115708" lon="23.3715056578">
        <ele>34.2</ele>
        <time>2012-03-01T09:33:53Z</time>
      </trkpt>
      <trkpt lat="59.9924421647" lon="23.3714127863">
        <ele>34.2</ele>
        <time>2012-03-01T09:33:54Z</time>
      </trkpt>
      <trkpt lat="59.9924984911" lon="23.371238359">
        <ele>34.2</ele>
        <time>2012-03-01T09:33:56Z</time>
      </trkpt>
      <trkpt lat="59.9926029296" lon="23.3709518656">
        <ele>34.4</ele>
        <time>2012-03-01T09:34:00Z</time>
      </trkpt>
      <trkpt lat="59.9927193541" lon="23.3707311702">
        <ele>33.6</ele>
        <time>2012-03-01T09:34:04Z</time>
      </trkpt>
      <trkpt lat="59.9927712381" lon="23.3706521289">
        <ele>33.4</ele>
        <time>2012-03-01T09:34:06Z</time>
      </trkpt>
      <trkpt lat="59.9929113835" lon="23.3705179347">
        <ele>33</ele>
        <time>2012-03-01T09:34:12Z</time>
      </trkpt>
      <trkpt lat="59.9929337632" lon="23.3705074573">
        <ele>32.8</ele>
        <time>2012-03-01T09:34:13Z</time>
      </trkpt>
      <trkpt lat="59.9930427279" lon="23.3704459341">
        <ele>32.8</ele>
        <time>2012-03-01T09:34:17Z</time>
      </trkpt>
      <trkpt lat="59.9931987988" lon="23.3703197027">
        <ele>32.6</ele>
        <time>2012-03-01T09:34:21Z</time>
      </trkpt>
      <trkpt lat="59.993353864" lon="23.3702031105">
        <ele>32.6</ele>
        <time>2012-03-01T09:34:24Z</time>
      </trkpt>
      <trkpt lat="59.9934004673" lon="23.3701609495">
        <ele>32.6</ele>
        <time>2012-03-01T09:34:25Z</time>
      </trkpt>
      <trkpt lat="59.9935513415" lon="23.369946792">
        <ele>32.4</ele>
        <time>2012-03-01T09:34:29Z</time>
      </trkpt>
      <trkpt lat="59.9935785827" lon="23.3698814132">
        <ele>32.4</ele>
        <time>2012-03-01T09:34:30Z</time>
      </trkpt>
      <trkpt lat="59.9937153753" lon="23.3695358274">
        <ele>31.8</ele>
        <time>2012-03-01T09:34:36Z</time>
      </trkpt>
      <trkpt lat="59.9937366654" lon="23.3694908166">
        <ele>31.6</ele>
        <time>2012-03-01T09:34:37Z</time>
      </trkpt>
      <trkpt lat="59.9937667564" lon="23.3687950351">
        <ele>30.8</ele>
        <time>2012-03-01T09:34:49Z</time>
      </trkpt>
      <trkpt lat="59.9937703606" lon="23.3685455059">
        <ele>30.6</ele>
        <time>2012-03-01T09:34:54Z</time>
      </trkpt>
      <trkpt lat="59.9937878788" lon="23.3683471064">
        <ele>30.6</ele>
        <time>2012-03-01T09:34:58Z</time>
      </trkpt>
      <trkpt lat="59.9938024633" lon="23.3682965635">
        <ele>30.4</ele>
        <time>2012-03-01T09:34:59Z</time>
      </trkpt>
      <trkpt lat="59.9938384216" lon="23.3680881057">
        <ele>30.4</ele>
        <time>2012-03-01T09:35:04Z</time>
      </trkpt>
      <trkpt lat="59.9938530899" lon="23.36800831">
        <ele>30.4</ele>
        <time>2012-03-01T09:35:06Z</time>
      </trkpt>
      <trkpt lat="59.993875302" lon="23.3678602856">
        <ele>30.4</ele>
        <time>2012-03-01T09:35:10Z</time>
      </trkpt>
      <trkpt lat="59.9939240008" lon="23.367670687">
        <ele>30.4</ele>
        <time>2012-03-01T09:35:15Z</time>
      </trkpt>
      <trkpt lat="59.993956774" lon="23.367551245">
        <ele>30.4</ele>
        <time>2012-03-01T09:35:18Z</time>
      </trkpt>
      <trkpt lat="59.9940013658" lon="23.3674618939">
        <ele>30.4</ele>
        <time>2012-03-01T09:35:21Z</time>
      </trkpt>
      <trkpt lat="59.9940606258" lon="23.3672544419">
        <ele>30.4</ele>
        <time>2012-03-01T09:35:27Z</time>
      </trkpt>
      <trkpt lat="59.9941141023" lon="23.3670409549">
        <ele>31</ele>
        <time>2012-03-01T09:35:33Z</time>
      </trkpt>
      <trkpt lat="59.9941397509" lon="23.3669831198">
        <ele>31.4</ele>
        <time>2012-03-01T09:35:35Z</time>
      </trkpt>
      <trkpt lat="59.9941947362" lon="23.3666742468">
        <ele>31.8</ele>
        <time>2012-03-01T09:35:40Z</time>
      </trkpt>
      <trkpt lat="59.9942159424" lon="23.3664248852">
        <ele>32</ele>
        <time>2012-03-01T09:35:44Z</time>
      </trkpt>
      <trkpt lat="59.9942923015" lon="23.3661771163">
        <ele>32</ele>
        <time>2012-03-01T09:35:47Z</time>
      </trkpt>
      <trkpt lat="59.9943649726" lon="23.3658650581">
        <ele>32.2</ele>
        <time>2012-03-01T09:35:51Z</time>
      </trkpt>
      <trkpt lat="59.9943896992" lon="23.3657942311">
        <ele>32.2</ele>
        <time>2012-03-01T09:35:52Z</time>
      </trkpt>
      <trkpt lat="59.9944420861" lon="23.3656767169">
        <ele>32.2</ele>
        <time>2012-03-01T09:35:54Z</time>
      </trkpt>
      <trkpt lat="59.9945428365" lon="23.3654227453">
        <ele>32.2</ele>
        <time>2012-03-01T09:35:58Z</time>
      </trkpt>
      <trkpt lat="59.9946714987" lon="23.3650726333">
        <ele>32.4</ele>
        <time>2012-03-01T09:36:03Z</time>
      </trkpt>
      <trkpt lat="59.9947952155" lon="23.3648105313">
        <ele>32</ele>
        <time>2012-03-01T09:36:07Z</time>
      </trkpt>
      <trkpt lat="59.9948638633" lon="23.3646950287">
        <ele>31.6</ele>
        <time>2012-03-01T09:36:09Z</time>
      </trkpt>
      <trkpt lat="59.995075171" lon="23.3645347668">
        <ele>31.2</ele>
        <time>2012-03-01T09:36:13Z</time>
      </trkpt>
      <trkpt lat="59.9952602433" lon="23.3644094574">
        <ele>30.6</ele>
        <time>2012-03-01T09:36:17Z</time>
      </trkpt>
      <trkpt lat="59.9954729759" lon="23.3643731638">
        <ele>29.6</ele>
        <time>2012-03-01T09:36:22Z</time>
      </trkpt>
      <trkpt lat="59.9955877241" lon="23.3642960503">
        <ele>29.2</ele>
        <time>2012-03-01T09:36:25Z</time>
      </trkpt>
      <trkpt lat="59.9956217547" lon="23.3642663784">
        <ele>29.2</ele>
        <time>2012-03-01T09:36:26Z</time>
      </trkpt>
      <trkpt lat="59.9956520133" lon="23.3642395563">
        <ele>29</ele>
        <time>2012-03-01T09:36:27Z</time>
      </trkpt>
      <trkpt lat="59.9957774904" lon="23.3640673921">
        <ele>28.2</ele>
        <time>2012-03-01T09:36:32Z</time>
      </trkpt>
      <trkpt lat="59.9959946654" lon="23.3637059645">
        <ele>26.8</ele>
        <time>2012-03-01T09:36:43Z</time>
      </trkpt>
      <trkpt lat="59.9960550989" lon="23.363573279">
        <ele>26.6</ele>
        <time>2012-03-01T09:36:47Z</time>
      </trkpt>
      <trkpt lat="59.9961337211" lon="23.3634372408">
        <ele>26.4</ele>
        <time>2012-03-01T09:36:53Z</time>
      </trkpt>
      <trkpt lat="59.9962317055" lon="23.3632639031">
        <ele>26.4</ele>
        <time>2012-03-01T09:37:00Z</time>
      </trkpt>
      <trkpt lat="59.9963241579" lon="23.3631405216">
        <ele>26.2</ele>
        <time>2012-03-01T09:37:05Z</time>
      </trkpt>
      <trkpt lat="59.9964197954" lon="23.3630265277">
        <ele>27</ele>
        <time>2012-03-01T09:37:10Z</time>
      </trkpt>
      <trkpt lat="59.9964376488" lon="23.3630016335">
        <ele>27</ele>
        <time>2012-03-01T09:37:11Z</time>
      </trkpt>
      <trkpt lat="59.9965267484" lon="23.3629147132">
        <ele>27.4</ele>
        <time>2012-03-01T09:37:15Z</time>
      </trkpt>
      <trkpt lat="59.9965607789" lon="23.3628909086">
        <ele>27.6</ele>
        <time>2012-03-01T09:37:16Z</time>
      </trkpt>
      <trkpt lat="59.9966684025" lon="23.3628312294">
        <ele>28.4</ele>
        <time>2012-03-01T09:37:20Z</time>
      </trkpt>
      <trkpt lat="59.9968719989" lon="23.3628001326">
        <ele>29.2</ele>
        <time>2012-03-01T09:37:25Z</time>
      </trkpt>
      <trkpt lat="59.9970809596" lon="23.3627567982">
        <ele>29.6</ele>
        <time>2012-03-01T09:37:29Z</time>
      </trkpt>
      <trkpt lat="59.997129407" lon="23.3627312334">
        <ele>29.6</ele>
        <time>2012-03-01T09:37:30Z</time>
      </trkpt>
      <trkpt lat="59.9972110467" lon="23.3626650164">
        <ele>29.8</ele>
        <time>2012-03-01T09:37:32Z</time>
      </trkpt>
      <trkpt lat="59.9974034113" lon="23.3623957897">
        <ele>30</ele>
        <time>2012-03-01T09:37:37Z</time>
      </trkpt>
      <trkpt lat="59.9974410461" lon="23.3623411397">
        <ele>30</ele>
        <time>2012-03-01T09:37:38Z</time>
      </trkpt>
      <trkpt lat="59.9976186585" lon="23.362171993">
        <ele>30.2</ele>
        <time>2012-03-01T09:37:42Z</time>
      </trkpt>
      <trkpt lat="59.9976877254" lon="23.362089096">
        <ele>30.2</ele>
        <time>2012-03-01T09:37:44Z</time>
      </trkpt>
      <trkpt lat="59.9979064091" lon="23.3618604378">
        <ele>30.2</ele>
        <time>2012-03-01T09:37:50Z</time>
      </trkpt>
      <trkpt lat="59.9980481471" lon="23.3616555841">
        <ele>30.2</ele>
        <time>2012-03-01T09:37:54Z</time>
      </trkpt>
      <trkpt lat="59.9981427787" lon="23.3614529098">
        <ele>30.4</ele>
        <time>2012-03-01T09:37:58Z</time>
      </trkpt>
      <trkpt lat="59.9982017035" lon="23.3613493095">
        <ele>30.4</ele>
        <time>2012-03-01T09:38:00Z</time>
      </trkpt>
      <trkpt lat="59.9983394181" lon="23.3611881256">
        <ele>30.4</ele>
        <time>2012-03-01T09:38:05Z</time>
      </trkpt>
      <trkpt lat="59.9984201358" lon="23.361088381">
        <ele>30.4</ele>
        <time>2012-03-01T09:38:08Z</time>
      </trkpt>
      <trkpt lat="59.9985581019" lon="23.3609191504">
        <ele>30.4</ele>
        <time>2012-03-01T09:38:13Z</time>
      </trkpt>
      <trkpt lat="59.9986174457" lon="23.3607865488">
        <ele>30.4</ele>
        <time>2012-03-01T09:38:16Z</time>
      </trkpt>
      <trkpt lat="59.9986378976" lon="23.3607310606">
        <ele>30.4</ele>
        <time>2012-03-01T09:38:17Z</time>
      </trkpt>
      <trkpt lat="59.9986720957" lon="23.3606049968">
        <ele>30.4</ele>
        <time>2012-03-01T09:38:19Z</time>
      </trkpt>
      <trkpt lat="59.9986580979" lon="23.3603742431">
        <ele>30.4</ele>
        <time>2012-03-01T09:38:22Z</time>
      </trkpt>
      <trkpt lat="59.9986482073" lon="23.3602346845">
        <ele>30.4</ele>
        <time>2012-03-01T09:38:24Z</time>
      </trkpt>
      <trkpt lat="59.9986359697" lon="23.3600374584">
        <ele>30.4</ele>
        <time>2012-03-01T09:38:27Z</time>
      </trkpt>
      <trkpt lat="59.9985985026" lon="23.3598796272">
        <ele>30.4</ele>
        <time>2012-03-01T09:38:30Z</time>
      </trkpt>
      <trkpt lat="59.9985863489" lon="23.3598174335">
        <ele>30.4</ele>
        <time>2012-03-01T09:38:31Z</time>
      </trkpt>
      <trkpt lat="59.9986090638" lon="23.3592980071">
        <ele>30.4</ele>
        <time>2012-03-01T09:38:41Z</time>
      </trkpt>
      <trkpt lat="59.9986874346" lon="23.3591532517">
        <ele>30.4</ele>
        <time>2012-03-01T09:38:45Z</time>
      </trkpt>
      <trkpt lat="59.9988135822" lon="23.3590606317">
        <ele>30.4</ele>
        <time>2012-03-01T09:38:50Z</time>
      </trkpt>
      <trkpt lat="59.9989637858" lon="23.3590108432">
        <ele>30.4</ele>
        <time>2012-03-01T09:38:55Z</time>
      </trkpt>
      <trkpt lat="59.9991253889" lon="23.3589721189">
        <ele>30.4</ele>
        <time>2012-03-01T09:38:59Z</time>
      </trkpt>
      <trkpt lat="59.9992632711" lon="23.3589278624">
        <ele>30.4</ele>
        <time>2012-03-01T09:39:03Z</time>
      </trkpt>
      <trkpt lat="59.9993655303" lon="23.3588944186">
        <ele>30.4</ele>
        <time>2012-03-01T09:39:07Z</time>
      </trkpt>
      <trkpt lat="59.9994864811" lon="23.3588261062">
        <ele>30.4</ele>
        <time>2012-03-01T09:39:12Z</time>
      </trkpt>
      <trkpt lat="59.9995614991" lon="23.3587417843">
        <ele>30.4</ele>
        <time>2012-03-01T09:39:16Z</time>
      </trkpt>
      <trkpt lat="59.9996604055" lon="23.3586332386">
        <ele>30.4</ele>
        <time>2012-03-01T09:39:20Z</time>
      </trkpt>
      <trkpt lat="59.9997097749" lon="23.3585633336">
        <ele>30.4</ele>
        <time>2012-03-01T09:39:22Z</time>
      </trkpt>
      <trkpt lat="59.9997821945" lon="23.3585100247">
        <ele>30.4</ele>
        <time>2012-03-01T09:39:25Z</time>
      </trkpt>
      <trkpt lat="59.9998520996" lon="23.3583814464">
        <ele>30.4</ele>
        <time>2012-03-01T09:39:29Z</time>
      </trkpt>
      <trkpt lat="59.999913958" lon="23.3582276385">
        <ele>30.4</ele>
        <time>2012-03-01T09:39:33Z</time>
      </trkpt>
      <trkpt lat="59.9999202444" lon="23.3581927698">
        <ele>30.4</ele>
        <time>2012-03-01T09:39:34Z</time>
      </trkpt>
      <trkpt lat="59.9999458092" lon="23.3580128104">
        <ele>30.4</ele>
        <time>2012-03-01T09:39:38Z</time>
      </trkpt>
      <trkpt lat="60.0000141217" lon="23.3578006645">
        <ele>30.4</ele>
        <time>2012-03-01T09:39:43Z</time>
      </trkpt>
      <trkpt lat="60.0001088372" lon="23.3576885985">
        <ele>30.4</ele>
        <time>2012-03-01T09:39:48Z</time>
      </trkpt>
      <trkpt lat="60.0002208194" lon="23.3576403188">
        <ele>30.4</ele>
        <time>2012-03-01T09:39:54Z</time>
      </trkpt>
      <trkpt lat="60.0003535048" lon="23.3575349583">
        <ele>31</ele>
        <time>2012-03-01T09:40:00Z</time>
      </trkpt>
      <trkpt lat="60.0004503158" lon="23.3574028595">
        <ele>31.6</ele>
        <time>2012-03-01T09:40:04Z</time>
      </trkpt>
      <trkpt lat="60.0005380743" lon="23.357313257">
        <ele>31.8</ele>
        <time>2012-03-01T09:40:07Z</time>
      </trkpt>
      <trkpt lat="60.0006226477" lon="23.357401267">
        <ele>32</ele>
        <time>2012-03-01T09:40:11Z</time>
      </trkpt>
      <trkpt lat="60.0006416746" lon="23.3574419192">
        <ele>32</ele>
        <time>2012-03-01T09:40:13Z</time>
      </trkpt>
      <trkpt lat="60.0007243201" lon="23.3576298414">
        <ele>32.2</ele>
        <time>2012-03-01T09:40:18Z</time>
      </trkpt>
      <trkpt lat="60.0008131682" lon="23.3577876726">
        <ele>32.4</ele>
        <time>2012-03-01T09:40:22Z</time>
      </trkpt>
      <trkpt lat="60.0008953109" lon="23.3579505329">
        <ele>32.4</ele>
        <time>2012-03-01T09:40:26Z</time>
      </trkpt>
      <trkpt lat="60.000932778" lon="23.3580494393">
        <ele>32.4</ele>
        <time>2012-03-01T09:40:28Z</time>
      </trkpt>
      <trkpt lat="60.0010289184" lon="23.3582433965">
        <ele>32.4</ele>
        <time>2012-03-01T09:40:33Z</time>
      </trkpt>
      <trkpt lat="60.0011171798" lon="23.3584229368">
        <ele>32.4</ele>
        <time>2012-03-01T09:40:38Z</time>
      </trkpt>
      <trkpt lat="60.0011998253" lon="23.3585675245">
        <ele>32.4</ele>
        <time>2012-03-01T09:40:42Z</time>
      </trkpt>
      <trkpt lat="60.0013235421" lon="23.3588105996">
        <ele>32.8</ele>
        <time>2012-03-01T09:40:48Z</time>
      </trkpt>
      <trkpt lat="60.0014176709" lon="23.3590074067">
        <ele>33.6</ele>
        <time>2012-03-01T09:40:53Z</time>
      </trkpt>
      <trkpt lat="60.0015383702" lon="23.3592595342">
        <ele>34</ele>
        <time>2012-03-01T09:40:59Z</time>
      </trkpt>
      <trkpt lat="60.0016496819" lon="23.3594223945">
        <ele>34.2</ele>
        <time>2012-03-01T09:41:04Z</time>
      </trkpt>
      <trkpt lat="60.0017499294" lon="23.3595343767">
        <ele>34.2</ele>
        <time>2012-03-01T09:41:08Z</time>
      </trkpt>
      <trkpt lat="60.0018680304" lon="23.3596541541">
        <ele>34.4</ele>
        <time>2012-03-01T09:41:13Z</time>
      </trkpt>
      <trkpt lat="60.0019783362" lon="23.359748199">
        <ele>34.4</ele>
        <time>2012-03-01T09:41:18Z</time>
      </trkpt>
      <trkpt lat="60.0021058249" lon="23.3598470216">
        <ele>34.4</ele>
        <time>2012-03-01T09:41:23Z</time>
      </trkpt>
      <trkpt lat="60.0022328106" lon="23.3598628634">
        <ele>34.4</ele>
        <time>2012-03-01T09:41:28Z</time>
      </trkpt>
      <trkpt lat="60.0023531747" lon="23.359851464">
        <ele>34.4</ele>
        <time>2012-03-01T09:41:33Z</time>
      </trkpt>
      <trkpt lat="60.0026891213" lon="23.3598087163">
        <ele>35.4</ele>
        <time>2012-03-01T09:41:46Z</time>
      </trkpt>
      <trkpt lat="60.0028099045" lon="23.3597838221">
        <ele>35.8</ele>
        <time>2012-03-01T09:41:51Z</time>
      </trkpt>
      <trkpt lat="60.0029401592" lon="23.3597636217">
        <ele>36.2</ele>
        <time>2012-03-01T09:41:56Z</time>
      </trkpt>
      <trkpt lat="60.0030419993" lon="23.3597523899">
        <ele>36.2</ele>
        <time>2012-03-01T09:42:00Z</time>
      </trkpt>
      <trkpt lat="60.0031423306" lon="23.3597239753">
        <ele>36.4</ele>
        <time>2012-03-01T09:42:04Z</time>
      </trkpt>
      <trkpt lat="60.0032546481" lon="23.3597024338">
        <ele>36.4</ele>
        <time>2012-03-01T09:42:09Z</time>
      </trkpt>
      <trkpt lat="60.0033614335" lon="23.3596774557">
        <ele>36.4</ele>
        <time>2012-03-01T09:42:14Z</time>
      </trkpt>
      <trkpt lat="60.0034874134" lon="23.3596876817">
        <ele>36.4</ele>
        <time>2012-03-01T09:42:19Z</time>
      </trkpt>
      <trkpt lat="60.0036306601" lon="23.3597198682">
        <ele>37.4</ele>
        <time>2012-03-01T09:42:24Z</time>
      </trkpt>
      <trkpt lat="60.0037407145" lon="23.359726909">
        <ele>37.8</ele>
        <time>2012-03-01T09:42:28Z</time>
      </trkpt>
      <trkpt lat="60.0038203425" lon="23.3597353747">
        <ele>38</ele>
        <time>2012-03-01T09:42:31Z</time>
      </trkpt>
      <trkpt lat="60.0039389464" lon="23.3597690699">
        <ele>38.2</ele>
        <time>2012-03-01T09:42:37Z</time>
      </trkpt>
      <trkpt lat="60.0040677762" lon="23.3597711654">
        <ele>39</ele>
        <time>2012-03-01T09:42:42Z</time>
      </trkpt>
      <trkpt lat="60.0043060736" lon="23.3599775278">
        <ele>40</ele>
        <time>2012-03-01T09:42:50Z</time>
      </trkpt>
      <trkpt lat="60.0044164632" lon="23.3600811281">
        <ele>40.2</ele>
        <time>2012-03-01T09:42:53Z</time>
      </trkpt>
      <trkpt lat="60.0044950855" lon="23.3602002349">
        <ele>40.2</ele>
        <time>2012-03-01T09:42:55Z</time>
      </trkpt>
      <trkpt lat="60.0046044693" lon="23.3604839622">
        <ele>40.4</ele>
        <time>2012-03-01T09:42:59Z</time>
      </trkpt>
      <trkpt lat="60.0046265975" lon="23.3605464073">
        <ele>40.4</ele>
        <time>2012-03-01T09:43:00Z</time>
      </trkpt>
      <trkpt lat="60.0046432775" lon="23.3606261192">
        <ele>40.4</ele>
        <time>2012-03-01T09:43:01Z</time>
      </trkpt>
      <trkpt lat="60.004629112" lon="23.3608988662">
        <ele>40.6</ele>
        <time>2012-03-01T09:43:04Z</time>
      </trkpt>
      <trkpt lat="60.0046228256" lon="23.3610090882">
        <ele>40.6</ele>
        <time>2012-03-01T09:43:05Z</time>
      </trkpt>
      <trkpt lat="60.0046284415" lon="23.361431536">
        <ele>40.6</ele>
        <time>2012-03-01T09:43:09Z</time>
      </trkpt>
      <trkpt lat="60.0046715245" lon="23.3616513932">
        <ele>40.6</ele>
        <time>2012-03-01T09:43:11Z</time>
      </trkpt>
      <trkpt lat="60.0047309521" lon="23.3619838194">
        <ele>40.6</ele>
        <time>2012-03-01T09:43:15Z</time>
      </trkpt>
      <trkpt lat="60.004732377" lon="23.3621737532">
        <ele>40.6</ele>
        <time>2012-03-01T09:43:17Z</time>
      </trkpt>
      <trkpt lat="60.0047615461" lon="23.3624676226">
        <ele>40.6</ele>
        <time>2012-03-01T09:43:20Z</time>
      </trkpt>
      <trkpt lat="60.0047924753" lon="23.3626593167">
        <ele>40.6</ele>
        <time>2012-03-01T09:43:23Z</time>
      </trkpt>
      <trkpt lat="60.0048291042" lon="23.3628719655">
        <ele>40.6</ele>
        <time>2012-03-01T09:43:27Z</time>
      </trkpt>
      <trkpt lat="60.0048388272" lon="23.3629185688">
        <ele>40.6</ele>
        <time>2012-03-01T09:43:28Z</time>
      </trkpt>
      <trkpt lat="60.0048598657" lon="23.3631430361">
        <ele>40.6</ele>
        <time>2012-03-01T09:43:33Z</time>
      </trkpt>
      <trkpt lat="60.0048980034" lon="23.3632718659">
        <ele>40.6</ele>
        <time>2012-03-01T09:43:37Z</time>
      </trkpt>
      <trkpt lat="60.0049110792" lon="23.3633104227">
        <ele>40.6</ele>
        <time>2012-03-01T09:43:38Z</time>
      </trkpt>
      <trkpt lat="60.0049710097" lon="23.3634799885">
        <ele>40.6</ele>
        <time>2012-03-01T09:43:44Z</time>
      </trkpt>
      <trkpt lat="60.0049879412" lon="23.3635072297">
        <ele>40.6</ele>
        <time>2012-03-01T09:43:45Z</time>
      </trkpt>
      <trkpt lat="60.005027839" lon="23.3635794817">
        <ele>40.6</ele>
        <time>2012-03-01T09:43:49Z</time>
      </trkpt>
      <trkpt lat="60.0051124124" lon="23.3637202976">
        <ele>40.6</ele>
        <time>2012-03-01T09:43:56Z</time>
      </trkpt>
      <trkpt lat="60.0051997518" lon="23.3638304357">
        <ele>40.6</ele>
        <time>2012-03-01T09:44:01Z</time>
      </trkpt>
      <trkpt lat="60.0052747698" lon="23.3639301803">
        <ele>40.6</ele>
        <time>2012-03-01T09:44:04Z</time>
      </trkpt>
      <trkpt lat="60.0054103051" lon="23.364089185">
        <ele>40.6</ele>
        <time>2012-03-01T09:44:10Z</time>
      </trkpt>
      <trkpt lat="60.0055415657" lon="23.3642824716">
        <ele>40.6</ele>
        <time>2012-03-01T09:44:16Z</time>
      </trkpt>
      <trkpt lat="60.0056231216" lon="23.3644173364">
        <ele>40.6</ele>
        <time>2012-03-01T09:44:20Z</time>
      </trkpt>
      <trkpt lat="60.0056906797" lon="23.3645620918">
        <ele>40.6</ele>
        <time>2012-03-01T09:44:24Z</time>
      </trkpt>
      <trkpt lat="60.0057693857" lon="23.364742135">
        <ele>40.6</ele>
        <time>2012-03-01T09:44:29Z</time>
      </trkpt>
      <trkpt lat="60.0058732375" lon="23.3649717991">
        <ele>40.6</ele>
        <time>2012-03-01T09:44:34Z</time>
      </trkpt>
      <trkpt lat="60.0059983792" lon="23.3652321409">
        <ele>40.6</ele>
        <time>2012-03-01T09:44:40Z</time>
      </trkpt>
      <trkpt lat="60.0061215093" lon="23.3654296184">
        <ele>40.6</ele>
        <time>2012-03-01T09:44:45Z</time>
      </trkpt>
      <trkpt lat="60.0062724674" lon="23.3656285209">
        <ele>40.6</ele>
        <time>2012-03-01T09:44:49Z</time>
      </trkpt>
      <trkpt lat="60.0065548536" lon="23.3661658845">
        <ele>40.6</ele>
        <time>2012-03-01T09:44:59Z</time>
      </trkpt>
      <trkpt lat="60.0065896384" lon="23.366206872">
        <ele>40.6</ele>
        <time>2012-03-01T09:45:00Z</time>
      </trkpt>
      <trkpt lat="60.0066274408" lon="23.3662345323">
        <ele>40.6</ele>
        <time>2012-03-01T09:45:01Z</time>
      </trkpt>
      <trkpt lat="60.0067282751" lon="23.3662908587">
        <ele>40.6</ele>
        <time>2012-03-01T09:45:04Z</time>
      </trkpt>
      <trkpt lat="60.0067856911" lon="23.3663160882">
        <ele>40.6</ele>
        <time>2012-03-01T09:45:06Z</time>
      </trkpt>
      <trkpt lat="60.0069135989" lon="23.3664644478">
        <ele>40.6</ele>
        <time>2012-03-01T09:45:11Z</time>
      </trkpt>
      <trkpt lat="60.0069490543" lon="23.3664948741">
        <ele>40.6</ele>
        <time>2012-03-01T09:45:12Z</time>
      </trkpt>
      <trkpt lat="60.0070645569" lon="23.3666708102">
        <ele>40.6</ele>
        <time>2012-03-01T09:45:16Z</time>
      </trkpt>
      <trkpt lat="60.0071740245" lon="23.3668559664">
        <ele>40.6</ele>
        <time>2012-03-01T09:45:19Z</time>
      </trkpt>
      <trkpt lat="60.0072893595" lon="23.3670339979">
        <ele>40.6</ele>
        <time>2012-03-01T09:45:23Z</time>
      </trkpt>
      <trkpt lat="60.0073466078" lon="23.3671416215">
        <ele>40.6</ele>
        <time>2012-03-01T09:45:25Z</time>
      </trkpt>
      <trkpt lat="60.0075098873" lon="23.3674728742">
        <ele>40.6</ele>
        <time>2012-03-01T09:45:30Z</time>
      </trkpt>
      <trkpt lat="60.0075399783" lon="23.3675252611">
        <ele>40.6</ele>
        <time>2012-03-01T09:45:31Z</time>
      </trkpt>
      <trkpt lat="60.0075610168" lon="23.3675668353">
        <ele>40.6</ele>
        <time>2012-03-01T09:45:32Z</time>
      </trkpt>
      <trkpt lat="60.0076811295" lon="23.3678793125">
        <ele>40.4</ele>
        <time>2012-03-01T09:45:38Z</time>
      </trkpt>
      <trkpt lat="60.007692445" lon="23.3679195457">
        <ele>40.2</ele>
        <time>2012-03-01T09:45:39Z</time>
      </trkpt>
      <trkpt lat="60.0077532138" lon="23.368240321">
        <ele>39.6</ele>
        <time>2012-03-01T09:45:44Z</time>
      </trkpt>
      <trkpt lat="60.0077667087" lon="23.3683056998">
        <ele>39.6</ele>
        <time>2012-03-01T09:45:45Z</time>
      </trkpt>
      <trkpt lat="60.0078304111" lon="23.3687499405">
        <ele>39.2</ele>
        <time>2012-03-01T09:45:51Z</time>
      </trkpt>
      <trkpt lat="60.0078841391" lon="23.3688645211">
        <ele>38.8</ele>
        <time>2012-03-01T09:45:53Z</time>
      </trkpt>
      <trkpt lat="60.0080002284" lon="23.3691363461">
        <ele>37.8</ele>
        <time>2012-03-01T09:45:58Z</time>
      </trkpt>
      <trkpt lat="60.0080225243" lon="23.369197031">
        <ele>37.8</ele>
        <time>2012-03-01T09:45:59Z</time>
      </trkpt>
      <trkpt lat="60.0080802755" lon="23.3693706202">
        <ele>37.4</ele>
        <time>2012-03-01T09:46:02Z</time>
      </trkpt>
      <trkpt lat="60.0082189122" lon="23.3696069059">
        <ele>37</ele>
        <time>2012-03-01T09:46:08Z</time>
      </trkpt>
      <trkpt lat="60.0083019768" lon="23.3697398429">
        <ele>36.8</ele>
        <time>2012-03-01T09:46:13Z</time>
      </trkpt>
      <trkpt lat="60.0083582193" lon="23.3698253383">
        <ele>36.6</ele>
        <time>2012-03-01T09:46:17Z</time>
      </trkpt>
      <trkpt lat="60.0084284597" lon="23.3699094087">
        <ele>36.6</ele>
        <time>2012-03-01T09:46:21Z</time>
      </trkpt>
      <trkpt lat="60.0085587144" lon="23.3700331256">
        <ele>37.4</ele>
        <time>2012-03-01T09:46:27Z</time>
      </trkpt>
      <trkpt lat="60.0086802519" lon="23.3701113287">
        <ele>37.8</ele>
        <time>2012-03-01T09:46:31Z</time>
      </trkpt>
      <trkpt lat="60.0087690163" lon="23.3701026115">
        <ele>38</ele>
        <time>2012-03-01T09:46:34Z</time>
      </trkpt>
      <trkpt lat="60.0089123468" lon="23.3700954031">
        <ele>39.2</ele>
        <time>2012-03-01T09:46:39Z</time>
      </trkpt>
      <trkpt lat="60.0090231555" lon="23.3701066348">
        <ele>39.8</ele>
        <time>2012-03-01T09:46:43Z</time>
      </trkpt>
      <trkpt lat="60.0092245725" lon="23.3702249034">
        <ele>40.2</ele>
        <time>2012-03-01T09:46:49Z</time>
      </trkpt>
      <trkpt lat="60.0093175278" lon="23.3702874324">
        <ele>40.4</ele>
        <time>2012-03-01T09:46:52Z</time>
      </trkpt>
      <trkpt lat="60.0094600201" lon="23.3703606064">
        <ele>40.6</ele>
        <time>2012-03-01T09:46:56Z</time>
      </trkpt>
      <trkpt lat="60.0096256464" lon="23.3704891009">
        <ele>40.6</ele>
        <time>2012-03-01T09:47:01Z</time>
      </trkpt>
      <trkpt lat="60.0097548953" lon="23.370594629">
        <ele>40.8</ele>
        <time>2012-03-01T09:47:05Z</time>
      </trkpt>
      <trkpt lat="60.0098709008" lon="23.3707040967">
        <ele>40.8</ele>
        <time>2012-03-01T09:47:09Z</time>
      </trkpt>
      <trkpt lat="60.0100323362" lon="23.370848433">
        <ele>40.8</ele>
        <time>2012-03-01T09:47:15Z</time>
      </trkpt>
      <trkpt lat="60.0101479226" lon="23.3709863152">
        <ele>40.8</ele>
        <time>2012-03-01T09:47:19Z</time>
      </trkpt>
      <trkpt lat="60.0102429734" lon="23.3710777618">
        <ele>40.8</ele>
        <time>2012-03-01T09:47:23Z</time>
      </trkpt>
      <trkpt lat="60.0103714679" lon="23.3712955235">
        <ele>40.8</ele>
        <time>2012-03-01T09:47:29Z</time>
      </trkpt>
      <trkpt lat="60.0104536943" lon="23.371454612">
        <ele>41.6</ele>
        <time>2012-03-01T09:47:33Z</time>
      </trkpt>
      <trkpt lat="60.0105507568" lon="23.3716567834">
        <ele>42.2</ele>
        <time>2012-03-01T09:47:38Z</time>
      </trkpt>
      <trkpt lat="60.0105857931" lon="23.3717085836">
        <ele>42.2</ele>
        <time>2012-03-01T09:47:40Z</time>
      </trkpt>
      <trkpt lat="60.0106643315" lon="23.3718691808">
        <ele>42.4</ele>
        <time>2012-03-01T09:47:44Z</time>
      </trkpt>
      <trkpt lat="60.0107711169" lon="23.3720809914">
        <ele>42.6</ele>
        <time>2012-03-01T09:47:49Z</time>
      </trkpt>
      <trkpt lat="60.0108409381" lon="23.3722230646">
        <ele>42.8</ele>
        <time>2012-03-01T09:47:53Z</time>
      </trkpt>
      <trkpt lat="60.0109221587" lon="23.3723596895">
        <ele>42.8</ele>
        <time>2012-03-01T09:47:57Z</time>
      </trkpt>
      <trkpt lat="60.0110454565" lon="23.3725148385">
        <ele>42.8</ele>
        <time>2012-03-01T09:48:03Z</time>
      </trkpt>
      <trkpt lat="60.0111405072" lon="23.3726209534">
        <ele>42.8</ele>
        <time>2012-03-01T09:48:07Z</time>
      </trkpt>
      <trkpt lat="60.0112819099" lon="23.3727581651">
        <ele>42.8</ele>
        <time>2012-03-01T09:48:13Z</time>
      </trkpt>
      <trkpt lat="60.0113848396" lon="23.3728610948">
        <ele>42.8</ele>
        <time>2012-03-01T09:48:17Z</time>
      </trkpt>
      <trkpt lat="60.0114723467" lon="23.3729608394">
        <ele>42.8</ele>
        <time>2012-03-01T09:48:21Z</time>
      </trkpt>
      <trkpt lat="60.0116002545" lon="23.3730943631">
        <ele>42.8</ele>
        <time>2012-03-01T09:48:26Z</time>
      </trkpt>
      <trkpt lat="60.0116906113" lon="23.3731861449">
        <ele>42.8</ele>
        <time>2012-03-01T09:48:30Z</time>
      </trkpt>
      <trkpt lat="60.0117829799" lon="23.3732645995">
        <ele>42.8</ele>
        <time>2012-03-01T09:48:34Z</time>
      </trkpt>
      <trkpt lat="60.0119372068" lon="23.3733945189">
        <ele>42.8</ele>
        <time>2012-03-01T09:48:40Z</time>
      </trkpt>
      <trkpt lat="60.0120739994" lon="23.3735114464">
        <ele>42.8</ele>
        <time>2012-03-01T09:48:46Z</time>
      </trkpt>
      <trkpt lat="60.0122226105" lon="23.3735794236">
        <ele>42.8</ele>
        <time>2012-03-01T09:48:52Z</time>
      </trkpt>
      <trkpt lat="60.0122789369" lon="23.3736061619">
        <ele>42.8</ele>
        <time>2012-03-01T09:48:54Z</time>
      </trkpt>
      <trkpt lat="60.012389578" lon="23.3737154619">
        <ele>42.8</ele>
        <time>2012-03-01T09:48:59Z</time>
      </trkpt>
      <trkpt lat="60.0124132149" lon="23.3737412781">
        <ele>42.8</ele>
        <time>2012-03-01T09:49:00Z</time>
      </trkpt>
      <trkpt lat="60.0125898216" lon="23.3739406835">
        <ele>42.8</ele>
        <time>2012-03-01T09:49:08Z</time>
      </trkpt>
      <trkpt lat="60.012735499" lon="23.3741013645">
        <ele>42.8</ele>
        <time>2012-03-01T09:49:14Z</time>
      </trkpt>
      <trkpt lat="60.012829041" lon="23.3741845968">
        <ele>42.8</ele>
        <time>2012-03-01T09:49:18Z</time>
      </trkpt>
      <trkpt lat="60.0128898936" lon="23.3742435216">
        <ele>42.8</ele>
        <time>2012-03-01T09:49:21Z</time>
      </trkpt>
      <trkpt lat="60.0129501594" lon="23.3743000994">
        <ele>42.8</ele>
        <time>2012-03-01T09:49:24Z</time>
      </trkpt>
      <trkpt lat="60.0130737925" lon="23.3743949825">
        <ele>42.8</ele>
        <time>2012-03-01T09:49:29Z</time>
      </trkpt>
      <trkpt lat="60.0133985911" lon="23.3745979921">
        <ele>42.8</ele>
        <time>2012-03-01T09:49:38Z</time>
      </trkpt>
      <trkpt lat="60.0134525705" lon="23.3746218805">
        <ele>42.8</ele>
        <time>2012-03-01T09:49:39Z</time>
      </trkpt>
      <trkpt lat="60.0137074641" lon="23.3747241397">
        <ele>42.8</ele>
        <time>2012-03-01T09:49:44Z</time>
      </trkpt>
      <trkpt lat="60.0137527264" lon="23.3747541469">
        <ele>42.8</ele>
        <time>2012-03-01T09:49:45Z</time>
      </trkpt>
      <trkpt lat="60.0138010899" lon="23.3747969784">
        <ele>42.8</ele>
        <time>2012-03-01T09:49:46Z</time>
      </trkpt>
      <trkpt lat="60.0139326019" lon="23.3748716612">
        <ele>42.8</ele>
        <time>2012-03-01T09:49:49Z</time>
      </trkpt>
      <trkpt lat="60.013972416" lon="23.3748928674">
        <ele>42.8</ele>
        <time>2012-03-01T09:49:50Z</time>
      </trkpt>
      <trkpt lat="60.0141439096" lon="23.374980542">
        <ele>42.8</ele>
        <time>2012-03-01T09:49:54Z</time>
      </trkpt>
      <trkpt lat="60.0144423891" lon="23.3751652791">
        <ele>42.8</ele>
        <time>2012-03-01T09:50:02Z</time>
      </trkpt>
      <trkpt lat="60.01447994" lon="23.3752004831">
        <ele>42.8</ele>
        <time>2012-03-01T09:50:03Z</time>
      </trkpt>
      <trkpt lat="60.0145215981" lon="23.3752226951">
        <ele>42.8</ele>
        <time>2012-03-01T09:50:04Z</time>
      </trkpt>
      <trkpt lat="60.0146926726" lon="23.3753521955">
        <ele>42.8</ele>
        <time>2012-03-01T09:50:09Z</time>
      </trkpt>
      <trkpt lat="60.0148190717" lon="23.3754726434">
        <ele>42.8</ele>
        <time>2012-03-01T09:50:13Z</time>
      </trkpt>
      <trkpt lat="60.0149117755" lon="23.3755462365">
        <ele>42.8</ele>
        <time>2012-03-01T09:50:16Z</time>
      </trkpt>
      <trkpt lat="60.0150264399" lon="23.3756531895">
        <ele>42.6</ele>
        <time>2012-03-01T09:50:19Z</time>
      </trkpt>
      <trkpt lat="60.0151178026" lon="23.3757253577">
        <ele>42.4</ele>
        <time>2012-03-01T09:50:21Z</time>
      </trkpt>
      <trkpt lat="60.0153008633" lon="23.3759032216">
        <ele>41.8</ele>
        <time>2012-03-01T09:50:25Z</time>
      </trkpt>
      <trkpt lat="60.0154029548" lon="23.3760742962">
        <ele>41.6</ele>
        <time>2012-03-01T09:50:28Z</time>
      </trkpt>
      <trkpt lat="60.0155260011" lon="23.3763811575">
        <ele>41.4</ele>
        <time>2012-03-01T09:50:33Z</time>
      </trkpt>
      <trkpt lat="60.0156490474" lon="23.3767414116">
        <ele>40.6</ele>
        <time>2012-03-01T09:50:39Z</time>
      </trkpt>
      <trkpt lat="60.0157706688" lon="23.3769452594">
        <ele>40.2</ele>
        <time>2012-03-01T09:50:42Z</time>
      </trkpt>
      <trkpt lat="60.015938223" lon="23.3771675474">
        <ele>39.8</ele>
        <time>2012-03-01T09:50:45Z</time>
      </trkpt>
      <trkpt lat="60.0160165937" lon="23.3776531947">
        <ele>39.4</ele>
        <time>2012-03-01T09:50:49Z</time>
      </trkpt>
      <trkpt lat="60.0160213714" lon="23.3778798412">
        <ele>39</ele>
        <time>2012-03-01T09:50:52Z</time>
      </trkpt>
      <trkpt lat="60.0160030989" lon="23.3779448848">
        <ele>38.8</ele>
        <time>2012-03-01T09:50:53Z</time>
      </trkpt>
      <trkpt lat="60.0159796296" lon="23.378055023">
        <ele>38.2</ele>
        <time>2012-03-01T09:50:56Z</time>
      </trkpt>
      <trkpt lat="60.0159683978" lon="23.3780792466">
        <ele>37.2</ele>
        <time>2012-03-01T09:51:08Z</time>
      </trkpt>
      <trkpt lat="60.0159468563" lon="23.3781171328">
        <ele>40.4</ele>
        <time>2012-03-01T09:51:55Z</time>
      </trkpt>
      <trkpt lat="60.0159458505" lon="23.3781041409">
        <ele>42.4</ele>
        <time>2012-03-01T09:52:14Z</time>
      </trkpt>
      <trkpt lat="60.0159598483" lon="23.3778983652">
        <ele>42.6</ele>
        <time>2012-03-01T09:52:18Z</time>
      </trkpt>
      <trkpt lat="60.015952556" lon="23.3777163942">
        <ele>42.6</ele>
        <time>2012-03-01T09:52:20Z</time>
      </trkpt>
      <trkpt lat="60.0159397317" lon="23.37762478">
        <ele>42.6</ele>
        <time>2012-03-01T09:52:21Z</time>
      </trkpt>
      <trkpt lat="60.0158441781" lon="23.377348345">
        <ele>42.8</ele>
        <time>2012-03-01T09:52:25Z</time>
      </trkpt>
      <trkpt lat="60.0157553299" lon="23.3772121391">
        <ele>42.8</ele>
        <time>2012-03-01T09:52:29Z</time>
      </trkpt>
      <trkpt lat="60.0157399072" lon="23.3771946209">
        <ele>42.8</ele>
        <time>2012-03-01T09:52:30Z</time>
      </trkpt>
      <trkpt lat="60.0156891129" lon="23.3771453353">
        <ele>43</ele>
        <time>2012-03-01T09:52:35Z</time>
      </trkpt>
      <trkpt lat="60.0156533222" lon="23.377115412">
        <ele>43</ele>
        <time>2012-03-01T09:52:39Z</time>
      </trkpt>
      <trkpt lat="60.0156171124" lon="23.3770849857">
        <ele>43</ele>
        <time>2012-03-01T09:52:43Z</time>
      </trkpt>
      <trkpt lat="60.0155949842" lon="23.3770648691">
        <ele>43</ele>
        <time>2012-03-01T09:52:45Z</time>
      </trkpt>
      <trkpt lat="60.0155339639" lon="23.3769854925">
        <ele>43</ele>
        <time>2012-03-01T09:52:52Z</time>
      </trkpt>
      <trkpt lat="60.0155162781" lon="23.3769491151">
        <ele>43.2</ele>
        <time>2012-03-01T09:52:54Z</time>
      </trkpt>
      <trkpt lat="60.0154826667" lon="23.3768550702">
        <ele>44</ele>
        <time>2012-03-01T09:52:59Z</time>
      </trkpt>
      <trkpt lat="60.015471435" lon="23.3768258173">
        <ele>44.2</ele>
        <time>2012-03-01T09:53:00Z</time>
      </trkpt>
      <trkpt lat="60.0154335488" lon="23.3766873483">
        <ele>44.6</ele>
        <time>2012-03-01T09:53:04Z</time>
      </trkpt>
      <trkpt lat="60.0153966684" lon="23.3765385696">
        <ele>44.8</ele>
        <time>2012-03-01T09:53:08Z</time>
      </trkpt>
      <trkpt lat="60.0153276854" lon="23.3763389127">
        <ele>45.2</ele>
        <time>2012-03-01T09:53:12Z</time>
      </trkpt>
      <trkpt lat="60.0152504881" lon="23.3761926486">
        <ele>45.8</ele>
        <time>2012-03-01T09:53:16Z</time>
      </trkpt>
      <trkpt lat="60.0152302877" lon="23.3761620547">
        <ele>46</ele>
        <time>2012-03-01T09:53:17Z</time>
      </trkpt>
      <trkpt lat="60.015115288" lon="23.3760552693">
        <ele>46.6</ele>
        <time>2012-03-01T09:53:22Z</time>
      </trkpt>
      <trkpt lat="60.0150478976" lon="23.3760054808">
        <ele>46.8</ele>
        <time>2012-03-01T09:53:25Z</time>
      </trkpt>
      <trkpt lat="60.0149354963" lon="23.3759190634">
        <ele>47</ele>
        <time>2012-03-01T09:53:31Z</time>
      </trkpt>
      <trkpt lat="60.0148645854" lon="23.375845135">
        <ele>47</ele>
        <time>2012-03-01T09:53:35Z</time>
      </trkpt>
      <trkpt lat="60.0147856279" lon="23.3757927481">
        <ele>47.2</ele>
        <time>2012-03-01T09:53:39Z</time>
      </trkpt>
      <trkpt lat="60.0146489191" lon="23.3756894831">
        <ele>47.2</ele>
        <time>2012-03-01T09:53:44Z</time>
      </trkpt>
      <trkpt lat="60.0145697102" lon="23.3756681931">
        <ele>47.2</ele>
        <time>2012-03-01T09:53:46Z</time>
      </trkpt>
      <trkpt lat="60.0144531179" lon="23.3756343302">
        <ele>47.2</ele>
        <time>2012-03-01T09:53:49Z</time>
      </trkpt>
      <trkpt lat="60.0144205123" lon="23.3756178179">
        <ele>47.2</ele>
        <time>2012-03-01T09:53:50Z</time>
      </trkpt>
      <trkpt lat="60.0143428959" lon="23.3756184884">
        <ele>47.2</ele>
        <time>2012-03-01T09:53:52Z</time>
      </trkpt>
      <trkpt lat="60.0142048461" lon="23.375590912">
        <ele>47.2</ele>
        <time>2012-03-01T09:53:56Z</time>
      </trkpt>
      <trkpt lat="60.0140936182" lon="23.375524695">
        <ele>47.2</ele>
        <time>2012-03-01T09:54:00Z</time>
      </trkpt>
      <trkpt lat="60.0140393035" lon="23.3754600705">
        <ele>47.2</ele>
        <time>2012-03-01T09:54:02Z</time>
      </trkpt>
      <trkpt lat="60.0139144132" lon="23.3753584819">
        <ele>47.2</ele>
        <time>2012-03-01T09:54:07Z</time>
      </trkpt>
      <trkpt lat="60.0137850805" lon="23.3752123016">
        <ele>47.2</ele>
        <time>2012-03-01T09:54:12Z</time>
      </trkpt>
      <trkpt lat="60.0137616112" lon="23.3751780196">
        <ele>47.2</ele>
        <time>2012-03-01T09:54:13Z</time>
      </trkpt>
      <trkpt lat="60.0136742718" lon="23.3750756766">
        <ele>47.2</ele>
        <time>2012-03-01T09:54:17Z</time>
      </trkpt>
      <trkpt lat="60.0135634631" lon="23.3750049334">
        <ele>47.2</ele>
        <time>2012-03-01T09:54:22Z</time>
      </trkpt>
      <trkpt lat="60.0135453582" lon="23.3750002395">
        <ele>47.2</ele>
        <time>2012-03-01T09:54:23Z</time>
      </trkpt>
      <trkpt lat="60.0135246549" lon="23.3749779436">
        <ele>47.2</ele>
        <time>2012-03-01T09:54:24Z</time>
      </trkpt>
      <trkpt lat="60.0134131756" lon="23.3749169234">
        <ele>47.2</ele>
        <time>2012-03-01T09:54:29Z</time>
      </trkpt>
      <trkpt lat="60.0133275964" lon="23.3748586692">
        <ele>47.2</ele>
        <time>2012-03-01T09:54:33Z</time>
      </trkpt>
      <trkpt lat="60.0131692623" lon="23.3747528058">
        <ele>47.6</ele>
        <time>2012-03-01T09:54:40Z</time>
      </trkpt>
      <trkpt lat="60.0130675899" lon="23.3746731778">
        <ele>48.2</ele>
        <time>2012-03-01T09:54:44Z</time>
      </trkpt>
      <trkpt lat="60.0129727068" lon="23.3745789652">
        <ele>48.6</ele>
        <time>2012-03-01T09:54:48Z</time>
      </trkpt>
      <trkpt lat="60.0129353235" lon="23.3745609441">
        <ele>48.6</ele>
        <time>2012-03-01T09:54:49Z</time>
      </trkpt>
      <trkpt lat="60.0128399375" lon="23.374486429">
        <ele>48.8</ele>
        <time>2012-03-01T09:54:52Z</time>
      </trkpt>
      <trkpt lat="60.0128166358" lon="23.37445726">
        <ele>48.8</ele>
        <time>2012-03-01T09:54:53Z</time>
      </trkpt>
      <trkpt lat="60.0127499159" lon="23.3743821582">
        <ele>49</ele>
        <time>2012-03-01T09:54:55Z</time>
      </trkpt>
      <trkpt lat="60.0127073358" lon="23.37436464">
        <ele>49</ele>
        <time>2012-03-01T09:54:56Z</time>
      </trkpt>
      <trkpt lat="60.0124984589" lon="23.374149309">
        <ele>49.2</ele>
        <time>2012-03-01T09:55:02Z</time>
      </trkpt>
      <trkpt lat="60.0123639294" lon="23.3740350637">
        <ele>49.2</ele>
        <time>2012-03-01T09:55:06Z</time>
      </trkpt>
      <trkpt lat="60.0121851434" lon="23.3739431981">
        <ele>49.2</ele>
        <time>2012-03-01T09:55:11Z</time>
      </trkpt>
      <trkpt lat="60.0120380411" lon="23.3738799986">
        <ele>49.2</ele>
        <time>2012-03-01T09:55:15Z</time>
      </trkpt>
      <trkpt lat="60.0119113068" lon="23.373723257">
        <ele>49.2</ele>
        <time>2012-03-01T09:55:19Z</time>
      </trkpt>
      <trkpt lat="60.0117944631" lon="23.3735796751">
        <ele>49.2</ele>
        <time>2012-03-01T09:55:23Z</time>
      </trkpt>
      <trkpt lat="60.0117695688" lon="23.373531563">
        <ele>49.2</ele>
        <time>2012-03-01T09:55:24Z</time>
      </trkpt>
      <trkpt lat="60.0116650465" lon="23.373441709">
        <ele>49.4</ele>
        <time>2012-03-01T09:55:27Z</time>
      </trkpt>
      <trkpt lat="60.0115969855" lon="23.3733697923">
        <ele>49.2</ele>
        <time>2012-03-01T09:55:29Z</time>
      </trkpt>
      <trkpt lat="60.0114581812" lon="23.373237023">
        <ele>48.4</ele>
        <time>2012-03-01T09:55:33Z</time>
      </trkpt>
      <trkpt lat="60.0113889468" lon="23.373153204">
        <ele>48.2</ele>
        <time>2012-03-01T09:55:35Z</time>
      </trkpt>
      <trkpt lat="60.0113319498" lon="23.3731033317">
        <ele>48</ele>
        <time>2012-03-01T09:55:37Z</time>
      </trkpt>
      <trkpt lat="60.0111703468" lon="23.3729302455">
        <ele>47.8</ele>
        <time>2012-03-01T09:55:42Z</time>
      </trkpt>
      <trkpt lat="60.0109587038" lon="23.372662779">
        <ele>47</ele>
        <time>2012-03-01T09:55:50Z</time>
      </trkpt>
      <trkpt lat="60.0109009525" lon="23.3725800497">
        <ele>46.6</ele>
        <time>2012-03-01T09:55:52Z</time>
      </trkpt>
      <trkpt lat="60.0108235038" lon="23.3724458555">
        <ele>46.2</ele>
        <time>2012-03-01T09:55:55Z</time>
      </trkpt>
      <trkpt lat="60.0107089232" lon="23.3722677401">
        <ele>45.4</ele>
        <time>2012-03-01T09:55:59Z</time>
      </trkpt>
      <trkpt lat="60.0106801733" lon="23.3722135092">
        <ele>45.2</ele>
        <time>2012-03-01T09:56:00Z</time>
      </trkpt>
      <trkpt lat="60.0105568755" lon="23.3720046323">
        <ele>44.4</ele>
        <time>2012-03-01T09:56:04Z</time>
      </trkpt>
      <trkpt lat="60.0105322328" lon="23.371966327">
        <ele>44.2</ele>
        <time>2012-03-01T09:56:05Z</time>
      </trkpt>
      <trkpt lat="60.0104143832" lon="23.3716991958">
        <ele>42.8</ele>
        <time>2012-03-01T09:56:10Z</time>
      </trkpt>
      <trkpt lat="60.0103350066" lon="23.3715172248">
        <ele>41.8</ele>
        <time>2012-03-01T09:56:14Z</time>
      </trkpt>
      <trkpt lat="60.0102826198" lon="23.3714303045">
        <ele>41.2</ele>
        <time>2012-03-01T09:56:16Z</time>
      </trkpt>
      <trkpt lat="60.010164435" lon="23.3713018938">
        <ele>40.4</ele>
        <time>2012-03-01T09:56:20Z</time>
      </trkpt>
      <trkpt lat="60.010051447" lon="23.3712109501">
        <ele>39.4</ele>
        <time>2012-03-01T09:56:23Z</time>
      </trkpt>
      <trkpt lat="60.0099420632" lon="23.3711668614">
        <ele>38.6</ele>
        <time>2012-03-01T09:56:26Z</time>
      </trkpt>
      <trkpt lat="60.0098139039" lon="23.3710627582">
        <ele>37.8</ele>
        <time>2012-03-01T09:56:30Z</time>
      </trkpt>
      <trkpt lat="60.0097834776" lon="23.3710347626">
        <ele>37.6</ele>
        <time>2012-03-01T09:56:31Z</time>
      </trkpt>
      <trkpt lat="60.0096609342" lon="23.3709343474">
        <ele>36.4</ele>
        <time>2012-03-01T09:56:35Z</time>
      </trkpt>
      <trkpt lat="60.0094574217" lon="23.3707833056">
        <ele>35.6</ele>
        <time>2012-03-01T09:56:41Z</time>
      </trkpt>
      <trkpt lat="60.0092879397" lon="23.3706797891">
        <ele>35.2</ele>
        <time>2012-03-01T09:56:46Z</time>
      </trkpt>
      <trkpt lat="60.0091809028" lon="23.370596054">
        <ele>34.8</ele>
        <time>2012-03-01T09:56:50Z</time>
      </trkpt>
      <trkpt lat="60.0090435235" lon="23.3704990754">
        <ele>34.8</ele>
        <time>2012-03-01T09:56:55Z</time>
      </trkpt>
      <trkpt lat="60.0089389174" lon="23.370464542">
        <ele>34.6</ele>
        <time>2012-03-01T09:56:59Z</time>
      </trkpt>
      <trkpt lat="60.0089138555" lon="23.3704697387">
        <ele>34.6</ele>
        <time>2012-03-01T09:57:00Z</time>
      </trkpt>
      <trkpt lat="60.0087942458" lon="23.3704659669">
        <ele>34.6</ele>
        <time>2012-03-01T09:57:04Z</time>
      </trkpt>
      <trkpt lat="60.0086634043" lon="23.3704191959">
        <ele>34.6</ele>
        <time>2012-03-01T09:57:08Z</time>
      </trkpt>
      <trkpt lat="60.0085476503" lon="23.3703575889">
        <ele>34.6</ele>
        <time>2012-03-01T09:57:12Z</time>
      </trkpt>
      <trkpt lat="60.0085146256" lon="23.3703257377">
        <ele>34.6</ele>
        <time>2012-03-01T09:57:13Z</time>
      </trkpt>
      <trkpt lat="60.0084123664" lon="23.3702290106">
        <ele>34.6</ele>
        <time>2012-03-01T09:57:16Z</time>
      </trkpt>
      <trkpt lat="60.0083177348" lon="23.3701406653">
        <ele>34.6</ele>
        <time>2012-03-01T09:57:19Z</time>
      </trkpt>
      <trkpt lat="60.0081780923" lon="23.3699705128">
        <ele>34.6</ele>
        <time>2012-03-01T09:57:23Z</time>
      </trkpt>
      <trkpt lat="60.0081329977" lon="23.3698993504">
        <ele>34.4</ele>
        <time>2012-03-01T09:57:24Z</time>
      </trkpt>
      <trkpt lat="60.0079672037" lon="23.3695256015">
        <ele>34.4</ele>
        <time>2012-03-01T09:57:29Z</time>
      </trkpt>
      <trkpt lat="60.00794298" lon="23.3694603903">
        <ele>34.4</ele>
        <time>2012-03-01T09:57:30Z</time>
      </trkpt>
      <trkpt lat="60.0078454147" lon="23.3692816882">
        <ele>34.4</ele>
        <time>2012-03-01T09:57:34Z</time>
      </trkpt>
      <trkpt lat="60.0077552255" lon="23.3690614119">
        <ele>34.4</ele>
        <time>2012-03-01T09:57:38Z</time>
      </trkpt>
      <trkpt lat="60.00771516" lon="23.3689538721">
        <ele>34.4</ele>
        <time>2012-03-01T09:57:40Z</time>
      </trkpt>
      <trkpt lat="60.0076502841" lon="23.3686098789">
        <ele>34.4</ele>
        <time>2012-03-01T09:57:46Z</time>
      </trkpt>
      <trkpt lat="60.0076363701" lon="23.3685010819">
        <ele>34.4</ele>
        <time>2012-03-01T09:57:48Z</time>
      </trkpt>
      <trkpt lat="60.0075863302" lon="23.3682805541">
        <ele>34.4</ele>
        <time>2012-03-01T09:57:52Z</time>
      </trkpt>
      <trkpt lat="60.0075370446" lon="23.3680757005">
        <ele>33.8</ele>
        <time>2012-03-01T09:57:56Z</time>
      </trkpt>
      <trkpt lat="60.0075073727" lon="23.3679805659">
        <ele>33.6</ele>
        <time>2012-03-01T09:57:58Z</time>
      </trkpt>
      <trkpt lat="60.0074748509" lon="23.3678731099">
        <ele>33.4</ele>
        <time>2012-03-01T09:58:00Z</time>
      </trkpt>
      <trkpt lat="60.007373849" lon="23.3676760515">
        <ele>33</ele>
        <time>2012-03-01T09:58:04Z</time>
      </trkpt>
      <trkpt lat="60.0072795526" lon="23.3674973494">
        <ele>32.8</ele>
        <time>2012-03-01T09:58:07Z</time>
      </trkpt>
      <trkpt lat="60.0072321949" lon="23.3673789969">
        <ele>32.8</ele>
        <time>2012-03-01T09:58:10Z</time>
      </trkpt>
      <trkpt lat="60.0071521478" lon="23.3671712096">
        <ele>32.6</ele>
        <time>2012-03-01T09:58:15Z</time>
      </trkpt>
      <trkpt lat="60.0070664847" lon="23.3670330759">
        <ele>32.6</ele>
        <time>2012-03-01T09:58:19Z</time>
      </trkpt>
      <trkpt lat="60.0070104936" lon="23.3669238598">
        <ele>32.6</ele>
        <time>2012-03-01T09:58:22Z</time>
      </trkpt>
      <trkpt lat="60.0069577715" lon="23.3667667829">
        <ele>32.6</ele>
        <time>2012-03-01T09:58:26Z</time>
      </trkpt>
      <trkpt lat="60.0068441129" lon="23.3666032521">
        <ele>32.4</ele>
        <time>2012-03-01T09:58:31Z</time>
      </trkpt>
      <trkpt lat="60.0065610562" lon="23.3664014159">
        <ele>32.4</ele>
        <time>2012-03-01T09:58:41Z</time>
      </trkpt>
      <trkpt lat="60.0064809252" lon="23.3662333588">
        <ele>32.4</ele>
        <time>2012-03-01T09:58:45Z</time>
      </trkpt>
      <trkpt lat="60.0064696935" lon="23.3661586761">
        <ele>32.4</ele>
        <time>2012-03-01T09:58:46Z</time>
      </trkpt>
      <trkpt lat="60.0063882214" lon="23.3659399923">
        <ele>32.4</ele>
        <time>2012-03-01T09:58:51Z</time>
      </trkpt>
      <trkpt lat="60.0062634987" lon="23.3657648106">
        <ele>32.4</ele>
        <time>2012-03-01T09:58:56Z</time>
      </trkpt>
      <trkpt lat="60.0061674421" lon="23.3656716039">
        <ele>32.4</ele>
        <time>2012-03-01T09:58:59Z</time>
      </trkpt>
      <trkpt lat="60.0061465712" lon="23.3656526608">
        <ele>32.4</ele>
        <time>2012-03-01T09:59:00Z</time>
      </trkpt>
      <trkpt lat="60.0060744031" lon="23.3655120125">
        <ele>32.4</ele>
        <time>2012-03-01T09:59:04Z</time>
      </trkpt>
      <trkpt lat="60.0059375266" lon="23.3652594659">
        <ele>32.4</ele>
        <time>2012-03-01T09:59:10Z</time>
      </trkpt>
      <trkpt lat="60.0058403804" lon="23.3650955159">
        <ele>32.4</ele>
        <time>2012-03-01T09:59:14Z</time>
      </trkpt>
      <trkpt lat="60.0057739119" lon="23.3649407022">
        <ele>32.4</ele>
        <time>2012-03-01T09:59:17Z</time>
      </trkpt>
      <trkpt lat="60.0056879136" lon="23.3647490082">
        <ele>32.4</ele>
        <time>2012-03-01T09:59:21Z</time>
      </trkpt>
      <trkpt lat="60.0055878338" lon="23.3645725692">
        <ele>32.4</ele>
        <time>2012-03-01T09:59:24Z</time>
      </trkpt>
      <trkpt lat="60.0055373747" lon="23.3645582361">
        <ele>32.4</ele>
        <time>2012-03-01T09:59:25Z</time>
      </trkpt>
      <trkpt lat="60.0054828924" lon="23.3644654485">
        <ele>32.4</ele>
        <time>2012-03-01T09:59:27Z</time>
      </trkpt>
      <trkpt lat="60.0053783701" lon="23.3643243811">
        <ele>32.4</ele>
        <time>2012-03-01T09:59:30Z</time>
      </trkpt>
      <trkpt lat="60.0053545655" lon="23.3642792865">
        <ele>32.4</ele>
        <time>2012-03-01T09:59:31Z</time>
      </trkpt>
      <trkpt lat="60.005211235" lon="23.3641249757">
        <ele>32.4</ele>
        <time>2012-03-01T09:59:35Z</time>
      </trkpt>
      <trkpt lat="60.0051790485" lon="23.3640682302">
        <ele>32.4</ele>
        <time>2012-03-01T09:59:36Z</time>
      </trkpt>
      <trkpt lat="60.0050550802" lon="23.3639057052">
        <ele>32.4</ele>
        <time>2012-03-01T09:59:40Z</time>
      </trkpt>
      <trkpt lat="60.0049840017" lon="23.3638002609">
        <ele>32.4</ele>
        <time>2012-03-01T09:59:43Z</time>
      </trkpt>
      <trkpt lat="60.0048507295" lon="23.3635146057">
        <ele>32.4</ele>
        <time>2012-03-01T09:59:47Z</time>
      </trkpt>
      <trkpt lat="60.0048187106" lon="23.3634084071">
        <ele>32.4</ele>
        <time>2012-03-01T09:59:48Z</time>
      </trkpt>
      <trkpt lat="60.0047648988" lon="23.3629544434">
        <ele>32.4</ele>
        <time>2012-03-01T09:59:52Z</time>
      </trkpt>
      <trkpt lat="60.0047422677" lon="23.3625924291">
        <ele>32.4</ele>
        <time>2012-03-01T09:59:55Z</time>
      </trkpt>
      <trkpt lat="60.0047230731" lon="23.362240054">
        <ele>32.4</ele>
        <time>2012-03-01T09:59:58Z</time>
      </trkpt>
      <trkpt lat="60.0046900485" lon="23.3618787103">
        <ele>32.4</ele>
        <time>2012-03-01T10:00:02Z</time>
      </trkpt>
      <trkpt lat="60.0046665791" lon="23.3616596913">
        <ele>32.4</ele>
        <time>2012-03-01T10:00:05Z</time>
      </trkpt>
      <trkpt lat="60.00464487" lon="23.3615024468">
        <ele>32.4</ele>
        <time>2012-03-01T10:00:07Z</time>
      </trkpt>
      <trkpt lat="60.0046250049" lon="23.3613253373">
        <ele>32.4</ele>
        <time>2012-03-01T10:00:10Z</time>
      </trkpt>
      <trkpt lat="60.0046291959" lon="23.3611702721">
        <ele>32.4</ele>
        <time>2012-03-01T10:00:14Z</time>
      </trkpt>
      <trkpt lat="60.0046257593" lon="23.3611329727">
        <ele>32.4</ele>
        <time>2012-03-01T10:00:15Z</time>
      </trkpt>
      <trkpt lat="60.0046282738" lon="23.3609833558">
        <ele>32.4</ele>
        <time>2012-03-01T10:00:17Z</time>
      </trkpt>
      <trkpt lat="60.0046098337" lon="23.3608055757">
        <ele>32.4</ele>
        <time>2012-03-01T10:00:21Z</time>
      </trkpt>
      <trkpt lat="60.0045889627" lon="23.3606415419">
        <ele>32.4</ele>
        <time>2012-03-01T10:00:26Z</time>
      </trkpt>
      <trkpt lat="60.0045527529" lon="23.3604718084">
        <ele>32.4</ele>
        <time>2012-03-01T10:00:32Z</time>
      </trkpt>
      <trkpt lat="60.0044979353" lon="23.3602656975">
        <ele>32.4</ele>
        <time>2012-03-01T10:00:37Z</time>
      </trkpt>
      <trkpt lat="60.0044827641" lon="23.3602374505">
        <ele>32.4</ele>
        <time>2012-03-01T10:00:38Z</time>
      </trkpt>
      <trkpt lat="60.0044254319" lon="23.3601074472">
        <ele>32.4</ele>
        <time>2012-03-01T10:00:42Z</time>
      </trkpt>
      <trkpt lat="60.0043991965" lon="23.3600626041">
        <ele>32.4</ele>
        <time>2012-03-01T10:00:44Z</time>
      </trkpt>
      <trkpt lat="60.004312863" lon="23.3599429105">
        <ele>33</ele>
        <time>2012-03-01T10:00:50Z</time>
      </trkpt>
      <trkpt lat="60.0043046487" lon="23.3599319302">
        <ele>33.2</ele>
        <time>2012-03-01T10:00:51Z</time>
      </trkpt>
      <trkpt lat="60.0041485777" lon="23.3598313474">
        <ele>33.8</ele>
        <time>2012-03-01T10:00:57Z</time>
      </trkpt>
      <trkpt lat="60.0040356735" lon="23.3598284976">
        <ele>34.6</ele>
        <time>2012-03-01T10:01:01Z</time>
      </trkpt>
      <trkpt lat="60.0038825362" lon="23.3598207024">
        <ele>35.4</ele>
        <time>2012-03-01T10:01:06Z</time>
      </trkpt>
      <trkpt lat="60.0037620883" lon="23.3598185231">
        <ele>35.8</ele>
        <time>2012-03-01T10:01:09Z</time>
      </trkpt>
      <trkpt lat="60.0037246212" lon="23.3597836544">
        <ele>35.8</ele>
        <time>2012-03-01T10:01:10Z</time>
      </trkpt>
      <trkpt lat="60.0035632696" lon="23.3597319381">
        <ele>36.2</ele>
        <time>2012-03-01T10:01:14Z</time>
      </trkpt>
      <trkpt lat="60.0034432408" lon="23.3597394818">
        <ele>36.2</ele>
        <time>2012-03-01T10:01:17Z</time>
      </trkpt>
      <trkpt lat="60.0032585038" lon="23.359788935">
        <ele>36.4</ele>
        <time>2012-03-01T10:01:22Z</time>
      </trkpt>
      <trkpt lat="60.0030989124" lon="23.3598306769">
        <ele>36.6</ele>
        <time>2012-03-01T10:01:26Z</time>
      </trkpt>
      <trkpt lat="60.0029231439" lon="23.3598944631">
        <ele>36.6</ele>
        <time>2012-03-01T10:01:30Z</time>
      </trkpt>
      <trkpt lat="60.0027293544" lon="23.3599700679">
        <ele>36.6</ele>
        <time>2012-03-01T10:01:34Z</time>
      </trkpt>
      <trkpt lat="60.002653582" lon="23.35998021">
        <ele>36.6</ele>
        <time>2012-03-01T10:01:36Z</time>
      </trkpt>
      <trkpt lat="60.0024427772" lon="23.3599963032">
        <ele>36.6</ele>
        <time>2012-03-01T10:01:40Z</time>
      </trkpt>
      <trkpt lat="60.002390558" lon="23.3599921123">
        <ele>36.6</ele>
        <time>2012-03-01T10:01:41Z</time>
      </trkpt>
      <trkpt lat="60.0021968523" lon="23.3599905197">
        <ele>36.6</ele>
        <time>2012-03-01T10:01:45Z</time>
      </trkpt>
      <trkpt lat="60.0021427052" lon="23.3599849038">
        <ele>36.6</ele>
        <time>2012-03-01T10:01:46Z</time>
      </trkpt>
      <trkpt lat="60.0019583872" lon="23.3598137454">
        <ele>36.6</ele>
        <time>2012-03-01T10:01:50Z</time>
      </trkpt>
      <trkpt lat="60.001760742" lon="23.3596002584">
        <ele>36.6</ele>
        <time>2012-03-01T10:01:55Z</time>
      </trkpt>
      <trkpt lat="60.001724197" lon="23.3595669823">
        <ele>36.6</ele>
        <time>2012-03-01T10:01:56Z</time>
      </trkpt>
      <trkpt lat="60.0016482569" lon="23.3594951494">
        <ele>36.6</ele>
        <time>2012-03-01T10:01:58Z</time>
      </trkpt>
      <trkpt lat="60.0015575648" lon="23.3593504778">
        <ele>36.6</ele>
        <time>2012-03-01T10:02:01Z</time>
      </trkpt>
      <trkpt lat="60.0014758413" lon="23.3591884557">
        <ele>36.6</ele>
        <time>2012-03-01T10:02:04Z</time>
      </trkpt>
      <trkpt lat="60.0013652002" lon="23.35896139">
        <ele>36.6</ele>
        <time>2012-03-01T10:02:08Z</time>
      </trkpt>
      <trkpt lat="60.0012705685" lon="23.3587594701">
        <ele>36</ele>
        <time>2012-03-01T10:02:12Z</time>
      </trkpt>
      <trkpt lat="60.0011239691" lon="23.3585068396">
        <ele>35.4</ele>
        <time>2012-03-01T10:02:17Z</time>
      </trkpt>
      <trkpt lat="60.0010963926" lon="23.3584521058">
        <ele>35.4</ele>
        <time>2012-03-01T10:02:18Z</time>
      </trkpt>
      <trkpt lat="60.0010177704" lon="23.3582614176">
        <ele>34.6</ele>
        <time>2012-03-01T10:02:21Z</time>
      </trkpt>
      <trkpt lat="60.0009081352" lon="23.3580480982">
        <ele>33.8</ele>
        <time>2012-03-01T10:02:25Z</time>
      </trkpt>
      <trkpt lat="60.0007750306" lon="23.3577874211">
        <ele>32.8</ele>
        <time>2012-03-01T10:02:30Z</time>
      </trkpt>
      <trkpt lat="60.0006899543" lon="23.3576298414">
        <ele>32</ele>
        <time>2012-03-01T10:02:34Z</time>
      </trkpt>
      <trkpt lat="60.0004817479" lon="23.3575630377">
        <ele>30.2</ele>
        <time>2012-03-01T10:02:43Z</time>
      </trkpt>
      <trkpt lat="60.0003254255" lon="23.3576825635">
        <ele>29.4</ele>
        <time>2012-03-01T10:02:49Z</time>
      </trkpt>
      <trkpt lat="60.0001219968" lon="23.35778608">
        <ele>28.8</ele>
        <time>2012-03-01T10:02:55Z</time>
      </trkpt>
      <trkpt lat="59.9999847851" lon="23.3580115531">
        <ele>28.6</ele>
        <time>2012-03-01T10:02:59Z</time>
      </trkpt>
      <trkpt lat="59.9999377626" lon="23.3582413848">
        <ele>28.6</ele>
        <time>2012-03-01T10:03:02Z</time>
      </trkpt>
      <trkpt lat="59.9997831166" lon="23.3585912453">
        <ele>28.4</ele>
        <time>2012-03-01T10:03:08Z</time>
      </trkpt>
      <trkpt lat="59.9996734813" lon="23.3587670976">
        <ele>28.4</ele>
        <time>2012-03-01T10:03:12Z</time>
      </trkpt>
      <trkpt lat="59.9996497605" lon="23.3588101806">
        <ele>28.4</ele>
        <time>2012-03-01T10:03:13Z</time>
      </trkpt>
      <trkpt lat="59.9994887442" lon="23.3589675926">
        <ele>27.4</ele>
        <time>2012-03-01T10:03:19Z</time>
      </trkpt>
      <trkpt lat="59.9993634348" lon="23.3589880445">
        <ele>27</ele>
        <time>2012-03-01T10:03:24Z</time>
      </trkpt>
      <trkpt lat="59.9993322542" lon="23.3590051435">
        <ele>26.8</ele>
        <time>2012-03-01T10:03:25Z</time>
      </trkpt>
      <trkpt lat="59.9991986467" lon="23.3590513278">
        <ele>26.6</ele>
        <time>2012-03-01T10:03:29Z</time>
      </trkpt>
      <trkpt lat="59.9990646201" lon="23.3591132701">
        <ele>26.6</ele>
        <time>2012-03-01T10:03:33Z</time>
      </trkpt>
      <trkpt lat="59.9990182682" lon="23.3591402598">
        <ele>26.6</ele>
        <time>2012-03-01T10:03:34Z</time>
      </trkpt>
      <trkpt lat="59.9989974811" lon="23.3591451213">
        <ele>26.4</ele>
        <time>2012-03-01T10:03:35Z</time>
      </trkpt>
      <trkpt lat="59.998759938" lon="23.359223492">
        <ele>26.4</ele>
        <time>2012-03-01T10:03:42Z</time>
      </trkpt>
      <trkpt lat="59.998649716" lon="23.3593257512">
        <ele>26.4</ele>
        <time>2012-03-01T10:03:46Z</time>
      </trkpt>
      <trkpt lat="59.9986198765" lon="23.3593984223">
        <ele>26.4</ele>
        <time>2012-03-01T10:03:48Z</time>
      </trkpt>
      <trkpt lat="59.9985911266" lon="23.3596452693">
        <ele>26.4</ele>
        <time>2012-03-01T10:03:52Z</time>
      </trkpt>
      <trkpt lat="59.9985900369" lon="23.3597093908">
        <ele>26.4</ele>
        <time>2012-03-01T10:03:53Z</time>
      </trkpt>
      <trkpt lat="59.9986533203" lon="23.3600182638">
        <ele>26.2</ele>
        <time>2012-03-01T10:03:57Z</time>
      </trkpt>
      <trkpt lat="59.998715933" lon="23.3602365285">
        <ele>26.2</ele>
        <time>2012-03-01T10:04:00Z</time>
      </trkpt>
      <trkpt lat="59.9987373907" lon="23.3605989618">
        <ele>26.2</ele>
        <time>2012-03-01T10:04:05Z</time>
      </trkpt>
      <trkpt lat="59.9986995883" lon="23.360786884">
        <ele>26.2</ele>
        <time>2012-03-01T10:04:09Z</time>
      </trkpt>
      <trkpt lat="59.9986087285" lon="23.3610291209">
        <ele>25.6</ele>
        <time>2012-03-01T10:04:14Z</time>
      </trkpt>
      <trkpt lat="59.9985268374" lon="23.3611512452">
        <ele>25.2</ele>
        <time>2012-03-01T10:04:18Z</time>
      </trkpt>
      <trkpt lat="59.9984967464" lon="23.3611993573">
        <ele>25</ele>
        <time>2012-03-01T10:04:19Z</time>
      </trkpt>
      <trkpt lat="59.9983799027" lon="23.3613621338">
        <ele>24.8</ele>
        <time>2012-03-01T10:04:23Z</time>
      </trkpt>
      <trkpt lat="59.9983504822" lon="23.361406055">
        <ele>24.6</ele>
        <time>2012-03-01T10:04:24Z</time>
      </trkpt>
      <trkpt lat="59.9982401764" lon="23.3615886966">
        <ele>24.6</ele>
        <time>2012-03-01T10:04:28Z</time>
      </trkpt>
      <trkpt lat="59.9981064851" lon="23.3618425843">
        <ele>24.4</ele>
        <time>2012-03-01T10:04:33Z</time>
      </trkpt>
      <trkpt lat="59.9979772362" lon="23.3620878387">
        <ele>24.4</ele>
        <time>2012-03-01T10:04:38Z</time>
      </trkpt>
      <trkpt lat="59.9978389348" lon="23.3622589971">
        <ele>24.4</ele>
        <time>2012-03-01T10:04:42Z</time>
      </trkpt>
      <trkpt lat="59.997812951" lon="23.3622936144">
        <ele>24.2</ele>
        <time>2012-03-01T10:04:43Z</time>
      </trkpt>
      <trkpt lat="59.997622598" lon="23.3624641022">
        <ele>24.2</ele>
        <time>2012-03-01T10:04:50Z</time>
      </trkpt>
      <trkpt lat="59.9975171537" lon="23.36257533">
        <ele>24.2</ele>
        <time>2012-03-01T10:04:54Z</time>
      </trkpt>
      <trkpt lat="59.9974501823" lon="23.3626568021">
        <ele>24.2</ele>
        <time>2012-03-01T10:04:58Z</time>
      </trkpt>
      <trkpt lat="59.9973549639" lon="23.3627935109">
        <ele>24.2</ele>
        <time>2012-03-01T10:05:04Z</time>
      </trkpt>
      <trkpt lat="59.9972977994" lon="23.3628474065">
        <ele>24.2</ele>
        <time>2012-03-01T10:05:08Z</time>
      </trkpt>
      <trkpt lat="59.99723175" lon="23.3629171439">
        <ele>24.6</ele>
        <time>2012-03-01T10:05:11Z</time>
      </trkpt>
      <trkpt lat="59.9971051833" lon="23.3629499171">
        <ele>25.4</ele>
        <time>2012-03-01T10:05:16Z</time>
      </trkpt>
      <trkpt lat="59.9969589192" lon="23.3629479055">
        <ele>25.8</ele>
        <time>2012-03-01T10:05:22Z</time>
      </trkpt>
      <trkpt lat="59.9968639522" lon="23.3629451395">
        <ele>26</ele>
        <time>2012-03-01T10:05:27Z</time>
      </trkpt>
      <trkpt lat="59.9968040217" lon="23.3629169763">
        <ele>27</ele>
        <time>2012-03-01T10:05:32Z</time>
      </trkpt>
      <trkpt lat="59.9967137486" lon="23.3629399427">
        <ele>27.6</ele>
        <time>2012-03-01T10:05:38Z</time>
      </trkpt>
      <trkpt lat="59.9965855055" lon="23.3630220015">
        <ele>28</ele>
        <time>2012-03-01T10:05:43Z</time>
      </trkpt>
      <trkpt lat="59.9964643032" lon="23.3631168846">
        <ele>28.8</ele>
        <time>2012-03-01T10:05:47Z</time>
      </trkpt>
      <trkpt lat="59.9963399997" lon="23.3633024599">
        <ele>29.4</ele>
        <time>2012-03-01T10:05:51Z</time>
      </trkpt>
      <trkpt lat="59.9961795701" lon="23.3635291064">
        <ele>29.8</ele>
        <time>2012-03-01T10:05:56Z</time>
      </trkpt>
      <trkpt lat="59.996038838" lon="23.3638402426">
        <ele>30.2</ele>
        <time>2012-03-01T10:06:00Z</time>
      </trkpt>
      <trkpt lat="59.9959670889" lon="23.3640019294">
        <ele>30.2</ele>
        <time>2012-03-01T10:06:02Z</time>
      </trkpt>
      <trkpt lat="59.9957985289" lon="23.3642634447">
        <ele>30.4</ele>
        <time>2012-03-01T10:06:06Z</time>
      </trkpt>
      <trkpt lat="59.9955541127" lon="23.3645002334">
        <ele>30.4</ele>
        <time>2012-03-01T10:06:12Z</time>
      </trkpt>
      <trkpt lat="59.9955142149" lon="23.3645341801">
        <ele>30.4</ele>
        <time>2012-03-01T10:06:13Z</time>
      </trkpt>
      <trkpt lat="59.9953480856" lon="23.3646423066">
        <ele>30</ele>
        <time>2012-03-01T10:06:17Z</time>
      </trkpt>
      <trkpt lat="59.9953096127" lon="23.3646597409">
        <ele>29.8</ele>
        <time>2012-03-01T10:06:18Z</time>
      </trkpt>
      <trkpt lat="59.9952662783" lon="23.3646993035">
        <ele>29.8</ele>
        <time>2012-03-01T10:06:19Z</time>
      </trkpt>
      <trkpt lat="59.9951456627" lon="23.3647536182">
        <ele>29.4</ele>
        <time>2012-03-01T10:06:22Z</time>
      </trkpt>
      <trkpt lat="59.9951102911" lon="23.3647651852">
        <ele>29.2</ele>
        <time>2012-03-01T10:06:23Z</time>
      </trkpt>
      <trkpt lat="59.9950780208" lon="23.3647735671">
        <ele>29.2</ele>
        <time>2012-03-01T10:06:24Z</time>
      </trkpt>
      <trkpt lat="59.9949078682" lon="23.3648842082">
        <ele>28.4</ele>
        <time>2012-03-01T10:06:29Z</time>
      </trkpt>
      <trkpt lat="59.9948481891" lon="23.3649554544">
        <ele>27.8</ele>
        <time>2012-03-01T10:06:32Z</time>
      </trkpt>
      <trkpt lat="59.9948289946" lon="23.3649568793">
        <ele>27.2</ele>
        <time>2012-03-01T10:06:36Z</time>
      </trkpt>
      <trkpt lat="59.9947745122" lon="23.365034831">
        <ele>26.6</ele>
        <time>2012-03-01T10:06:43Z</time>
      </trkpt>
      <trkpt lat="59.9947112289" lon="23.3651544407">
        <ele>25.6</ele>
        <time>2012-03-01T10:06:48Z</time>
      </trkpt>
      <trkpt lat="59.9946445928" lon="23.365320067">
        <ele>25</ele>
        <time>2012-03-01T10:06:53Z</time>
      </trkpt>
      <trkpt lat="59.9946318523" lon="23.3653755552">
        <ele>24.8</ele>
        <time>2012-03-01T10:06:55Z</time>
      </trkpt>
      <trkpt lat="59.9945702453" lon="23.3655544249">
        <ele>24.6</ele>
        <time>2012-03-01T10:07:01Z</time>
      </trkpt>
      <trkpt lat="59.9945535653" lon="23.3656020341">
        <ele>24.6</ele>
        <time>2012-03-01T10:07:02Z</time>
      </trkpt>
      <trkpt lat="59.9945058723" lon="23.3657747851">
        <ele>24.4</ele>
        <time>2012-03-01T10:07:06Z</time>
      </trkpt>
      <trkpt lat="59.99447729" lon="23.3658577659">
        <ele>24.4</ele>
        <time>2012-03-01T10:07:08Z</time>
      </trkpt>
      <trkpt lat="59.9944186167" lon="23.3660819817">
        <ele>24.4</ele>
        <time>2012-03-01T10:07:13Z</time>
      </trkpt>
      <trkpt lat="59.9943608654" lon="23.3662893499">
        <ele>24.2</ele>
        <time>2012-03-01T10:07:17Z</time>
      </trkpt>
      <trkpt lat="59.9943089815" lon="23.3664647831">
        <ele>23.8</ele>
        <time>2012-03-01T10:07:21Z</time>
      </trkpt>
      <trkpt lat="59.9943003481" lon="23.3664942874">
        <ele>23.6</ele>
        <time>2012-03-01T10:07:22Z</time>
      </trkpt>
      <trkpt lat="59.9942788066" lon="23.3665631028">
        <ele>23.2</ele>
        <time>2012-03-01T10:07:25Z</time>
      </trkpt>
      <trkpt lat="59.9942450276" lon="23.3667718959">
        <ele>22.8</ele>
        <time>2012-03-01T10:07:30Z</time>
      </trkpt>
      <trkpt lat="59.9941945685" lon="23.3670184076">
        <ele>22.6</ele>
        <time>2012-03-01T10:07:35Z</time>
      </trkpt>
      <trkpt lat="59.9940227396" lon="23.3675526699">
        <ele>22.4</ele>
        <time>2012-03-01T10:07:43Z</time>
      </trkpt>
      <trkpt lat="59.993978567" lon="23.367726762">
        <ele>22.2</ele>
        <time>2012-03-01T10:07:45Z</time>
      </trkpt>
      <trkpt lat="59.9939022917" lon="23.3680769577">
        <ele>22</ele>
        <time>2012-03-01T10:07:49Z</time>
      </trkpt>
      <trkpt lat="59.9938618071" lon="23.3682585935">
        <ele>21.6</ele>
        <time>2012-03-01T10:07:51Z</time>
      </trkpt>
      <trkpt lat="59.9938121863" lon="23.3686875792">
        <ele>21.2</ele>
        <time>2012-03-01T10:07:55Z</time>
      </trkpt>
      <trkpt lat="59.9938157905" lon="23.3688859787">
        <ele>21</ele>
        <time>2012-03-01T10:07:57Z</time>
      </trkpt>
      <trkpt lat="59.9938325543" lon="23.3690912515">
        <ele>20.8</ele>
        <time>2012-03-01T10:07:59Z</time>
      </trkpt>
      <trkpt lat="59.9938400142" lon="23.369295686">
        <ele>20.6</ele>
        <time>2012-03-01T10:08:01Z</time>
      </trkpt>
      <trkpt lat="59.9937398505" lon="23.369633728">
        <ele>20.4</ele>
        <time>2012-03-01T10:08:06Z</time>
      </trkpt>
      <trkpt lat="59.9936587975" lon="23.369862051">
        <ele>20.4</ele>
        <time>2012-03-01T10:08:10Z</time>
      </trkpt>
      <trkpt lat="59.9936353282" lon="23.3699346382">
        <ele>20.4</ele>
        <time>2012-03-01T10:08:11Z</time>
      </trkpt>
      <trkpt lat="59.9934782514" lon="23.3702236461">
        <ele>20.2</ele>
        <time>2012-03-01T10:08:17Z</time>
      </trkpt>
      <trkpt lat="59.9933285506" lon="23.3703270788">
        <ele>19.6</ele>
        <time>2012-03-01T10:08:22Z</time>
      </trkpt>
      <trkpt lat="59.9932978729" lon="23.3703407413">
        <ele>19.4</ele>
        <time>2012-03-01T10:08:23Z</time>
      </trkpt>
      <trkpt lat="59.9932201727" lon="23.3703874285">
        <ele>19.2</ele>
        <time>2012-03-01T10:08:26Z</time>
      </trkpt>
      <trkpt lat="59.9930907561" lon="23.3704651287">
        <ele>18.6</ele>
        <time>2012-03-01T10:08:32Z</time>
      </trkpt>
      <trkpt lat="59.9929866529" lon="23.3705332735">
        <ele>18.4</ele>
        <time>2012-03-01T10:08:37Z</time>
      </trkpt>
      <trkpt lat="59.9928718209" lon="23.3706397237">
        <ele>18.2</ele>
        <time>2012-03-01T10:08:41Z</time>
      </trkpt>
      <trkpt lat="59.9927802906" lon="23.3707962137">
        <ele>18.2</ele>
        <time>2012-03-01T10:08:44Z</time>
      </trkpt>
      <trkpt lat="59.9926683084" lon="23.3710273027">
        <ele>18.2</ele>
        <time>2012-03-01T10:08:48Z</time>
      </trkpt>
      <trkpt lat="59.992596224" lon="23.3711708008">
        <ele>18.2</ele>
        <time>2012-03-01T10:08:51Z</time>
      </trkpt>
      <trkpt lat="59.9925657977" lon="23.3712347547">
        <ele>18.2</ele>
        <time>2012-03-01T10:08:52Z</time>
      </trkpt>
      <trkpt lat="59.9924663046" lon="23.371575479">
        <ele>18.2</ele>
        <time>2012-03-01T10:08:57Z</time>
      </trkpt>
      <trkpt lat="59.9924044462" lon="23.3717538458">
        <ele>18.2</ele>
        <time>2012-03-01T10:09:01Z</time>
      </trkpt>
      <trkpt lat="59.9923483713" lon="23.3719234955">
        <ele>18.2</ele>
        <time>2012-03-01T10:09:05Z</time>
      </trkpt>
      <trkpt lat="59.9923018517" lon="23.3720833383">
        <ele>18</ele>
        <time>2012-03-01T10:09:10Z</time>
      </trkpt>
      <trkpt lat="59.9922907876" lon="23.3721353061">
        <ele>18</ele>
        <time>2012-03-01T10:09:12Z</time>
      </trkpt>
      <trkpt lat="59.9922382331" lon="23.3722576818">
        <ele>18</ele>
        <time>2012-03-01T10:09:17Z</time>
      </trkpt>
      <trkpt lat="59.9922239" lon="23.372277966">
        <ele>18</ele>
        <time>2012-03-01T10:09:18Z</time>
      </trkpt>
      <trkpt lat="59.9921189587" lon="23.3725060375">
        <ele>18</ele>
        <time>2012-03-01T10:09:24Z</time>
      </trkpt>
      <trkpt lat="59.9920090719" lon="23.372798482">
        <ele>18</ele>
        <time>2012-03-01T10:09:28Z</time>
      </trkpt>
      <trkpt lat="59.9919181283" lon="23.3730797786">
        <ele>18.6</ele>
        <time>2012-03-01T10:09:31Z</time>
      </trkpt>
      <trkpt lat="59.9918628078" lon="23.37324398">
        <ele>19</ele>
        <time>2012-03-01T10:09:33Z</time>
      </trkpt>
      <trkpt lat="59.9918067329" lon="23.3734931739">
        <ele>19.4</ele>
        <time>2012-03-01T10:09:37Z</time>
      </trkpt>
      <trkpt lat="59.9917876221" lon="23.3735620731">
        <ele>19.4</ele>
        <time>2012-03-01T10:09:39Z</time>
      </trkpt>
      <trkpt lat="59.9917712774" lon="23.3736499992">
        <ele>19.6</ele>
        <time>2012-03-01T10:09:42Z</time>
      </trkpt>
      <trkpt lat="59.9917314634" lon="23.3737424516">
        <ele>19.8</ele>
        <time>2012-03-01T10:09:46Z</time>
      </trkpt>
      <trkpt lat="59.991657116" lon="23.3738558587">
        <ele>20.2</ele>
        <time>2012-03-01T10:09:53Z</time>
      </trkpt>
      <trkpt lat="59.9915689384" lon="23.3739957526">
        <ele>21</ele>
        <time>2012-03-01T10:09:58Z</time>
      </trkpt>
      <trkpt lat="59.9914261108" lon="23.374203959">
        <ele>21.4</ele>
        <time>2012-03-01T10:10:03Z</time>
      </trkpt>
      <trkpt lat="59.9913951816" lon="23.3742818269">
        <ele>21.6</ele>
        <time>2012-03-01T10:10:04Z</time>
      </trkpt>
      <trkpt lat="59.9912958561" lon="23.374468827">
        <ele>21.6</ele>
        <time>2012-03-01T10:10:07Z</time>
      </trkpt>
      <trkpt lat="59.9912186588" lon="23.3746420809">
        <ele>21.8</ele>
        <time>2012-03-01T10:10:09Z</time>
      </trkpt>
      <trkpt lat="59.9910301498" lon="23.3748848207">
        <ele>21.8</ele>
        <time>2012-03-01T10:10:13Z</time>
      </trkpt>
      <trkpt lat="59.9909112107" lon="23.3749729983">
        <ele>22</ele>
        <time>2012-03-01T10:10:16Z</time>
      </trkpt>
      <trkpt lat="59.9907275633" lon="23.3750917698">
        <ele>22</ele>
        <time>2012-03-01T10:10:21Z</time>
      </trkpt>
      <trkpt lat="59.9906455883" lon="23.375108366">
        <ele>22</ele>
        <time>2012-03-01T10:10:23Z</time>
      </trkpt>
      <trkpt lat="59.9905657926" lon="23.3751288178">
        <ele>22</ele>
        <time>2012-03-01T10:10:25Z</time>
      </trkpt>
      <trkpt lat="59.9904507929" lon="23.3752183365">
        <ele>22</ele>
        <time>2012-03-01T10:10:28Z</time>
      </trkpt>
      <trkpt lat="59.9903901918" lon="23.3752708072">
        <ele>22</ele>
        <time>2012-03-01T10:10:30Z</time>
      </trkpt>
      <trkpt lat="59.9902778743" lon="23.3753569732">
        <ele>22</ele>
        <time>2012-03-01T10:10:35Z</time>
      </trkpt>
      <trkpt lat="59.9901703345" lon="23.375418161">
        <ele>22.2</ele>
        <time>2012-03-01T10:10:41Z</time>
      </trkpt>
      <trkpt lat="59.9900836657" lon="23.3754895748">
        <ele>22.2</ele>
        <time>2012-03-01T10:10:45Z</time>
      </trkpt>
      <trkpt lat="59.9900560054" lon="23.3755238568">
        <ele>22.2</ele>
        <time>2012-03-01T10:10:46Z</time>
      </trkpt>
      <trkpt lat="59.9900061331" lon="23.3755586417">
        <ele>22.2</ele>
        <time>2012-03-01T10:10:48Z</time>
      </trkpt>
      <trkpt lat="59.9898579411" lon="23.375754862">
        <ele>22.2</ele>
        <time>2012-03-01T10:10:54Z</time>
      </trkpt>
      <trkpt lat="59.9897568554" lon="23.3758938339">
        <ele>22.2</ele>
        <time>2012-03-01T10:10:57Z</time>
      </trkpt>
      <trkpt lat="59.9896336415" lon="23.3761041357">
        <ele>22.2</ele>
        <time>2012-03-01T10:11:01Z</time>
      </trkpt>
      <trkpt lat="59.9895385907" lon="23.3763109172">
        <ele>22.2</ele>
        <time>2012-03-01T10:11:05Z</time>
      </trkpt>
      <trkpt lat="59.9894531792" lon="23.3764580195">
        <ele>22.2</ele>
        <time>2012-03-01T10:11:09Z</time>
      </trkpt>
      <trkpt lat="59.9893711204" lon="23.3765990869">
        <ele>22.2</ele>
        <time>2012-03-01T10:11:14Z</time>
      </trkpt>
      <trkpt lat="59.9893489922" lon="23.3766300161">
        <ele>22.2</ele>
        <time>2012-03-01T10:11:15Z</time>
      </trkpt>
      <trkpt lat="59.989244889" lon="23.3768568303">
        <ele>22.2</ele>
        <time>2012-03-01T10:11:21Z</time>
      </trkpt>
      <trkpt lat="59.9892021413" lon="23.3770250551">
        <ele>22.2</ele>
        <time>2012-03-01T10:11:25Z</time>
      </trkpt>
      <trkpt lat="59.9891223456" lon="23.3772120553">
        <ele>22.2</ele>
        <time>2012-03-01T10:11:29Z</time>
      </trkpt>
      <trkpt lat="59.9890284683" lon="23.377338622">
        <ele>22.2</ele>
        <time>2012-03-01T10:11:33Z</time>
      </trkpt>
      <trkpt lat="59.9889642629" lon="23.3775117082">
        <ele>22.2</ele>
        <time>2012-03-01T10:11:38Z</time>
      </trkpt>
      <trkpt lat="59.9889502652" lon="23.3775992152">
        <ele>22.2</ele>
        <time>2012-03-01T10:11:40Z</time>
      </trkpt>
      <trkpt lat="59.988966107" lon="23.3778640833">
        <ele>22.2</ele>
        <time>2012-03-01T10:11:45Z</time>
      </trkpt>
      <trkpt lat="59.9889675319" lon="23.3779385984">
        <ele>22.2</ele>
        <time>2012-03-01T10:11:46Z</time>
      </trkpt>
      <trkpt lat="59.9889673643" lon="23.3782996068">
        <ele>22.2</ele>
        <time>2012-03-01T10:11:51Z</time>
      </trkpt>
      <trkpt lat="59.988932747" lon="23.3786341284">
        <ele>22.2</ele>
        <time>2012-03-01T10:11:56Z</time>
      </trkpt>
      <trkpt lat="59.9888202619" lon="23.3789089709">
        <ele>22.2</ele>
        <time>2012-03-01T10:12:02Z</time>
      </trkpt>
      <trkpt lat="59.9886875764" lon="23.3790842365">
        <ele>22.2</ele>
        <time>2012-03-01T10:12:06Z</time>
      </trkpt>
      <trkpt lat="59.9885184297" lon="23.379306273">
        <ele>22.2</ele>
        <time>2012-03-01T10:12:11Z</time>
      </trkpt>
      <trkpt lat="59.9884632768" lon="23.3795899165">
        <ele>22.2</ele>
        <time>2012-03-01T10:12:15Z</time>
      </trkpt>
      <trkpt lat="59.9884782804" lon="23.379663761">
        <ele>22.2</ele>
        <time>2012-03-01T10:12:16Z</time>
      </trkpt>
      <trkpt lat="59.9885248838" lon="23.379812875">
        <ele>22.2</ele>
        <time>2012-03-01T10:12:18Z</time>
      </trkpt>
      <trkpt lat="59.9886043442" lon="23.3801008771">
        <ele>22.2</ele>
        <time>2012-03-01T10:12:22Z</time>
      </trkpt>
      <trkpt lat="59.9886708964" lon="23.3803438684">
        <ele>21.4</ele>
        <time>2012-03-01T10:12:26Z</time>
      </trkpt>
      <trkpt lat="59.9887372811" lon="23.3806192976">
        <ele>20.8</ele>
        <time>2012-03-01T10:12:31Z</time>
      </trkpt>
      <trkpt lat="59.9887931046" lon="23.3808442678">
        <ele>20.6</ele>
        <time>2012-03-01T10:12:35Z</time>
      </trkpt>
      <trkpt lat="59.9888317451" lon="23.3810287534">
        <ele>20.4</ele>
        <time>2012-03-01T10:12:38Z</time>
      </trkpt>
      <trkpt lat="59.9889195036" lon="23.381306362">
        <ele>20.4</ele>
        <time>2012-03-01T10:12:43Z</time>
      </trkpt>
      <trkpt lat="59.9890142191" lon="23.3816068531">
        <ele>20.2</ele>
        <time>2012-03-01T10:12:48Z</time>
      </trkpt>
      <trkpt lat="59.9890886503" lon="23.3818920891">
        <ele>20.2</ele>
        <time>2012-03-01T10:12:52Z</time>
      </trkpt>
      <trkpt lat="59.9891127902" lon="23.3819406203">
        <ele>20.2</ele>
        <time>2012-03-01T10:12:53Z</time>
      </trkpt>
      <trkpt lat="59.9891683622" lon="23.3823484836">
        <ele>20.2</ele>
        <time>2012-03-01T10:12:59Z</time>
      </trkpt>
      <trkpt lat="59.9891841202" lon="23.382395087">
        <ele>20.2</ele>
        <time>2012-03-01T10:13:00Z</time>
      </trkpt>
      <trkpt lat="59.9891973636" lon="23.3825499006">
        <ele>20.2</ele>
        <time>2012-03-01T10:13:03Z</time>
      </trkpt>
      <trkpt lat="59.9892250239" lon="23.3827565983">
        <ele>20.2</ele>
        <time>2012-03-01T10:13:07Z</time>
      </trkpt>
      <trkpt lat="59.9892326514" lon="23.3828000165">
        <ele>20.2</ele>
        <time>2012-03-01T10:13:08Z</time>
      </trkpt>
      <trkpt lat="59.9892451404" lon="23.3828648086">
        <ele>20.2</ele>
        <time>2012-03-01T10:13:09Z</time>
      </trkpt>
      <trkpt lat="59.9892716272" lon="23.3829742762">
        <ele>20.2</ele>
        <time>2012-03-01T10:13:11Z</time>
      </trkpt>
      <trkpt lat="59.9893235112" lon="23.3833168445">
        <ele>20.2</ele>
        <time>2012-03-01T10:13:17Z</time>
      </trkpt>
      <trkpt lat="59.9893839447" lon="23.3835804553">
        <ele>20.2</ele>
        <time>2012-03-01T10:13:21Z</time>
      </trkpt>
      <trkpt lat="59.9894608067" lon="23.3839374404">
        <ele>20.2</ele>
        <time>2012-03-01T10:13:26Z</time>
      </trkpt>
      <trkpt lat="59.9895439552" lon="23.3843189006">
        <ele>20.2</ele>
        <time>2012-03-01T10:13:31Z</time>
      </trkpt>
      <trkpt lat="59.9896187217" lon="23.3846561045">
        <ele>20.2</ele>
        <time>2012-03-01T10:13:35Z</time>
      </trkpt>
      <trkpt lat="59.9896370781" lon="23.3847439468">
        <ele>20.2</ele>
        <time>2012-03-01T10:13:37Z</time>
      </trkpt>
      <trkpt lat="59.989698685" lon="23.3850377324">
        <ele>20.2</ele>
        <time>2012-03-01T10:13:40Z</time>
      </trkpt>
      <trkpt lat="59.9897540894" lon="23.3852313543">
        <ele>20.2</ele>
        <time>2012-03-01T10:13:43Z</time>
      </trkpt>
      <trkpt lat="59.98979734" lon="23.3853947175">
        <ele>20.2</ele>
        <time>2012-03-01T10:13:46Z</time>
      </trkpt>
      <trkpt lat="59.9898405068" lon="23.3857605036">
        <ele>20.2</ele>
        <time>2012-03-01T10:13:52Z</time>
      </trkpt>
      <trkpt lat="59.9898460388" lon="23.385827475">
        <ele>20.2</ele>
        <time>2012-03-01T10:13:54Z</time>
      </trkpt>
      <trkpt lat="59.9898499783" lon="23.3858958713">
        <ele>20.2</ele>
        <time>2012-03-01T10:13:55Z</time>
      </trkpt>
      <trkpt lat="59.9898446977" lon="23.3860592345">
        <ele>20.2</ele>
        <time>2012-03-01T10:13:58Z</time>
      </trkpt>
      <trkpt lat="59.989806141" lon="23.3863360049">
        <ele>20.2</ele>
        <time>2012-03-01T10:14:04Z</time>
      </trkpt>
      <trkpt lat="59.9897673328" lon="23.3866478116">
        <ele>20.2</ele>
        <time>2012-03-01T10:14:10Z</time>
      </trkpt>
      <trkpt lat="59.9897532512" lon="23.3868680041">
        <ele>20.2</ele>
        <time>2012-03-01T10:14:14Z</time>
      </trkpt>
      <trkpt lat="59.9897276026" lon="23.387072271">
        <ele>19.8</ele>
        <time>2012-03-01T10:14:18Z</time>
      </trkpt>
      <trkpt lat="59.9897308715" lon="23.387126418">
        <ele>19.6</ele>
        <time>2012-03-01T10:14:19Z</time>
      </trkpt>
      <trkpt lat="59.9897214838" lon="23.3873922919">
        <ele>19</ele>
        <time>2012-03-01T10:14:24Z</time>
      </trkpt>
      <trkpt lat="59.9897138563" lon="23.3875704073">
        <ele>18.2</ele>
        <time>2012-03-01T10:14:28Z</time>
      </trkpt>
      <trkpt lat="59.989689884" lon="23.387719186">
        <ele>17.4</ele>
        <time>2012-03-01T10:14:33Z</time>
      </trkpt>
      <trkpt lat="59.9896849387" lon="23.3877491094">
        <ele>17.2</ele>
        <time>2012-03-01T10:14:34Z</time>
      </trkpt>
      <trkpt lat="59.9896732879" lon="23.38782572">
        <ele>16.8</ele>
        <time>2012-03-01T10:14:38Z</time>
      </trkpt>
      <trkpt lat="59.9896432807" lon="23.3880603293">
        <ele>16.2</ele>
        <time>2012-03-01T10:14:48Z</time>
      </trkpt>
      <trkpt lat="59.9896183864" lon="23.3882420489">
        <ele>16</ele>
        <time>2012-03-01T10:14:57Z</time>
      </trkpt>
      <trkpt lat="59.9895924864" lon="23.3883847927">
        <ele>16.6</ele>
        <time>2012-03-01T10:15:02Z</time>
      </trkpt>
      <trkpt lat="59.9895857808" lon="23.3884010536">
        <ele>16.6</ele>
        <time>2012-03-01T10:15:03Z</time>
      </trkpt>
      <trkpt lat="59.989565329" lon="23.3884572961">
        <ele>17.2</ele>
        <time>2012-03-01T10:15:09Z</time>
      </trkpt>
      <trkpt lat="59.9895429493" lon="23.3884825256">
        <ele>18.6</ele>
        <time>2012-03-01T10:15:18Z</time>
      </trkpt>
      <trkpt lat="59.9895154567" lon="23.3885432944">
        <ele>19.2</ele>
        <time>2012-03-01T10:15:25Z</time>
      </trkpt>
      <trkpt lat="59.9894685181" lon="23.3888074919">
        <ele>19.6</ele>
        <time>2012-03-01T10:15:31Z</time>
      </trkpt>
      <trkpt lat="59.9894275306" lon="23.3890124294">
        <ele>19.8</ele>
        <time>2012-03-01T10:15:35Z</time>
      </trkpt>
      <trkpt lat="59.989407414" lon="23.3891084021">
        <ele>19.8</ele>
        <time>2012-03-01T10:15:37Z</time>
      </trkpt>
      <trkpt lat="59.989370366" lon="23.3893316959">
        <ele>19.8</ele>
        <time>2012-03-01T10:15:40Z</time>
      </trkpt>
      <trkpt lat="59.9892669334" lon="23.3898004956">
        <ele>19.8</ele>
        <time>2012-03-01T10:15:46Z</time>
      </trkpt>
      <trkpt lat="59.9891924183" lon="23.3900345183">
        <ele>20</ele>
        <time>2012-03-01T10:15:49Z</time>
      </trkpt>
      <trkpt lat="59.9891028158" lon="23.3904684492">
        <ele>20</ele>
        <time>2012-03-01T10:15:54Z</time>
      </trkpt>
      <trkpt lat="59.9890761613" lon="23.3905686967">
        <ele>20</ele>
        <time>2012-03-01T10:15:55Z</time>
      </trkpt>
      <trkpt lat="59.9889819488" lon="23.3909520848">
        <ele>20</ele>
        <time>2012-03-01T10:15:59Z</time>
      </trkpt>
      <trkpt lat="59.9889379438" lon="23.3911209801">
        <ele>20</ele>
        <time>2012-03-01T10:16:01Z</time>
      </trkpt>
      <trkpt lat="59.9888950285" lon="23.3912683339">
        <ele>19.8</ele>
        <time>2012-03-01T10:16:03Z</time>
      </trkpt>
      <trkpt lat="59.988843396" lon="23.3916016821">
        <ele>19.2</ele>
        <time>2012-03-01T10:16:07Z</time>
      </trkpt>
      <trkpt lat="59.9888253749" lon="23.3918693162">
        <ele>18.8</ele>
        <time>2012-03-01T10:16:11Z</time>
      </trkpt>
      <trkpt lat="59.9888273865" lon="23.3919417358">
        <ele>18.6</ele>
        <time>2012-03-01T10:16:12Z</time>
      </trkpt>
      <trkpt lat="59.9888252072" lon="23.392325543">
        <ele>18.2</ele>
        <time>2012-03-01T10:16:18Z</time>
      </trkpt>
      <trkpt lat="59.9888330024" lon="23.3925749045">
        <ele>18.2</ele>
        <time>2012-03-01T10:16:22Z</time>
      </trkpt>
      <trkpt lat="59.9888120476" lon="23.3927936721">
        <ele>18</ele>
        <time>2012-03-01T10:16:26Z</time>
      </trkpt>
      <trkpt lat="59.9888214354" lon="23.393058121">
        <ele>18</ele>
        <time>2012-03-01T10:16:31Z</time>
      </trkpt>
      <trkpt lat="59.9888120476" lon="23.393366072">
        <ele>18</ele>
        <time>2012-03-01T10:16:37Z</time>
      </trkpt>
      <trkpt lat="59.9888043363" lon="23.3934117534">
        <ele>18</ele>
        <time>2012-03-01T10:16:38Z</time>
      </trkpt>
      <trkpt lat="59.9888022408" lon="23.3936206303">
        <ele>18</ele>
        <time>2012-03-01T10:16:42Z</time>
      </trkpt>
      <trkpt lat="59.9888280571" lon="23.3938493724">
        <ele>18</ele>
        <time>2012-03-01T10:16:46Z</time>
      </trkpt>
      <trkpt lat="59.9888271351" lon="23.394025979">
        <ele>18.2</ele>
        <time>2012-03-01T10:16:49Z</time>
      </trkpt>
      <trkpt lat="59.9888174121" lon="23.3943194294">
        <ele>18.8</ele>
        <time>2012-03-01T10:16:53Z</time>
      </trkpt>
      <trkpt lat="59.9887740776" lon="23.3945855547">
        <ele>19.4</ele>
        <time>2012-03-01T10:16:59Z</time>
      </trkpt>
      <trkpt lat="59.9887712278" lon="23.394599301">
        <ele>19.4</ele>
        <time>2012-03-01T10:17:00Z</time>
      </trkpt>
      <trkpt lat="59.9887471717" lon="23.3946670267">
        <ele>19.6</ele>
        <time>2012-03-01T10:17:04Z</time>
      </trkpt>
      <trkpt lat="59.9887087826" lon="23.394764173">
        <ele>19.8</ele>
        <time>2012-03-01T10:17:08Z</time>
      </trkpt>
      <trkpt lat="59.9886589103" lon="23.394991071">
        <ele>19.8</ele>
        <time>2012-03-01T10:17:14Z</time>
      </trkpt>
      <trkpt lat="59.9885950403" lon="23.3951324737">
        <ele>20.4</ele>
        <time>2012-03-01T10:17:19Z</time>
      </trkpt>
      <trkpt lat="59.9885857363" lon="23.3951727068">
        <ele>20.6</ele>
        <time>2012-03-01T10:17:20Z</time>
      </trkpt>
      <trkpt lat="59.988485405" lon="23.3953372435">
        <ele>21.2</ele>
        <time>2012-03-01T10:17:26Z</time>
      </trkpt>
      <trkpt lat="59.9883903543" lon="23.3954586134">
        <ele>21.6</ele>
        <time>2012-03-01T10:17:32Z</time>
      </trkpt>
      <trkpt lat="59.9883787034" lon="23.3954804901">
        <ele>21.6</ele>
        <time>2012-03-01T10:17:33Z</time>
      </trkpt>
      <trkpt lat="59.9883162583" lon="23.3955655664">
        <ele>21.8</ele>
        <time>2012-03-01T10:17:37Z</time>
      </trkpt>
      <trkpt lat="59.9882115683" lon="23.3956860143">
        <ele>21.8</ele>
        <time>2012-03-01T10:17:42Z</time>
      </trkpt>
      <trkpt lat="59.9881991631" lon="23.3956965755">
        <ele>21.8</ele>
        <time>2012-03-01T10:17:43Z</time>
      </trkpt>
      <trkpt lat="59.9881354607" lon="23.3957879382">
        <ele>22.4</ele>
        <time>2012-03-01T10:17:48Z</time>
      </trkpt>
      <trkpt lat="59.9881873446" lon="23.3957751977">
        <ele>23.4</ele>
        <time>2012-03-01T10:17:57Z</time>
      </trkpt>
      <trkpt lat="59.9883139113" lon="23.3955266744">
        <ele>24.2</ele>
        <time>2012-03-01T10:18:02Z</time>
      </trkpt>
      <trkpt lat="59.9883440023" lon="23.3954807416">
        <ele>24.4</ele>
        <time>2012-03-01T10:18:03Z</time>
      </trkpt>
      <trkpt lat="59.9885180106" lon="23.3951266063">
        <ele>25.2</ele>
        <time>2012-03-01T10:18:08Z</time>
      </trkpt>
      <trkpt lat="59.9886128099" lon="23.3948682762">
        <ele>25.4</ele>
        <time>2012-03-01T10:18:12Z</time>
      </trkpt>
      <trkpt lat="59.9886563119" lon="23.3946921724">
        <ele>25.6</ele>
        <time>2012-03-01T10:18:13Z</time>
      </trkpt>
      <trkpt lat="59.9887853094" lon="23.3945087765">
        <ele>25.8</ele>
        <time>2012-03-01T10:18:17Z</time>
      </trkpt>
      <trkpt lat="59.9888185017" lon="23.3945029091">
        <ele>25.8</ele>
        <time>2012-03-01T10:18:18Z</time>
      </trkpt>
      <trkpt lat="59.9888678711" lon="23.3944682081">
        <ele>25.8</ele>
        <time>2012-03-01T10:18:20Z</time>
      </trkpt>
      <trkpt lat="59.9890036579" lon="23.3944311601">
        <ele>26</ele>
        <time>2012-03-01T10:18:27Z</time>
      </trkpt>
      <trkpt lat="59.9890494231" lon="23.394439542">
        <ele>26</ele>
        <time>2012-03-01T10:18:30Z</time>
      </trkpt>
      <trkpt lat="59.9890865549" lon="23.3944213533">
        <ele>26.2</ele>
        <time>2012-03-01T10:18:35Z</time>
      </trkpt>
      <trkpt lat="59.9891384388" lon="23.3944113788">
        <ele>26.2</ele>
        <time>2012-03-01T10:18:39Z</time>
      </trkpt>
      <trkpt lat="59.9891655124" lon="23.3944013205">
        <ele>26.2</ele>
        <time>2012-03-01T10:18:43Z</time>
      </trkpt>
      <trkpt lat="59.9892840324" lon="23.3941513723">
        <ele>26.2</ele>
        <time>2012-03-01T10:18:51Z</time>
      </trkpt>
      <trkpt lat="59.9893469805" lon="23.3940670503">
        <ele>26.2</ele>
        <time>2012-03-01T10:18:55Z</time>
      </trkpt>
      <trkpt lat="59.9893675162" lon="23.3940229615">
        <ele>26.2</ele>
        <time>2012-03-01T10:18:57Z</time>
      </trkpt>
      <trkpt lat="59.9894085036" lon="23.3939880928">
        <ele>26.2</ele>
        <time>2012-03-01T10:18:58Z</time>
      </trkpt>
      <trkpt lat="59.9895327234" lon="23.393922714">
        <ele>26.2</ele>
        <time>2012-03-01T10:19:03Z</time>
      </trkpt>
      <trkpt lat="59.9895755549" lon="23.3939039386">
        <ele>26.2</ele>
        <time>2012-03-01T10:19:05Z</time>
      </trkpt>
      <trkpt lat="59.98964546" lon="23.3938256516">
        <ele>26.2</ele>
        <time>2012-03-01T10:19:08Z</time>
      </trkpt>
      <trkpt lat="59.9897262615" lon="23.3937000908">
        <ele>26.2</ele>
        <time>2012-03-01T10:19:12Z</time>
      </trkpt>
      <trkpt lat="59.9898103319" lon="23.3935285133">
        <ele>26.2</ele>
        <time>2012-03-01T10:19:17Z</time>
      </trkpt>
      <trkpt lat="59.9898302809" lon="23.3935019426">
        <ele>26.2</ele>
        <time>2012-03-01T10:19:18Z</time>
      </trkpt>
      <trkpt lat="59.9898731962" lon="23.393456848">
        <ele>26.2</ele>
        <time>2012-03-01T10:19:20Z</time>
      </trkpt>
      <trkpt lat="59.9899800654" lon="23.3934350551">
        <ele>26.2</ele>
        <time>2012-03-01T10:19:27Z</time>
      </trkpt>
      <trkpt lat="59.9900658122" lon="23.3934609552">
        <ele>26.2</ele>
        <time>2012-03-01T10:19:33Z</time>
      </trkpt>
      <trkpt lat="59.9900994237" lon="23.393484173">
        <ele>26.2</ele>
        <time>2012-03-01T10:19:34Z</time>
      </trkpt>
      <trkpt lat="59.9902407425" lon="23.3936130866">
        <ele>26.2</ele>
        <time>2012-03-01T10:19:42Z</time>
      </trkpt>
      <trkpt lat="59.9903289201" lon="23.393688859">
        <ele>26.2</ele>
        <time>2012-03-01T10:19:47Z</time>
      </trkpt>
      <trkpt lat="59.9903467735" lon="23.3937181957">
        <ele>26.2</ele>
        <time>2012-03-01T10:19:48Z</time>
      </trkpt>
      <trkpt lat="59.9904096378" lon="23.3938088878">
        <ele>26.2</ele>
        <time>2012-03-01T10:19:53Z</time>
      </trkpt>
      <trkpt lat="59.9904153375" lon="23.3938825647">
        <ele>26.6</ele>
        <time>2012-03-01T10:19:55Z</time>
      </trkpt>
      <trkpt lat="59.9904135773" lon="23.3941703154">
        <ele>27.2</ele>
        <time>2012-03-01T10:20:00Z</time>
      </trkpt>
      <trkpt lat="59.9903875934" lon="23.3944262986">
        <ele>27.6</ele>
        <time>2012-03-01T10:20:05Z</time>
      </trkpt>
      <trkpt lat="59.9903108152" lon="23.394839191">
        <ele>27.8</ele>
        <time>2012-03-01T10:20:09Z</time>
      </trkpt>
      <trkpt lat="59.9902098133" lon="23.3951872913">
        <ele>28</ele>
        <time>2012-03-01T10:20:13Z</time>
      </trkpt>
      <trkpt lat="59.9901883556" lon="23.3952811686">
        <ele>28</ele>
        <time>2012-03-01T10:20:15Z</time>
      </trkpt>
      <trkpt lat="59.9901800575" lon="23.395730606">
        <ele>28</ele>
        <time>2012-03-01T10:20:20Z</time>
      </trkpt>
      <trkpt lat="59.990262284" lon="23.3959372199">
        <ele>28.2</ele>
        <time>2012-03-01T10:20:23Z</time>
      </trkpt>
      <trkpt lat="59.9902912854" lon="23.3959795485">
        <ele>28.2</ele>
        <time>2012-03-01T10:20:25Z</time>
      </trkpt>
      <trkpt lat="59.9903786248" lon="23.3962600068">
        <ele>28.2</ele>
        <time>2012-03-01T10:20:30Z</time>
      </trkpt>
      <trkpt lat="59.9903449295" lon="23.3965311613">
        <ele>28.2</ele>
        <time>2012-03-01T10:20:33Z</time>
      </trkpt>
      <trkpt lat="59.9902994996" lon="23.3967674471">
        <ele>28.2</ele>
        <time>2012-03-01T10:20:37Z</time>
      </trkpt>
      <trkpt lat="59.9902656367" lon="23.3968795131">
        <ele>28.2</ele>
        <time>2012-03-01T10:20:38Z</time>
      </trkpt>
      <trkpt lat="59.9901991683" lon="23.3970631605">
        <ele>28.2</ele>
        <time>2012-03-01T10:20:42Z</time>
      </trkpt>
      <trkpt lat="59.9901465299" lon="23.3971875479">
        <ele>28.2</ele>
        <time>2012-03-01T10:20:43Z</time>
      </trkpt>
      <trkpt lat="59.9900619566" lon="23.3974345625">
        <ele>28.2</ele>
        <time>2012-03-01T10:20:47Z</time>
      </trkpt>
      <trkpt lat="59.9900101564" lon="23.3976266756">
        <ele>28.2</ele>
        <time>2012-03-01T10:20:50Z</time>
      </trkpt>
      <trkpt lat="59.9899813227" lon="23.3978618717">
        <ele>28.2</ele>
        <time>2012-03-01T10:20:54Z</time>
      </trkpt>
      <trkpt lat="59.9899762936" lon="23.3979875164">
        <ele>28.2</ele>
        <time>2012-03-01T10:20:57Z</time>
      </trkpt>
      <trkpt lat="59.9900166943" lon="23.3982065355">
        <ele>28.2</ele>
        <time>2012-03-01T10:21:03Z</time>
      </trkpt>
      <trkpt lat="59.990018706" lon="23.3982430806">
        <ele>28.2</ele>
        <time>2012-03-01T10:21:04Z</time>
      </trkpt>
      <trkpt lat="59.9901013515" lon="23.3984639436">
        <ele>27.6</ele>
        <time>2012-03-01T10:21:11Z</time>
      </trkpt>
      <trkpt lat="59.9901572588" lon="23.3987079407">
        <ele>27</ele>
        <time>2012-03-01T10:21:15Z</time>
      </trkpt>
      <trkpt lat="59.9900998428" lon="23.3989904108">
        <ele>26.8</ele>
        <time>2012-03-01T10:21:18Z</time>
      </trkpt>
      <trkpt lat="59.9899831667" lon="23.3991727171">
        <ele>26.6</ele>
        <time>2012-03-01T10:21:22Z</time>
      </trkpt>
      <trkpt lat="59.9899009403" lon="23.3992841964">
        <ele>26.4</ele>
        <time>2012-03-01T10:21:26Z</time>
      </trkpt>
      <trkpt lat="59.9898157802" lon="23.3994251799">
        <ele>26.4</ele>
        <time>2012-03-01T10:21:31Z</time>
      </trkpt>
      <trkpt lat="59.9897459589" lon="23.3995228291">
        <ele>26.2</ele>
        <time>2012-03-01T10:21:35Z</time>
      </trkpt>
      <trkpt lat="59.9896735393" lon="23.3996249206">
        <ele>26.2</ele>
        <time>2012-03-01T10:21:39Z</time>
      </trkpt>
      <trkpt lat="59.9895962582" lon="23.3997589472">
        <ele>26.2</ele>
        <time>2012-03-01T10:21:43Z</time>
      </trkpt>
      <trkpt lat="59.9894801689" lon="23.3999278425">
        <ele>26.2</ele>
        <time>2012-03-01T10:21:49Z</time>
      </trkpt>
      <trkpt lat="59.9894219147" lon="23.4000367233">
        <ele>26.2</ele>
        <time>2012-03-01T10:21:53Z</time>
      </trkpt>
      <trkpt lat="59.9894137004" lon="23.4000690775">
        <ele>26.2</ele>
        <time>2012-03-01T10:21:54Z</time>
      </trkpt>
      <trkpt lat="59.9893862916" lon="23.4001730969">
        <ele>26.2</ele>
        <time>2012-03-01T10:21:57Z</time>
      </trkpt>
      <trkpt lat="59.9893628223" lon="23.4003367954">
        <ele>26.2</ele>
        <time>2012-03-01T10:22:01Z</time>
      </trkpt>
      <trkpt lat="59.9893412808" lon="23.4004424073">
        <ele>26.2</ele>
        <time>2012-03-01T10:22:04Z</time>
      </trkpt>
      <trkpt lat="59.9892946774" lon="23.4008582334">
        <ele>26.2</ele>
        <time>2012-03-01T10:22:10Z</time>
      </trkpt>
      <trkpt lat="59.9893688573" lon="23.4012215887">
        <ele>26.2</ele>
        <time>2012-03-01T10:22:13Z</time>
      </trkpt>
      <trkpt lat="59.9894649138" lon="23.4016307093">
        <ele>26.2</ele>
        <time>2012-03-01T10:22:17Z</time>
      </trkpt>
      <trkpt lat="59.9894756427" lon="23.40172576">
        <ele>26.2</ele>
        <time>2012-03-01T10:22:20Z</time>
      </trkpt>
      <trkpt lat="59.989480588" lon="23.4018557633">
        <ele>26.2</ele>
        <time>2012-03-01T10:22:27Z</time>
      </trkpt>
      <trkpt lat="59.9894791631" lon="23.4018837588">
        <ele>26.2</ele>
        <time>2012-03-01T10:22:28Z</time>
      </trkpt>
      <trkpt lat="59.9894267762" lon="23.4020493852">
        <ele>26.2</ele>
        <time>2012-03-01T10:22:32Z</time>
      </trkpt>
      <trkpt lat="59.9893111898" lon="23.4023730941">
        <ele>26.2</ele>
        <time>2012-03-01T10:22:37Z</time>
      </trkpt>
      <trkpt lat="59.9892037338" lon="23.402678782">
        <ele>26.2</ele>
        <time>2012-03-01T10:22:40Z</time>
      </trkpt>
      <trkpt lat="59.9891090184" lon="23.4030122978">
        <ele>26.2</ele>
        <time>2012-03-01T10:22:43Z</time>
      </trkpt>
      <trkpt lat="59.9890019815" lon="23.4033980329">
        <ele>26.2</ele>
        <time>2012-03-01T10:22:46Z</time>
      </trkpt>
      <trkpt lat="59.9889623351" lon="23.4035223365">
        <ele>26.2</ele>
        <time>2012-03-01T10:22:47Z</time>
      </trkpt>
      <trkpt lat="59.9889330823" lon="23.4036151241">
        <ele>26.2</ele>
        <time>2012-03-01T10:22:48Z</time>
      </trkpt>
      <trkpt lat="59.988940626" lon="23.4037979333">
        <ele>26.2</ele>
        <time>2012-03-01T10:22:53Z</time>
      </trkpt>
      <trkpt lat="59.989074904" lon="23.4036542676">
        <ele>25.6</ele>
        <time>2012-03-01T10:22:57Z</time>
      </trkpt>
      <trkpt lat="59.9892366747" lon="23.4033822749">
        <ele>25.2</ele>
        <time>2012-03-01T10:23:02Z</time>
      </trkpt>
      <trkpt lat="59.9893094296" lon="23.4032929239">
        <ele>24.6</ele>
        <time>2012-03-01T10:23:03Z</time>
      </trkpt>
      <trkpt lat="59.9894929094" lon="23.4032406208">
        <ele>23.4</ele>
        <time>2012-03-01T10:23:08Z</time>
      </trkpt>
      <trkpt lat="59.9895364953" lon="23.403268784">
        <ele>23</ele>
        <time>2012-03-01T10:23:09Z</time>
      </trkpt>
      <trkpt lat="59.9896210686" lon="23.403348412">
        <ele>22.4</ele>
        <time>2012-03-01T10:23:12Z</time>
      </trkpt>
      <trkpt lat="59.9897625551" lon="23.4034866296">
        <ele>21.4</ele>
        <time>2012-03-01T10:23:15Z</time>
      </trkpt>
      <trkpt lat="59.9898035426" lon="23.4035344902">
        <ele>20.6</ele>
        <time>2012-03-01T10:23:18Z</time>
      </trkpt>
      <trkpt lat="59.9898692567" lon="23.4035726279">
        <ele>19</ele>
        <time>2012-03-01T10:23:26Z</time>
      </trkpt>
      <trkpt lat="59.9898750402" lon="23.4035806745">
        <ele>19</ele>
        <time>2012-03-01T10:23:27Z</time>
      </trkpt>
      <trkpt lat="59.9899135131" lon="23.4036101788">
        <ele>18.4</ele>
        <time>2012-03-01T10:23:33Z</time>
      </trkpt>
      <trkpt lat="59.9899524051" lon="23.403640186">
        <ele>18</ele>
        <time>2012-03-01T10:23:39Z</time>
      </trkpt>
      <trkpt lat="59.9899960748" lon="23.4036544352">
        <ele>18</ele>
        <time>2012-03-01T10:23:45Z</time>
      </trkpt>
      <trkpt lat="59.9900641359" lon="23.4037185567">
        <ele>19.2</ele>
        <time>2012-03-01T10:23:53Z</time>
      </trkpt>
      <trkpt lat="59.9901358011" lon="23.4037849414">
        <ele>20.6</ele>
        <time>2012-03-01T10:24:00Z</time>
      </trkpt>
      <trkpt lat="59.9901446859" lon="23.4038012861">
        <ele>20.8</ele>
        <time>2012-03-01T10:24:02Z</time>
      </trkpt>
      <trkpt lat="59.9902054547" lon="23.4038550141">
        <ele>21.6</ele>
        <time>2012-03-01T10:24:05Z</time>
      </trkpt>
      <trkpt lat="59.990394718" lon="23.4039937345">
        <ele>22.8</ele>
        <time>2012-03-01T10:24:11Z</time>
      </trkpt>
      <trkpt lat="59.9905774434" lon="23.4040397511">
        <ele>23.2</ele>
        <time>2012-03-01T10:24:15Z</time>
      </trkpt>
      <trkpt lat="59.9906766013" lon="23.4040380748">
        <ele>23.4</ele>
        <time>2012-03-01T10:24:17Z</time>
      </trkpt>
      <trkpt lat="59.9908449937" lon="23.4040744522">
        <ele>23.6</ele>
        <time>2012-03-01T10:24:20Z</time>
      </trkpt>
      <trkpt lat="59.9908820417" lon="23.4041378194">
        <ele>23.6</ele>
        <time>2012-03-01T10:24:21Z</time>
      </trkpt>
      <trkpt lat="59.9909400444" lon="23.4044261567">
        <ele>23.8</ele>
        <time>2012-03-01T10:24:24Z</time>
      </trkpt>
      <trkpt lat="59.9909509409" lon="23.4045284997">
        <ele>23.8</ele>
        <time>2012-03-01T10:24:25Z</time>
      </trkpt>
      <trkpt lat="59.9909750808" lon="23.404948852">
        <ele>23.8</ele>
        <time>2012-03-01T10:24:29Z</time>
      </trkpt>
      <trkpt lat="59.9909775115" lon="23.4052796856">
        <ele>23.4</ele>
        <time>2012-03-01T10:24:33Z</time>
      </trkpt>
      <trkpt lat="59.9909683752" lon="23.4055524326">
        <ele>23</ele>
        <time>2012-03-01T10:24:37Z</time>
      </trkpt>
      <trkpt lat="59.9910039983" lon="23.4059146145">
        <ele>22.6</ele>
        <time>2012-03-01T10:24:42Z</time>
      </trkpt>
      <trkpt lat="59.9910823691" lon="23.40609734">
        <ele>22.6</ele>
        <time>2012-03-01T10:24:45Z</time>
      </trkpt>
      <trkpt lat="59.99115328" lon="23.406263553">
        <ele>22.4</ele>
        <time>2012-03-01T10:24:47Z</time>
      </trkpt>
      <trkpt lat="59.991247744" lon="23.4066733441">
        <ele>22.2</ele>
        <time>2012-03-01T10:24:52Z</time>
      </trkpt>
      <trkpt lat="59.9912614903" lon="23.4067509605">
        <ele>22.2</ele>
        <time>2012-03-01T10:24:53Z</time>
      </trkpt>
      <trkpt lat="59.9913568763" lon="23.4072635137">
        <ele>22.2</ele>
        <time>2012-03-01T10:24:58Z</time>
      </trkpt>
      <trkpt lat="59.9914296312" lon="23.4076179843">
        <ele>22.2</ele>
        <time>2012-03-01T10:25:01Z</time>
      </trkpt>
      <trkpt lat="59.9914918249" lon="23.4080084132">
        <ele>21.6</ele>
        <time>2012-03-01T10:25:04Z</time>
      </trkpt>
      <trkpt lat="59.9915180602" lon="23.4082628876">
        <ele>21.2</ele>
        <time>2012-03-01T10:25:06Z</time>
      </trkpt>
      <trkpt lat="59.9914726303" lon="23.4086762829">
        <ele>20.6</ele>
        <time>2012-03-01T10:25:10Z</time>
      </trkpt>
      <trkpt lat="59.9913520986" lon="23.4088301746">
        <ele>19.6</ele>
        <time>2012-03-01T10:25:15Z</time>
      </trkpt>
      <trkpt lat="59.9912670223" lon="23.4088264028">
        <ele>19</ele>
        <time>2012-03-01T10:25:18Z</time>
      </trkpt>
      <trkpt lat="59.9912158089" lon="23.4088091361">
        <ele>18.4</ele>
        <time>2012-03-01T10:25:20Z</time>
      </trkpt>
      <trkpt lat="59.9910978756" lon="23.4087141691">
        <ele>17.4</ele>
        <time>2012-03-01T10:25:23Z</time>
      </trkpt>
      <trkpt lat="59.9910017352" lon="23.4085531528">
        <ele>16.2</ele>
        <time>2012-03-01T10:25:27Z</time>
      </trkpt>
      <trkpt lat="59.9909226101" lon="23.4084226467">
        <ele>15.2</ele>
        <time>2012-03-01T10:25:32Z</time>
      </trkpt>
      <trkpt lat="59.9908947822" lon="23.4083533283">
        <ele>15</ele>
        <time>2012-03-01T10:25:33Z</time>
      </trkpt>
      <trkpt lat="59.9908137292" lon="23.4081561022">
        <ele>13.4</ele>
        <time>2012-03-01T10:25:38Z</time>
      </trkpt>
      <trkpt lat="59.9907280662" lon="23.4079526735">
        <ele>12.4</ele>
        <time>2012-03-01T10:25:45Z</time>
      </trkpt>
      <trkpt lat="59.9906806246" lon="23.4078268612">
        <ele>12</ele>
        <time>2012-03-01T10:25:48Z</time>
      </trkpt>
      <trkpt lat="59.9906066124" lon="23.4076655096">
        <ele>11.6</ele>
        <time>2012-03-01T10:25:53Z</time>
      </trkpt>
      <trkpt lat="59.9905760185" lon="23.4076265338">
        <ele>11.4</ele>
        <time>2012-03-01T10:25:57Z</time>
      </trkpt>
      <trkpt lat="59.990511897" lon="23.4075869712">
        <ele>11.2</ele>
        <time>2012-03-01T10:26:15Z</time>
      </trkpt>
      <trkpt lat="59.9904129067" lon="23.407583367">
        <ele>11.2</ele>
        <time>2012-03-01T10:26:22Z</time>
      </trkpt>
      <trkpt lat="59.9903986575" lon="23.4075693692">
        <ele>11.2</ele>
        <time>2012-03-01T10:26:28Z</time>
      </trkpt>
    </trkseg>
  </trk>
</gpx>